Illinois River (Oklahoma), Tahlequah (07196500)

StateOklahomaLatestGood (947 cfs)
RiverIllinois RiverRatingObservedEstimated
Updated2021-02-25 9:30 (27 minutes ago)Flood - The river is flooding. Obstacles can be treacherous or deadly. The river should be avoided at this stage for casual trips and definitely for the inexperienced. Trips should be attempted only with protective gear and equipment.Flood(none)3443
Discharge947 cfs (median: 642 cfs)High - The river is high and potentially dangerous, especially for the young and / or inexperienced. Normal stream obstacles are sometimes difficult to navigate. Extended distances can be attempted, but canoe travel may not be advisable.High(none)1734
Height5.83 feetGood - Conditions are ideal for a canoe or kayak. Boats typically will drag on fewer than one-quarter of riffles, if at all, and portages are unnecessary or rare. Normal float lengths can be attempted without a problem.Good300924
TrendRising (falling over 24 hours)Low - River is low but can still be floated. Some riffles are okay but most come with significant dragging and might need a portage. Float lengths should be reduced to accommodate low flow, dragging, and portages.Low(none)607
USGSExternal icon USGS Site (External icon Google Maps)Poor - River is too low to float comfortably. Most or all riffles will drag or must be portaged and some obstacles (such as slick shelf rock) cause undue problems. Avoid the river at this stage for casual paddling trips.Poor(none)234

Trending Data

Plot Image

Trips for Illinois River (Oklahoma), Tahlequah (07196500)

DateStartEndDistanceConditionDischargeHeightFishingDetails

A total of 0 rows are displayed.

Condition Descriptions

Fishing Conditions

Fish Species

Notes

Classic Trip List

The classic River Trips application is still available for use. It is updated with the new system using a data retrofit. It is no longer maintained. The original River Trips application is no longer updated (as of 1 Dec 2016) but can be checked for errors or for the condition of the data before it was converted to the new system.

Gauge Data Table

ObservationHeightDischargeMaximum
Discharge
Minimum
Discharge
Mean
Discharge
P05P10P20P25P50
(Median)
P75P80P90P95
2021-02-25 09:30 5.83 947 31300 (2018) 95 (1964) 1740 135 223 318 366 642 1360 1570 2630 4880
2021-02-25 08:30 5.82 939 31300 (2018) 95 (1964) 1740 135 223 318 366 642 1360 1570 2630 4880
2021-02-25 07:30 5.83 947 31300 (2018) 95 (1964) 1740 135 223 318 366 642 1360 1570 2630 4880
2021-02-25 06:30 5.84 954 31300 (2018) 95 (1964) 1740 135 223 318 366 642 1360 1570 2630 4880
2021-02-25 05:30 5.82 939 31300 (2018) 95 (1964) 1740 135 223 318 366 642 1360 1570 2630 4880
2021-02-25 04:30 5.83 947 31300 (2018) 95 (1964) 1740 135 223 318 366 642 1360 1570 2630 4880
2021-02-25 03:30 5.84 954 31300 (2018) 95 (1964) 1740 135 223 318 366 642 1360 1570 2630 4880
2021-02-25 02:30 5.83 947 31300 (2018) 95 (1964) 1740 135 223 318 366 642 1360 1570 2630 4880
2021-02-25 01:30 5.83 947 31300 (2018) 95 (1964) 1740 135 223 318 366 642 1360 1570 2630 4880
2021-02-25 00:30 5.84 954 31300 (2018) 95 (1964) 1740 135 223 318 366 642 1360 1570 2630 4880
2021-02-24 23:30 5.85 962 15400 (1985) 95 (1964) 1500 136 231 332 385 665 1400 1710 3330 7150
2021-02-24 22:30 5.84 954 15400 (1985) 95 (1964) 1500 136 231 332 385 665 1400 1710 3330 7150
2021-02-24 21:30 5.85 962 15400 (1985) 95 (1964) 1500 136 231 332 385 665 1400 1710 3330 7150
2021-02-24 20:30 5.85 962 15400 (1985) 95 (1964) 1500 136 231 332 385 665 1400 1710 3330 7150
2021-02-24 19:30 5.84 954 15400 (1985) 95 (1964) 1500 136 231 332 385 665 1400 1710 3330 7150
2021-02-24 18:30 5.83 947 15400 (1985) 95 (1964) 1500 136 231 332 385 665 1400 1710 3330 7150
2021-02-24 17:30 5.84 954 15400 (1985) 95 (1964) 1500 136 231 332 385 665 1400 1710 3330 7150
2021-02-24 16:30 5.86 969 15400 (1985) 95 (1964) 1500 136 231 332 385 665 1400 1710 3330 7150
2021-02-24 15:30 5.84 954 15400 (1985) 95 (1964) 1500 136 231 332 385 665 1400 1710 3330 7150
2021-02-24 14:30 5.84 954 15400 (1985) 95 (1964) 1500 136 231 332 385 665 1400 1710 3330 7150
2021-02-24 13:30 5.83 947 15400 (1985) 95 (1964) 1500 136 231 332 385 665 1400 1710 3330 7150
2021-02-24 12:30 5.85 962 15400 (1985) 95 (1964) 1500 136 231 332 385 665 1400 1710 3330 7150
2021-02-24 11:30 5.86 969 15400 (1985) 95 (1964) 1500 136 231 332 385 665 1400 1710 3330 7150
2021-02-24 10:30 5.85 962 15400 (1985) 95 (1964) 1500 136 231 332 385 665 1400 1710 3330 7150
2021-02-24 09:30 5.84 954 15400 (1985) 95 (1964) 1500 136 231 332 385 665 1400 1710 3330 7150
2021-02-24 08:30 5.85 962 15400 (1985) 95 (1964) 1500 136 231 332 385 665 1400 1710 3330 7150
2021-02-24 07:30 5.84 954 15400 (1985) 95 (1964) 1500 136 231 332 385 665 1400 1710 3330 7150
2021-02-24 06:30 5.83 947 15400 (1985) 95 (1964) 1500 136 231 332 385 665 1400 1710 3330 7150
2021-02-24 05:30 5.85 962 15400 (1985) 95 (1964) 1500 136 231 332 385 665 1400 1710 3330 7150
2021-02-24 04:30 5.82 939 15400 (1985) 95 (1964) 1500 136 231 332 385 665 1400 1710 3330 7150
2021-02-24 03:30 5.83 947 15400 (1985) 95 (1964) 1500 136 231 332 385 665 1400 1710 3330 7150
2021-02-24 02:30 5.84 954 15400 (1985) 95 (1964) 1500 136 231 332 385 665 1400 1710 3330 7150
2021-02-24 01:30 5.82 939 15400 (1985) 95 (1964) 1500 136 231 332 385 665 1400 1710 3330 7150
2021-02-24 00:30 5.82 939 15400 (1985) 95 (1964) 1500 136 231 332 385 665 1400 1710 3330 7150
2021-02-23 23:30 5.82 939 7760 (1945) 100 (1964) 1270 139 219 335 378 652 1500 1800 3470 5200
2021-02-23 22:30 5.81 932 7760 (1945) 100 (1964) 1270 139 219 335 378 652 1500 1800 3470 5200
2021-02-23 21:30 5.82 939 7760 (1945) 100 (1964) 1270 139 219 335 378 652 1500 1800 3470 5200
2021-02-23 20:30 5.82 939 7760 (1945) 100 (1964) 1270 139 219 335 378 652 1500 1800 3470 5200
2021-02-23 19:30 5.81 932 7760 (1945) 100 (1964) 1270 139 219 335 378 652 1500 1800 3470 5200
2021-02-23 18:30 5.80 925 7760 (1945) 100 (1964) 1270 139 219 335 378 652 1500 1800 3470 5200
2021-02-23 17:30 5.78 911 7760 (1945) 100 (1964) 1270 139 219 335 378 652 1500 1800 3470 5200
2021-02-23 16:30 5.77 903 7760 (1945) 100 (1964) 1270 139 219 335 378 652 1500 1800 3470 5200
2021-02-23 15:30 5.76 896 7760 (1945) 100 (1964) 1270 139 219 335 378 652 1500 1800 3470 5200
2021-02-23 14:30 5.78 911 7760 (1945) 100 (1964) 1270 139 219 335 378 652 1500 1800 3470 5200
2021-02-23 13:30 5.77 903 7760 (1945) 100 (1964) 1270 139 219 335 378 652 1500 1800 3470 5200
2021-02-23 12:30 5.76 896 7760 (1945) 100 (1964) 1270 139 219 335 378 652 1500 1800 3470 5200
2021-02-23 11:30 5.74 882 7760 (1945) 100 (1964) 1270 139 219 335 378 652 1500 1800 3470 5200
2021-02-23 10:30 5.72 868 7760 (1945) 100 (1964) 1270 139 219 335 378 652 1500 1800 3470 5200
2021-02-23 09:30 5.72 868 7760 (1945) 100 (1964) 1270 139 219 335 378 652 1500 1800 3470 5200
2021-02-23 08:30 5.70 855 7760 (1945) 100 (1964) 1270 139 219 335 378 652 1500 1800 3470 5200
2021-02-23 07:30 5.69 848 7760 (1945) 100 (1964) 1270 139 219 335 378 652 1500 1800 3470 5200
2021-02-23 06:30 5.68 841 7760 (1945) 100 (1964) 1270 139 219 335 378 652 1500 1800 3470 5200
2021-02-23 05:30 5.67 834 7760 (1945) 100 (1964) 1270 139 219 335 378 652 1500 1800 3470 5200
2021-02-23 04:30 5.66 827 7760 (1945) 100 (1964) 1270 139 219 335 378 652 1500 1800 3470 5200
2021-02-23 03:30 5.64 814 7760 (1945) 100 (1964) 1270 139 219 335 378 652 1500 1800 3470 5200
2021-02-23 02:30 5.66 827 7760 (1945) 100 (1964) 1270 139 219 335 378 652 1500 1800 3470 5200
2021-02-23 00:30 5.62 801 7760 (1945) 100 (1964) 1270 139 219 335 378 652 1500 1800 3470 5200
2021-02-22 23:30 5.62 801 18500 (1997) 100 (1964) 1490 137 210 352 400 675 1320 1470 2550 6790
2021-02-22 22:30 5.61 794 18500 (1997) 100 (1964) 1490 137 210 352 400 675 1320 1470 2550 6790
2021-02-22 21:30 5.60 788 18500 (1997) 100 (1964) 1490 137 210 352 400 675 1320 1470 2550 6790
2021-02-22 20:30 5.59 781 18500 (1997) 100 (1964) 1490 137 210 352 400 675 1320 1470 2550 6790
2021-02-22 19:30 5.59 781 18500 (1997) 100 (1964) 1490 137 210 352 400 675 1320 1470 2550 6790
2021-02-22 18:30 5.59 781 18500 (1997) 100 (1964) 1490 137 210 352 400 675 1320 1470 2550 6790
2021-02-22 17:30 5.56 762 18500 (1997) 100 (1964) 1490 137 210 352 400 675 1320 1470 2550 6790
2021-02-22 16:30 5.58 775 18500 (1997) 100 (1964) 1490 137 210 352 400 675 1320 1470 2550 6790
2021-02-22 15:30 5.55 756 18500 (1997) 100 (1964) 1490 137 210 352 400 675 1320 1470 2550 6790
2021-02-22 14:30 5.55 756 18500 (1997) 100 (1964) 1490 137 210 352 400 675 1320 1470 2550 6790
2021-02-22 13:30 5.56 762 18500 (1997) 100 (1964) 1490 137 210 352 400 675 1320 1470 2550 6790
2021-02-22 12:30 5.56 762 18500 (1997) 100 (1964) 1490 137 210 352 400 675 1320 1470 2550 6790
2021-02-22 11:30 5.56 762 18500 (1997) 100 (1964) 1490 137 210 352 400 675 1320 1470 2550 6790
2021-02-22 10:30 5.55 756 18500 (1997) 100 (1964) 1490 137 210 352 400 675 1320 1470 2550 6790
2021-02-22 09:30 5.55 756 18500 (1997) 100 (1964) 1490 137 210 352 400 675 1320 1470 2550 6790
2021-02-22 08:30 5.56 762 18500 (1997) 100 (1964) 1490 137 210 352 400 675 1320 1470 2550 6790
2021-02-22 07:30 5.57 768 18500 (1997) 100 (1964) 1490 137 210 352 400 675 1320 1470 2550 6790
2021-02-22 06:30 5.57 768 18500 (1997) 100 (1964) 1490 137 210 352 400 675 1320 1470 2550 6790
2021-02-22 05:30 5.57 768 18500 (1997) 100 (1964) 1490 137 210 352 400 675 1320 1470 2550 6790
2021-02-22 04:30 5.53 743 18500 (1997) 100 (1964) 1490 137 210 352 400 675 1320 1470 2550 6790
2021-02-22 03:30 5.55 756 18500 (1997) 100 (1964) 1490 137 210 352 400 675 1320 1470 2550 6790
2021-02-22 02:30 5.56 762 18500 (1997) 100 (1964) 1490 137 210 352 400 675 1320 1470 2550 6790
2021-02-22 01:30 5.56 762 18500 (1997) 100 (1964) 1490 137 210 352 400 675 1320 1470 2550 6790
2021-02-22 00:30 5.55 756 18500 (1997) 100 (1964) 1490 137 210 352 400 675 1320 1470 2550 6790
2021-02-21 23:30 5.57 768 31400 (1951) 100 (1964) 1520 138 210 360 389 708 1290 1480 2920 4810
2021-02-21 22:30 5.55 756 31400 (1951) 100 (1964) 1520 138 210 360 389 708 1290 1480 2920 4810
2021-02-21 21:30 5.54 749 31400 (1951) 100 (1964) 1520 138 210 360 389 708 1290 1480 2920 4810
2021-02-21 20:30 5.55 756 31400 (1951) 100 (1964) 1520 138 210 360 389 708 1290 1480 2920 4810
2021-02-21 19:30 5.54 749 31400 (1951) 100 (1964) 1520 138 210 360 389 708 1290 1480 2920 4810
2021-02-21 18:30 5.54 749 31400 (1951) 100 (1964) 1520 138 210 360 389 708 1290 1480 2920 4810
2021-02-21 17:30 5.53 743 31400 (1951) 100 (1964) 1520 138 210 360 389 708 1290 1480 2920 4810
2021-02-21 16:30 5.53 743 31400 (1951) 100 (1964) 1520 138 210 360 389 708 1290 1480 2920 4810
2021-02-21 15:30 5.55 756 31400 (1951) 100 (1964) 1520 138 210 360 389 708 1290 1480 2920 4810
2021-02-21 14:30 5.52 737 31400 (1951) 100 (1964) 1520 138 210 360 389 708 1290 1480 2920 4810
2021-02-21 13:30 5.54 749 31400 (1951) 100 (1964) 1520 138 210 360 389 708 1290 1480 2920 4810
2021-02-21 12:30 5.54 749 31400 (1951) 100 (1964) 1520 138 210 360 389 708 1290 1480 2920 4810
2021-02-21 11:30 5.54 749 31400 (1951) 100 (1964) 1520 138 210 360 389 708 1290 1480 2920 4810
2021-02-21 10:30 5.54 749 31400 (1951) 100 (1964) 1520 138 210 360 389 708 1290 1480 2920 4810
2021-02-21 09:30 5.55 756 31400 (1951) 100 (1964) 1520 138 210 360 389 708 1290 1480 2920 4810
2021-02-21 08:30 5.54 749 31400 (1951) 100 (1964) 1520 138 210 360 389 708 1290 1480 2920 4810
2021-02-21 07:30 5.54 749 31400 (1951) 100 (1964) 1520 138 210 360 389 708 1290 1480 2920 4810
2021-02-21 06:30 5.54 749 31400 (1951) 100 (1964) 1520 138 210 360 389 708 1290 1480 2920 4810
2021-02-21 05:30 5.53 743 31400 (1951) 100 (1964) 1520 138 210 360 389 708 1290 1480 2920 4810
2021-02-21 04:30 5.54 749 31400 (1951) 100 (1964) 1520 138 210 360 389 708 1290 1480 2920 4810
2021-02-21 03:30 5.54 749 31400 (1951) 100 (1964) 1520 138 210 360 389 708 1290 1480 2920 4810
2021-02-21 02:30 5.53 743 31400 (1951) 100 (1964) 1520 138 210 360 389 708 1290 1480 2920 4810
2021-02-21 01:30 5.53 743 31400 (1951) 100 (1964) 1520 138 210 360 389 708 1290 1480 2920 4810
2021-02-21 00:30 5.53 743 31400 (1951) 100 (1964) 1520 138 210 360 389 708 1290 1480 2920 4810
2021-02-20 23:30 5.53 743 19700 (1951) 100 (1954) 1220 139 216 343 385 644 1130 1180 2200 4420
2021-02-20 22:30 5.54 749 19700 (1951) 100 (1954) 1220 139 216 343 385 644 1130 1180 2200 4420
2021-02-20 21:30 5.55 756 19700 (1951) 100 (1954) 1220 139 216 343 385 644 1130 1180 2200 4420
2021-02-20 20:30 5.53 743 19700 (1951) 100 (1954) 1220 139 216 343 385 644 1130 1180 2200 4420
2021-02-20 19:30 5.53 743 19700 (1951) 100 (1954) 1220 139 216 343 385 644 1130 1180 2200 4420
2021-02-20 18:30 5.54 749 19700 (1951) 100 (1954) 1220 139 216 343 385 644 1130 1180 2200 4420
2021-02-20 17:30 5.52 737 19700 (1951) 100 (1954) 1220 139 216 343 385 644 1130 1180 2200 4420
2021-02-20 16:30 5.53 743 19700 (1951) 100 (1954) 1220 139 216 343 385 644 1130 1180 2200 4420
2021-02-20 15:30 5.54 749 19700 (1951) 100 (1954) 1220 139 216 343 385 644 1130 1180 2200 4420
2021-02-20 14:30 5.52 737 19700 (1951) 100 (1954) 1220 139 216 343 385 644 1130 1180 2200 4420
2021-02-20 13:30 5.52 737 19700 (1951) 100 (1954) 1220 139 216 343 385 644 1130 1180 2200 4420
2021-02-20 12:30 5.54 749 19700 (1951) 100 (1954) 1220 139 216 343 385 644 1130 1180 2200 4420
2021-02-20 11:30 5.53 743 19700 (1951) 100 (1954) 1220 139 216 343 385 644 1130 1180 2200 4420
2021-02-20 10:30 5.53 743 19700 (1951) 100 (1954) 1220 139 216 343 385 644 1130 1180 2200 4420
2021-02-20 09:30 5.53 743 19700 (1951) 100 (1954) 1220 139 216 343 385 644 1130 1180 2200 4420
2021-02-20 08:30 5.55 756 19700 (1951) 100 (1954) 1220 139 216 343 385 644 1130 1180 2200 4420
2021-02-20 07:30 5.54 749 19700 (1951) 100 (1954) 1220 139 216 343 385 644 1130 1180 2200 4420
2021-02-20 06:30 5.54 749 19700 (1951) 100 (1954) 1220 139 216 343 385 644 1130 1180 2200 4420
2021-02-20 05:30 5.55 756 19700 (1951) 100 (1954) 1220 139 216 343 385 644 1130 1180 2200 4420
2021-02-20 04:30 5.55 756 19700 (1951) 100 (1954) 1220 139 216 343 385 644 1130 1180 2200 4420
2021-02-20 03:30 5.56 762 19700 (1951) 100 (1954) 1220 139 216 343 385 644 1130 1180 2200 4420
2021-02-20 02:30 5.55 756 19700 (1951) 100 (1954) 1220 139 216 343 385 644 1130 1180 2200 4420
2021-02-20 01:30 5.57 768 19700 (1951) 100 (1954) 1220 139 216 343 385 644 1130 1180 2200 4420
2021-02-20 00:30 5.54 749 19700 (1951) 100 (1954) 1220 139 216 343 385 644 1130 1180 2200 4420
2021-02-19 23:30 5.56 762 24800 (1938) 100 (1954) 1400 146 227 344 394 667 1140 1260 2230 3900
2021-02-19 22:30 5.56 762 24800 (1938) 100 (1954) 1400 146 227 344 394 667 1140 1260 2230 3900
2021-02-19 21:30 5.56 762 24800 (1938) 100 (1954) 1400 146 227 344 394 667 1140 1260 2230 3900
2021-02-19 19:30 5.55 756 24800 (1938) 100 (1954) 1400 146 227 344 394 667 1140 1260 2230 3900
2021-02-19 18:30 5.56 762 24800 (1938) 100 (1954) 1400 146 227 344 394 667 1140 1260 2230 3900
2021-02-19 17:30 5.54 749 24800 (1938) 100 (1954) 1400 146 227 344 394 667 1140 1260 2230 3900
2021-02-19 16:30 5.55 756 24800 (1938) 100 (1954) 1400 146 227 344 394 667 1140 1260 2230 3900
2021-02-19 15:30 5.56 762 24800 (1938) 100 (1954) 1400 146 227 344 394 667 1140 1260 2230 3900
2021-02-19 14:30 5.55 756 24800 (1938) 100 (1954) 1400 146 227 344 394 667 1140 1260 2230 3900
2021-02-19 13:30 5.56 762 24800 (1938) 100 (1954) 1400 146 227 344 394 667 1140 1260 2230 3900
2021-02-19 12:30 5.55 756 24800 (1938) 100 (1954) 1400 146 227 344 394 667 1140 1260 2230 3900
2021-02-19 11:30 5.56 762 24800 (1938) 100 (1954) 1400 146 227 344 394 667 1140 1260 2230 3900
2021-02-19 10:30 5.56 762 24800 (1938) 100 (1954) 1400 146 227 344 394 667 1140 1260 2230 3900
2021-02-19 09:30 5.57 768 24800 (1938) 100 (1954) 1400 146 227 344 394 667 1140 1260 2230 3900
2021-02-19 08:30 5.56 762 24800 (1938) 100 (1954) 1400 146 227 344 394 667 1140 1260 2230 3900
2021-02-19 07:30 5.57 768 24800 (1938) 100 (1954) 1400 146 227 344 394 667 1140 1260 2230 3900
2021-02-19 06:30 5.57 768 24800 (1938) 100 (1954) 1400 146 227 344 394 667 1140 1260 2230 3900
2021-02-19 05:30 5.56 762 24800 (1938) 100 (1954) 1400 146 227 344 394 667 1140 1260 2230 3900
2021-02-19 04:30 5.58 775 24800 (1938) 100 (1954) 1400 146 227 344 394 667 1140 1260 2230 3900
2021-02-19 03:30 5.57 768 24800 (1938) 100 (1954) 1400 146 227 344 394 667 1140 1260 2230 3900
2021-02-19 02:30 5.58 775 24800 (1938) 100 (1954) 1400 146 227 344 394 667 1140 1260 2230 3900
2021-02-19 01:30 5.58 775 24800 (1938) 100 (1954) 1400 146 227 344 394 667 1140 1260 2230 3900
2021-02-19 00:30 5.59 781 24800 (1938) 100 (1954) 1400 146 227 344 394 667 1140 1260 2230 3900
2021-02-18 23:30 5.59 781 34700 (1938) 100 (1954) 1520 142 216 335 368 648 1200 1400 2610 4590
2021-02-18 22:30 5.58 775 34700 (1938) 100 (1954) 1520 142 216 335 368 648 1200 1400 2610 4590
2021-02-18 21:30 5.59 781 34700 (1938) 100 (1954) 1520 142 216 335 368 648 1200 1400 2610 4590
2021-02-18 20:30 5.59 781 34700 (1938) 100 (1954) 1520 142 216 335 368 648 1200 1400 2610 4590
2021-02-18 19:30 5.59 781 34700 (1938) 100 (1954) 1520 142 216 335 368 648 1200 1400 2610 4590
2021-02-18 18:30 5.59 781 34700 (1938) 100 (1954) 1520 142 216 335 368 648 1200 1400 2610 4590
2021-02-18 17:30 5.59 781 34700 (1938) 100 (1954) 1520 142 216 335 368 648 1200 1400 2610 4590
2021-02-18 16:30 5.59 781 34700 (1938) 100 (1954) 1520 142 216 335 368 648 1200 1400 2610 4590
2021-02-18 15:30 5.60 788 34700 (1938) 100 (1954) 1520 142 216 335 368 648 1200 1400 2610 4590
2021-02-18 14:30 5.60 788 34700 (1938) 100 (1954) 1520 142 216 335 368 648 1200 1400 2610 4590
2021-02-18 13:30 5.60 788 34700 (1938) 100 (1954) 1520 142 216 335 368 648 1200 1400 2610 4590
2021-02-18 12:30 5.60 788 34700 (1938) 100 (1954) 1520 142 216 335 368 648 1200 1400 2610 4590
2021-02-18 11:30 5.59 781 34700 (1938) 100 (1954) 1520 142 216 335 368 648 1200 1400 2610 4590
2021-02-18 10:30 5.60 788 34700 (1938) 100 (1954) 1520 142 216 335 368 648 1200 1400 2610 4590
2021-02-18 09:30 5.61 794 34700 (1938) 100 (1954) 1520 142 216 335 368 648 1200 1400 2610 4590
2021-02-18 08:30 5.61 794 34700 (1938) 100 (1954) 1520 142 216 335 368 648 1200 1400 2610 4590
2021-02-18 07:30 5.62 801 34700 (1938) 100 (1954) 1520 142 216 335 368 648 1200 1400 2610 4590
2021-02-18 06:30 5.62 801 34700 (1938) 100 (1954) 1520 142 216 335 368 648 1200 1400 2610 4590
2021-02-18 05:30 5.63 807 34700 (1938) 100 (1954) 1520 142 216 335 368 648 1200 1400 2610 4590
2021-02-18 04:30 5.63 807 34700 (1938) 100 (1954) 1520 142 216 335 368 648 1200 1400 2610 4590
2021-02-18 03:30 5.62 801 34700 (1938) 100 (1954) 1520 142 216 335 368 648 1200 1400 2610 4590
2021-02-18 02:30 5.64 814 34700 (1938) 100 (1954) 1520 142 216 335 368 648 1200 1400 2610 4590
2021-02-18 01:30 5.65 821 34700 (1938) 100 (1954) 1520 142 216 335 368 648 1200 1400 2610 4590
2021-02-18 00:30 5.64 814 34700 (1938) 100 (1954) 1520 142 216 335 368 648 1200 1400 2610 4590
2021-02-17 23:30 5.65 821 24400 (1938) 100 (1954) 1410 139 227 314 352 641 1140 1510 2930 6650
2021-02-17 22:30 5.62 801 24400 (1938) 100 (1954) 1410 139 227 314 352 641 1140 1510 2930 6650
2021-02-17 21:30 5.64 814 24400 (1938) 100 (1954) 1410 139 227 314 352 641 1140 1510 2930 6650
2021-02-17 20:30 5.65 821 24400 (1938) 100 (1954) 1410 139 227 314 352 641 1140 1510 2930 6650
2021-02-17 19:30 5.67 834 24400 (1938) 100 (1954) 1410 139 227 314 352 641 1140 1510 2930 6650
2021-02-17 18:30 5.65 821 24400 (1938) 100 (1954) 1410 139 227 314 352 641 1140 1510 2930 6650
2021-02-17 17:30 5.64 814 24400 (1938) 100 (1954) 1410 139 227 314 352 641 1140 1510 2930 6650
2021-02-17 16:30 5.65 821 24400 (1938) 100 (1954) 1410 139 227 314 352 641 1140 1510 2930 6650
2021-02-17 15:30 5.64 814 24400 (1938) 100 (1954) 1410 139 227 314 352 641 1140 1510 2930 6650
2021-02-17 14:30 5.65 821 24400 (1938) 100 (1954) 1410 139 227 314 352 641 1140 1510 2930 6650
2021-02-17 13:30 5.64 814 24400 (1938) 100 (1954) 1410 139 227 314 352 641 1140 1510 2930 6650
2021-02-17 12:30 5.66 827 24400 (1938) 100 (1954) 1410 139 227 314 352 641 1140 1510 2930 6650
2021-02-17 11:30 5.65 821 24400 (1938) 100 (1954) 1410 139 227 314 352 641 1140 1510 2930 6650
2021-02-17 10:30 5.64 814 24400 (1938) 100 (1954) 1410 139 227 314 352 641 1140 1510 2930 6650
2021-02-17 09:30 5.65 821 24400 (1938) 100 (1954) 1410 139 227 314 352 641 1140 1510 2930 6650
2021-02-17 08:30 5.64 814 24400 (1938) 100 (1954) 1410 139 227 314 352 641 1140 1510 2930 6650
2021-02-17 07:30 5.64 814 24400 (1938) 100 (1954) 1410 139 227 314 352 641 1140 1510 2930 6650
2021-02-17 06:30 5.64 814 24400 (1938) 100 (1954) 1410 139 227 314 352 641 1140 1510 2930 6650
2021-02-17 05:30 5.65 821 24400 (1938) 100 (1954) 1410 139 227 314 352 641 1140 1510 2930 6650
2021-02-17 04:30 5.65 821 24400 (1938) 100 (1954) 1410 139 227 314 352 641 1140 1510 2930 6650
2021-02-17 03:30 5.64 814 24400 (1938) 100 (1954) 1410 139 227 314 352 641 1140 1510 2930 6650
2021-02-17 02:30 5.65 821 24400 (1938) 100 (1954) 1410 139 227 314 352 641 1140 1510 2930 6650
2021-02-17 01:30 5.67 834 24400 (1938) 100 (1954) 1410 139 227 314 352 641 1140 1510 2930 6650
2021-02-17 00:30 5.66 827 24400 (1938) 100 (1954) 1410 139 227 314 352 641 1140 1510 2930 6650
2021-02-16 23:30 5.66 827 13300 (1949) 96 (1940) 1280 141 197 288 346 656 1030 1280 2200 6900
2021-02-16 22:30 5.67 834 13300 (1949) 96 (1940) 1280 141 197 288 346 656 1030 1280 2200 6900
2021-02-16 21:30 5.69 848 13300 (1949) 96 (1940) 1280 141 197 288 346 656 1030 1280 2200 6900
2021-02-16 20:30 5.70 855 13300 (1949) 96 (1940) 1280 141 197 288 346 656 1030 1280 2200 6900
2021-02-16 19:30 5.72 868 13300 (1949) 96 (1940) 1280 141 197 288 346 656 1030 1280 2200 6900
2021-02-16 18:30 5.72 868 13300 (1949) 96 (1940) 1280 141 197 288 346 656 1030 1280 2200 6900
2021-02-16 17:30 5.72 868 13300 (1949) 96 (1940) 1280 141 197 288 346 656 1030 1280 2200 6900
2021-02-16 16:30 5.68 841 13300 (1949) 96 (1940) 1280 141 197 288 346 656 1030 1280 2200 6900
2021-02-16 15:30 5.70 855 13300 (1949) 96 (1940) 1280 141 197 288 346 656 1030 1280 2200 6900
2021-02-16 14:30 5.72 868 13300 (1949) 96 (1940) 1280 141 197 288 346 656 1030 1280 2200 6900
2021-02-16 13:30 5.67 834 13300 (1949) 96 (1940) 1280 141 197 288 346 656 1030 1280 2200 6900
2021-02-16 12:30 5.59 781 13300 (1949) 96 (1940) 1280 141 197 288 346 656 1030 1280 2200 6900
2021-02-16 11:30 5.57 768 13300 (1949) 96 (1940) 1280 141 197 288 346 656 1030 1280 2200 6900
2021-02-16 10:30 5.66 827 13300 (1949) 96 (1940) 1280 141 197 288 346 656 1030 1280 2200 6900
2021-02-16 09:30 5.64 814 13300 (1949) 96 (1940) 1280 141 197 288 346 656 1030 1280 2200 6900
2021-02-16 08:30 5.60 788 13300 (1949) 96 (1940) 1280 141 197 288 346 656 1030 1280 2200 6900
2021-02-16 07:30 5.62 801 13300 (1949) 96 (1940) 1280 141 197 288 346 656 1030 1280 2200 6900
2021-02-16 06:30 5.61 794 13300 (1949) 96 (1940) 1280 141 197 288 346 656 1030 1280 2200 6900
2021-02-16 05:30 5.65 821 13300 (1949) 96 (1940) 1280 141 197 288 346 656 1030 1280 2200 6900
2021-02-16 04:30 5.65 821 13300 (1949) 96 (1940) 1280 141 197 288 346 656 1030 1280 2200 6900
2021-02-16 03:30 5.64 814 13300 (1949) 96 (1940) 1280 141 197 288 346 656 1030 1280 2200 6900
2021-02-16 02:30 5.65 821 13300 (1949) 96 (1940) 1280 141 197 288 346 656 1030 1280 2200 6900
2021-02-16 00:30 5.66 827 13300 (1949) 96 (1940) 1280 141 197 288 346 656 1030 1280 2200 6900
2021-02-15 23:30 5.66 827 9380 (1989) 93 (1940) 1090 141 178 285 338 624 1020 1160 2390 3760
2021-02-15 22:30 5.67 834 9380 (1989) 93 (1940) 1090 141 178 285 338 624 1020 1160 2390 3760
2021-02-15 21:30 5.67 834 9380 (1989) 93 (1940) 1090 141 178 285 338 624 1020 1160 2390 3760
2021-02-15 20:30 5.66 827 9380 (1989) 93 (1940) 1090 141 178 285 338 624 1020 1160 2390 3760
2021-02-15 19:30 5.64 814 9380 (1989) 93 (1940) 1090 141 178 285 338 624 1020 1160 2390 3760
2021-02-15 18:30 5.61 794 9380 (1989) 93 (1940) 1090 141 178 285 338 624 1020 1160 2390 3760
2021-02-15 17:30 5.60 788 9380 (1989) 93 (1940) 1090 141 178 285 338 624 1020 1160 2390 3760
2021-02-15 16:30 5.57 768 9380 (1989) 93 (1940) 1090 141 178 285 338 624 1020 1160 2390 3760
2021-02-15 15:30 5.60 788 9380 (1989) 93 (1940) 1090 141 178 285 338 624 1020 1160 2390 3760
2021-02-15 14:30 5.60 788 9380 (1989) 93 (1940) 1090 141 178 285 338 624 1020 1160 2390 3760
2021-02-15 13:30 5.64 814 9380 (1989) 93 (1940) 1090 141 178 285 338 624 1020 1160 2390 3760
2021-02-15 12:30 5.62 801 9380 (1989) 93 (1940) 1090 141 178 285 338 624 1020 1160 2390 3760
2021-02-15 11:30 5.50 724 9380 (1989) 93 (1940) 1090 141 178 285 338 624 1020 1160 2390 3760
2021-02-15 10:30 5.51 730 9380 (1989) 93 (1940) 1090 141 178 285 338 624 1020 1160 2390 3760
2021-02-15 09:30 5.53 743 9380 (1989) 93 (1940) 1090 141 178 285 338 624 1020 1160 2390 3760
2021-02-15 08:30 5.54 749 9380 (1989) 93 (1940) 1090 141 178 285 338 624 1020 1160 2390 3760
2021-02-15 07:30 5.56 762 9380 (1989) 93 (1940) 1090 141 178 285 338 624 1020 1160 2390 3760
2021-02-15 06:30 5.58 775 9380 (1989) 93 (1940) 1090 141 178 285 338 624 1020 1160 2390 3760
2021-02-15 05:30 5.60 788 9380 (1989) 93 (1940) 1090 141 178 285 338 624 1020 1160 2390 3760
2021-02-15 04:30 5.61 794 9380 (1989) 93 (1940) 1090 141 178 285 338 624 1020 1160 2390 3760
2021-02-15 03:30 5.60 788 9380 (1989) 93 (1940) 1090 141 178 285 338 624 1020 1160 2390 3760
2021-02-15 02:30 5.62 801 9380 (1989) 93 (1940) 1090 141 178 285 338 624 1020 1160 2390 3760
2021-02-15 01:30 5.63 807 9380 (1989) 93 (1940) 1090 141 178 285 338 624 1020 1160 2390 3760
2021-02-15 00:30 5.65 821 9380 (1989) 93 (1940) 1090 141 178 285 338 624 1020 1160 2390 3760
2021-02-14 23:30 5.66 827 7980 (1950) 98 (1940) 985 145 172 283 329 638 1080 1160 2370 3160
2021-02-14 22:30 5.67 834 7980 (1950) 98 (1940) 985 145 172 283 329 638 1080 1160 2370 3160
2021-02-14 21:30 5.66 827 7980 (1950) 98 (1940) 985 145 172 283 329 638 1080 1160 2370 3160
2021-02-14 20:30 5.68 841 7980 (1950) 98 (1940) 985 145 172 283 329 638 1080 1160 2370 3160
2021-02-14 19:30 5.67 834 7980 (1950) 98 (1940) 985 145 172 283 329 638 1080 1160 2370 3160
2021-02-14 18:30 5.68 841 7980 (1950) 98 (1940) 985 145 172 283 329 638 1080 1160 2370 3160
2021-02-14 17:30 5.68 841 7980 (1950) 98 (1940) 985 145 172 283 329 638 1080 1160 2370 3160
2021-02-14 16:30 5.69 848 7980 (1950) 98 (1940) 985 145 172 283 329 638 1080 1160 2370 3160
2021-02-14 15:30 5.67 834 7980 (1950) 98 (1940) 985 145 172 283 329 638 1080 1160 2370 3160
2021-02-14 14:30 5.69 848 7980 (1950) 98 (1940) 985 145 172 283 329 638 1080 1160 2370 3160
2021-02-14 13:30 5.68 841 7980 (1950) 98 (1940) 985 145 172 283 329 638 1080 1160 2370 3160
2021-02-14 12:30 5.69 848 7980 (1950) 98 (1940) 985 145 172 283 329 638 1080 1160 2370 3160
2021-02-14 11:30 5.70 855 7980 (1950) 98 (1940) 985 145 172 283 329 638 1080 1160 2370 3160
2021-02-14 10:30 5.69 848 7980 (1950) 98 (1940) 985 145 172 283 329 638 1080 1160 2370 3160
2021-02-14 09:30 5.69 848 7980 (1950) 98 (1940) 985 145 172 283 329 638 1080 1160 2370 3160
2021-02-14 08:30 5.69 848 7980 (1950) 98 (1940) 985 145 172 283 329 638 1080 1160 2370 3160
2021-02-14 07:30 5.68 841 7980 (1950) 98 (1940) 985 145 172 283 329 638 1080 1160 2370 3160
2021-02-14 06:30 5.70 855 7980 (1950) 98 (1940) 985 145 172 283 329 638 1080 1160 2370 3160
2021-02-14 05:30 5.68 841 7980 (1950) 98 (1940) 985 145 172 283 329 638 1080 1160 2370 3160
2021-02-14 04:30 5.70 855 7980 (1950) 98 (1940) 985 145 172 283 329 638 1080 1160 2370 3160
2021-02-14 03:30 5.70 855 7980 (1950) 98 (1940) 985 145 172 283 329 638 1080 1160 2370 3160
2021-02-14 02:30 5.70 855 7980 (1950) 98 (1940) 985 145 172 283 329 638 1080 1160 2370 3160
2021-02-14 01:30 5.69 848 7980 (1950) 98 (1940) 985 145 172 283 329 638 1080 1160 2370 3160
2021-02-14 00:30 5.69 848 7980 (1950) 98 (1940) 985 145 172 283 329 638 1080 1160 2370 3160
2021-02-13 23:30 5.69 848 7680 (1950) 100 (1954) 872 146 172 280 300 622 988 1100 1490 3350
2021-02-13 22:30 5.71 861 7680 (1950) 100 (1954) 872 146 172 280 300 622 988 1100 1490 3350
2021-02-13 21:30 5.69 848 7680 (1950) 100 (1954) 872 146 172 280 300 622 988 1100 1490 3350
2021-02-13 20:30 5.70 855 7680 (1950) 100 (1954) 872 146 172 280 300 622 988 1100 1490 3350
2021-02-13 19:30 5.71 861 7680 (1950) 100 (1954) 872 146 172 280 300 622 988 1100 1490 3350
2021-02-13 18:30 5.71 861 7680 (1950) 100 (1954) 872 146 172 280 300 622 988 1100 1490 3350
2021-02-13 17:30 5.71 861 7680 (1950) 100 (1954) 872 146 172 280 300 622 988 1100 1490 3350
2021-02-13 16:30 5.72 868 7680 (1950) 100 (1954) 872 146 172 280 300 622 988 1100 1490 3350
2021-02-13 15:30 5.72 868 7680 (1950) 100 (1954) 872 146 172 280 300 622 988 1100 1490 3350
2021-02-13 14:30 5.73 875 7680 (1950) 100 (1954) 872 146 172 280 300 622 988 1100 1490 3350
2021-02-13 13:30 5.71 861 7680 (1950) 100 (1954) 872 146 172 280 300 622 988 1100 1490 3350
2021-02-13 12:30 5.73 875 7680 (1950) 100 (1954) 872 146 172 280 300 622 988 1100 1490 3350
2021-02-13 11:30 5.73 875 7680 (1950) 100 (1954) 872 146 172 280 300 622 988 1100 1490 3350
2021-02-13 10:30 5.72 868 7680 (1950) 100 (1954) 872 146 172 280 300 622 988 1100 1490 3350
2021-02-13 08:30 5.73 875 7680 (1950) 100 (1954) 872 146 172 280 300 622 988 1100 1490 3350
2021-02-13 07:30 5.72 868 7680 (1950) 100 (1954) 872 146 172 280 300 622 988 1100 1490 3350
2021-02-13 06:30 5.75 889 7680 (1950) 100 (1954) 872 146 172 280 300 622 988 1100 1490 3350
2021-02-13 05:30 5.75 889 7680 (1950) 100 (1954) 872 146 172 280 300 622 988 1100 1490 3350
2021-02-13 04:30 5.74 882 7680 (1950) 100 (1954) 872 146 172 280 300 622 988 1100 1490 3350
2021-02-13 03:30 5.75 889 7680 (1950) 100 (1954) 872 146 172 280 300 622 988 1100 1490 3350
2021-02-13 02:30 5.75 889 7680 (1950) 100 (1954) 872 146 172 280 300 622 988 1100 1490 3350
2021-02-13 01:30 5.74 882 7680 (1950) 100 (1954) 872 146 172 280 300 622 988 1100 1490 3350
2021-02-13 00:30 5.76 896 7680 (1950) 100 (1954) 872 146 172 280 300 622 988 1100 1490 3350
2021-02-12 23:30 5.75 889 5990 (2009) 100 (1954) 801 135 176 280 296 575 957 1110 1390 2040
2021-02-12 22:30 5.75 889 5990 (2009) 100 (1954) 801 135 176 280 296 575 957 1110 1390 2040
2021-02-12 21:30 5.76 896 5990 (2009) 100 (1954) 801 135 176 280 296 575 957 1110 1390 2040
2021-02-12 20:30 5.77 903 5990 (2009) 100 (1954) 801 135 176 280 296 575 957 1110 1390 2040
2021-02-12 19:30 5.76 896 5990 (2009) 100 (1954) 801 135 176 280 296 575 957 1110 1390 2040
2021-02-12 18:30 5.76 896 5990 (2009) 100 (1954) 801 135 176 280 296 575 957 1110 1390 2040
2021-02-12 17:30 5.75 889 5990 (2009) 100 (1954) 801 135 176 280 296 575 957 1110 1390 2040
2021-02-12 16:30 5.78 911 5990 (2009) 100 (1954) 801 135 176 280 296 575 957 1110 1390 2040
2021-02-12 15:30 5.77 903 5990 (2009) 100 (1954) 801 135 176 280 296 575 957 1110 1390 2040
2021-02-12 14:30 5.75 889 5990 (2009) 100 (1954) 801 135 176 280 296 575 957 1110 1390 2040
2021-02-12 13:30 5.76 896 5990 (2009) 100 (1954) 801 135 176 280 296 575 957 1110 1390 2040
2021-02-12 12:30 5.77 903 5990 (2009) 100 (1954) 801 135 176 280 296 575 957 1110 1390 2040
2021-02-12 11:30 5.77 903 5990 (2009) 100 (1954) 801 135 176 280 296 575 957 1110 1390 2040
2021-02-12 10:30 5.76 896 5990 (2009) 100 (1954) 801 135 176 280 296 575 957 1110 1390 2040
2021-02-12 09:30 5.78 911 5990 (2009) 100 (1954) 801 135 176 280 296 575 957 1110 1390 2040
2021-02-12 08:30 5.77 903 5990 (2009) 100 (1954) 801 135 176 280 296 575 957 1110 1390 2040
2021-02-12 07:30 5.75 889 5990 (2009) 100 (1954) 801 135 176 280 296 575 957 1110 1390 2040
2021-02-12 06:30 5.78 911 5990 (2009) 100 (1954) 801 135 176 280 296 575 957 1110 1390 2040
2021-02-12 05:30 5.78 911 5990 (2009) 100 (1954) 801 135 176 280 296 575 957 1110 1390 2040
2021-02-12 04:30 5.79 918 5990 (2009) 100 (1954) 801 135 176 280 296 575 957 1110 1390 2040
2021-02-12 03:30 5.78 911 5990 (2009) 100 (1954) 801 135 176 280 296 575 957 1110 1390 2040
2021-02-12 02:30 5.80 925 5990 (2009) 100 (1954) 801 135 176 280 296 575 957 1110 1390 2040
2021-02-12 01:30 5.80 925 5990 (2009) 100 (1954) 801 135 176 280 296 575 957 1110 1390 2040
2021-02-12 00:30 5.79 918 5990 (2009) 100 (1954) 801 135 176 280 296 575 957 1110 1390 2040
2021-02-11 23:30 5.78 911 17500 (1966) 96 (1954) 905 138 184 263 294 601 964 1020 1470 1950
2021-02-11 22:30 5.81 932 17500 (1966) 96 (1954) 905 138 184 263 294 601 964 1020 1470 1950
2021-02-11 21:30 5.80 925 17500 (1966) 96 (1954) 905 138 184 263 294 601 964 1020 1470 1950
2021-02-11 20:30 5.79 918 17500 (1966) 96 (1954) 905 138 184 263 294 601 964 1020 1470 1950
2021-02-11 19:30 5.80 925 17500 (1966) 96 (1954) 905 138 184 263 294 601 964 1020 1470 1950
2021-02-11 18:30 5.81 932 17500 (1966) 96 (1954) 905 138 184 263 294 601 964 1020 1470 1950
2021-02-11 17:30 5.81 932 17500 (1966) 96 (1954) 905 138 184 263 294 601 964 1020 1470 1950
2021-02-11 16:30 5.82 939 17500 (1966) 96 (1954) 905 138 184 263 294 601 964 1020 1470 1950
2021-02-11 15:30 5.80 925 17500 (1966) 96 (1954) 905 138 184 263 294 601 964 1020 1470 1950
2021-02-11 14:30 5.80 925 17500 (1966) 96 (1954) 905 138 184 263 294 601 964 1020 1470 1950
2021-02-11 13:30 5.81 932 17500 (1966) 96 (1954) 905 138 184 263 294 601 964 1020 1470 1950
2021-02-11 12:30 5.81 932 17500 (1966) 96 (1954) 905 138 184 263 294 601 964 1020 1470 1950
2021-02-11 11:30 5.80 925 17500 (1966) 96 (1954) 905 138 184 263 294 601 964 1020 1470 1950
2021-02-11 10:30 5.82 939 17500 (1966) 96 (1954) 905 138 184 263 294 601 964 1020 1470 1950
2021-02-11 09:30 5.82 939 17500 (1966) 96 (1954) 905 138 184 263 294 601 964 1020 1470 1950
2021-02-11 08:30 5.80 925 17500 (1966) 96 (1954) 905 138 184 263 294 601 964 1020 1470 1950
2021-02-11 07:30 5.82 939 17500 (1966) 96 (1954) 905 138 184 263 294 601 964 1020 1470 1950
2021-02-11 06:30 5.82 939 17500 (1966) 96 (1954) 905 138 184 263 294 601 964 1020 1470 1950
2021-02-11 05:30 5.83 947 17500 (1966) 96 (1954) 905 138 184 263 294 601 964 1020 1470 1950
2021-02-11 04:30 5.82 939 17500 (1966) 96 (1954) 905 138 184 263 294 601 964 1020 1470 1950
2021-02-11 03:30 5.82 939 17500 (1966) 96 (1954) 905 138 184 263 294 601 964 1020 1470 1950
2021-02-11 02:30 5.82 939 17500 (1966) 96 (1954) 905 138 184 263 294 601 964 1020 1470 1950
2021-02-11 01:30 5.85 962 17500 (1966) 96 (1954) 905 138 184 263 294 601 964 1020 1470 1950
2021-02-11 00:30 5.83 947 17500 (1966) 96 (1954) 905 138 184 263 294 601 964 1020 1470 1950
2021-02-10 23:30 5.83 947 10200 (1966) 106 (1954) 849 138 189 257 288 626 969 1060 1560 1970
2021-02-10 22:30 5.84 954 10200 (1966) 106 (1954) 849 138 189 257 288 626 969 1060 1560 1970
2021-02-10 21:30 5.84 954 10200 (1966) 106 (1954) 849 138 189 257 288 626 969 1060 1560 1970
2021-02-10 20:30 5.83 947 10200 (1966) 106 (1954) 849 138 189 257 288 626 969 1060 1560 1970
2021-02-10 19:30 5.83 947 10200 (1966) 106 (1954) 849 138 189 257 288 626 969 1060 1560 1970
2021-02-10 18:30 5.84 954 10200 (1966) 106 (1954) 849 138 189 257 288 626 969 1060 1560 1970
2021-02-10 17:30 5.83 947 10200 (1966) 106 (1954) 849 138 189 257 288 626 969 1060 1560 1970
2021-02-10 16:30 5.85 962 10200 (1966) 106 (1954) 849 138 189 257 288 626 969 1060 1560 1970
2021-02-10 15:30 5.84 954 10200 (1966) 106 (1954) 849 138 189 257 288 626 969 1060 1560 1970
2021-02-10 14:30 5.85 962 10200 (1966) 106 (1954) 849 138 189 257 288 626 969 1060 1560 1970
2021-02-10 13:30 5.86 969 10200 (1966) 106 (1954) 849 138 189 257 288 626 969 1060 1560 1970
2021-02-10 12:30 5.86 969 10200 (1966) 106 (1954) 849 138 189 257 288 626 969 1060 1560 1970
2021-02-10 11:30 5.86 969 10200 (1966) 106 (1954) 849 138 189 257 288 626 969 1060 1560 1970
2021-02-10 10:30 5.83 947 10200 (1966) 106 (1954) 849 138 189 257 288 626 969 1060 1560 1970
2021-02-10 09:30 5.85 962 10200 (1966) 106 (1954) 849 138 189 257 288 626 969 1060 1560 1970
2021-02-10 08:30 5.86 969 10200 (1966) 106 (1954) 849 138 189 257 288 626 969 1060 1560 1970
2021-02-10 07:30 5.85 962 10200 (1966) 106 (1954) 849 138 189 257 288 626 969 1060 1560 1970
2021-02-10 06:30 5.87 976 10200 (1966) 106 (1954) 849 138 189 257 288 626 969 1060 1560 1970
2021-02-10 05:30 5.88 984 10200 (1966) 106 (1954) 849 138 189 257 288 626 969 1060 1560 1970
2021-02-10 04:30 5.86 969 10200 (1966) 106 (1954) 849 138 189 257 288 626 969 1060 1560 1970
2021-02-10 03:30 5.88 984 10200 (1966) 106 (1954) 849 138 189 257 288 626 969 1060 1560 1970
2021-02-10 02:30 5.87 976 10200 (1966) 106 (1954) 849 138 189 257 288 626 969 1060 1560 1970
2021-02-10 01:30 5.86 969 10200 (1966) 106 (1954) 849 138 189 257 288 626 969 1060 1560 1970
2021-02-10 00:30 5.85 962 10200 (1966) 106 (1954) 849 138 189 257 288 626 969 1060 1560 1970
2021-02-09 23:30 5.87 976 8380 (1973) 107 (1940) 830 139 175 261 281 638 978 1140 1690 2100
2021-02-09 22:30 5.86 969 8380 (1973) 107 (1940) 830 139 175 261 281 638 978 1140 1690 2100
2021-02-09 21:30 5.86 969 8380 (1973) 107 (1940) 830 139 175 261 281 638 978 1140 1690 2100
2021-02-09 20:30 5.87 976 8380 (1973) 107 (1940) 830 139 175 261 281 638 978 1140 1690 2100
2021-02-09 19:30 5.88 984 8380 (1973) 107 (1940) 830 139 175 261 281 638 978 1140 1690 2100
2021-02-09 18:30 5.87 976 8380 (1973) 107 (1940) 830 139 175 261 281 638 978 1140 1690 2100
2021-02-09 17:30 5.86 969 8380 (1973) 107 (1940) 830 139 175 261 281 638 978 1140 1690 2100
2021-02-09 16:30 5.87 976 8380 (1973) 107 (1940) 830 139 175 261 281 638 978 1140 1690 2100
2021-02-09 15:30 5.86 969 8380 (1973) 107 (1940) 830 139 175 261 281 638 978 1140 1690 2100
2021-02-09 14:30 5.90 999 8380 (1973) 107 (1940) 830 139 175 261 281 638 978 1140 1690 2100
2021-02-09 13:30 5.88 984 8380 (1973) 107 (1940) 830 139 175 261 281 638 978 1140 1690 2100
2021-02-09 12:30 5.88 984 8380 (1973) 107 (1940) 830 139 175 261 281 638 978 1140 1690 2100
2021-02-09 11:30 5.91 1010 8380 (1973) 107 (1940) 830 139 175 261 281 638 978 1140 1690 2100
2021-02-09 10:30 5.90 999 8380 (1973) 107 (1940) 830 139 175 261 281 638 978 1140 1690 2100
2021-02-09 09:30 5.91 1010 8380 (1973) 107 (1940) 830 139 175 261 281 638 978 1140 1690 2100
2021-02-09 08:30 5.90 999 8380 (1973) 107 (1940) 830 139 175 261 281 638 978 1140 1690 2100
2021-02-09 07:30 5.90 999 8380 (1973) 107 (1940) 830 139 175 261 281 638 978 1140 1690 2100
2021-02-09 06:30 5.91 1010 8380 (1973) 107 (1940) 830 139 175 261 281 638 978 1140 1690 2100
2021-02-09 05:30 5.90 999 8380 (1973) 107 (1940) 830 139 175 261 281 638 978 1140 1690 2100
2021-02-09 04:30 5.92 1010 8380 (1973) 107 (1940) 830 139 175 261 281 638 978 1140 1690 2100
2021-02-09 03:30 5.93 1020 8380 (1973) 107 (1940) 830 139 175 261 281 638 978 1140 1690 2100
2021-02-09 02:30 5.90 999 8380 (1973) 107 (1940) 830 139 175 261 281 638 978 1140 1690 2100
2021-02-09 01:30 5.93 1020 8380 (1973) 107 (1940) 830 139 175 261 281 638 978 1140 1690 2100
2021-02-09 00:30 5.91 1010 8380 (1973) 107 (1940) 830 139 175 261 281 638 978 1140 1690 2100
2021-02-08 23:30 5.92 1010 7810 (1999) 107 (1940) 861 133 178 238 274 645 1020 1180 1850 2460
2021-02-08 22:30 5.94 1030 7810 (1999) 107 (1940) 861 133 178 238 274 645 1020 1180 1850 2460
2021-02-08 21:30 5.94 1030 7810 (1999) 107 (1940) 861 133 178 238 274 645 1020 1180 1850 2460
2021-02-08 20:30 5.92 1010 7810 (1999) 107 (1940) 861 133 178 238 274 645 1020 1180 1850 2460
2021-02-08 19:30 5.94 1030 7810 (1999) 107 (1940) 861 133 178 238 274 645 1020 1180 1850 2460
2021-02-08 18:30 5.94 1030 7810 (1999) 107 (1940) 861 133 178 238 274 645 1020 1180 1850 2460
2021-02-08 17:30 5.93 1020 7810 (1999) 107 (1940) 861 133 178 238 274 645 1020 1180 1850 2460
2021-02-08 16:30 5.94 1030 7810 (1999) 107 (1940) 861 133 178 238 274 645 1020 1180 1850 2460
2021-02-08 15:30 5.93 1020 7810 (1999) 107 (1940) 861 133 178 238 274 645 1020 1180 1850 2460
2021-02-08 14:30 5.92 1010 7810 (1999) 107 (1940) 861 133 178 238 274 645 1020 1180 1850 2460
2021-02-08 13:30 5.95 1040 7810 (1999) 107 (1940) 861 133 178 238 274 645 1020 1180 1850 2460
2021-02-08 12:30 5.94 1030 7810 (1999) 107 (1940) 861 133 178 238 274 645 1020 1180 1850 2460
2021-02-08 11:30 5.94 1030 7810 (1999) 107 (1940) 861 133 178 238 274 645 1020 1180 1850 2460
2021-02-08 10:30 5.93 1020 7810 (1999) 107 (1940) 861 133 178 238 274 645 1020 1180 1850 2460
2021-02-08 09:30 5.93 1020 7810 (1999) 107 (1940) 861 133 178 238 274 645 1020 1180 1850 2460
2021-02-08 08:30 5.95 1040 7810 (1999) 107 (1940) 861 133 178 238 274 645 1020 1180 1850 2460
2021-02-08 07:30 5.94 1030 7810 (1999) 107 (1940) 861 133 178 238 274 645 1020 1180 1850 2460
2021-02-08 06:30 5.97 1050 7810 (1999) 107 (1940) 861 133 178 238 274 645 1020 1180 1850 2460
2021-02-08 05:30 5.95 1040 7810 (1999) 107 (1940) 861 133 178 238 274 645 1020 1180 1850 2460
2021-02-08 04:30 5.94 1030 7810 (1999) 107 (1940) 861 133 178 238 274 645 1020 1180 1850 2460
2021-02-08 03:30 5.94 1030 7810 (1999) 107 (1940) 861 133 178 238 274 645 1020 1180 1850 2460
2021-02-08 02:30 5.93 1020 7810 (1999) 107 (1940) 861 133 178 238 274 645 1020 1180 1850 2460
2021-02-08 01:30 5.95 1040 7810 (1999) 107 (1940) 861 133 178 238 274 645 1020 1180 1850 2460
2021-02-08 00:30 5.96 1050 7810 (1999) 107 (1940) 861 133 178 238 274 645 1020 1180 1850 2460
2021-02-07 23:30 5.95 1040 5430 (1999) 107 (1940) 834 138 180 238 270 630 1060 1270 1690 2380
2021-02-07 22:30 5.95 1040 5430 (1999) 107 (1940) 834 138 180 238 270 630 1060 1270 1690 2380
2021-02-07 21:30 5.98 1060 5430 (1999) 107 (1940) 834 138 180 238 270 630 1060 1270 1690 2380
2021-02-07 20:30 5.96 1050 5430 (1999) 107 (1940) 834 138 180 238 270 630 1060 1270 1690 2380
2021-02-07 19:30 5.96 1050 5430 (1999) 107 (1940) 834 138 180 238 270 630 1060 1270 1690 2380
2021-02-07 18:30 5.97 1050 5430 (1999) 107 (1940) 834 138 180 238 270 630 1060 1270 1690 2380
2021-02-07 17:30 5.97 1050 5430 (1999) 107 (1940) 834 138 180 238 270 630 1060 1270 1690 2380
2021-02-07 16:30 5.96 1050 5430 (1999) 107 (1940) 834 138 180 238 270 630 1060 1270 1690 2380
2021-02-07 15:30 5.96 1050 5430 (1999) 107 (1940) 834 138 180 238 270 630 1060 1270 1690 2380
2021-02-07 14:30 5.97 1050 5430 (1999) 107 (1940) 834 138 180 238 270 630 1060 1270 1690 2380
2021-02-07 13:30 5.97 1050 5430 (1999) 107 (1940) 834 138 180 238 270 630 1060 1270 1690 2380
2021-02-07 12:30 5.98 1060 5430 (1999) 107 (1940) 834 138 180 238 270 630 1060 1270 1690 2380
2021-02-07 10:30 5.98 1060 5430 (1999) 107 (1940) 834 138 180 238 270 630 1060 1270 1690 2380
2021-02-07 09:30 5.99 1070 5430 (1999) 107 (1940) 834 138 180 238 270 630 1060 1270 1690 2380
2021-02-07 08:30 6.00 1080 5430 (1999) 107 (1940) 834 138 180 238 270 630 1060 1270 1690 2380
2021-02-07 07:30 5.99 1070 5430 (1999) 107 (1940) 834 138 180 238 270 630 1060 1270 1690 2380
2021-02-07 06:30 6.00 1080 5430 (1999) 107 (1940) 834 138 180 238 270 630 1060 1270 1690 2380
2021-02-07 05:30 6.00 1080 5430 (1999) 107 (1940) 834 138 180 238 270 630 1060 1270 1690 2380
2021-02-07 04:30 6.02 1090 5430 (1999) 107 (1940) 834 138 180 238 270 630 1060 1270 1690 2380
2021-02-07 03:30 6.02 1090 5430 (1999) 107 (1940) 834 138 180 238 270 630 1060 1270 1690 2380
2021-02-07 02:30 6.01 1080 5430 (1999) 107 (1940) 834 138 180 238 270 630 1060 1270 1690 2380
2021-02-07 01:30 6.02 1090 5430 (1999) 107 (1940) 834 138 180 238 270 630 1060 1270 1690 2380
2021-02-07 00:30 6.01 1080 5430 (1999) 107 (1940) 834 138 180 238 270 630 1060 1270 1690 2380
2021-02-06 23:30 6.02 1090 3840 (2020) 107 (1940) 792 132 181 245 274 590 1020 1190 1790 2500
2021-02-06 22:30 6.01 1080 3840 (2020) 107 (1940) 792 132 181 245 274 590 1020 1190 1790 2500
2021-02-06 21:30 6.02 1090 3840 (2020) 107 (1940) 792 132 181 245 274 590 1020 1190 1790 2500
2021-02-06 20:30 6.02 1090 3840 (2020) 107 (1940) 792 132 181 245 274 590 1020 1190 1790 2500
2021-02-06 19:30 6.03 1100 3840 (2020) 107 (1940) 792 132 181 245 274 590 1020 1190 1790 2500
2021-02-06 18:30 6.02 1090 3840 (2020) 107 (1940) 792 132 181 245 274 590 1020 1190 1790 2500
2021-02-06 17:30 6.04 1110 3840 (2020) 107 (1940) 792 132 181 245 274 590 1020 1190 1790 2500
2021-02-06 16:30 6.03 1100 3840 (2020) 107 (1940) 792 132 181 245 274 590 1020 1190 1790 2500
2021-02-06 15:30 6.05 1120 3840 (2020) 107 (1940) 792 132 181 245 274 590 1020 1190 1790 2500
2021-02-06 14:30 6.05 1120 3840 (2020) 107 (1940) 792 132 181 245 274 590 1020 1190 1790 2500
2021-02-06 13:30 6.04 1110 3840 (2020) 107 (1940) 792 132 181 245 274 590 1020 1190 1790 2500
2021-02-06 12:30 6.03 1100 3840 (2020) 107 (1940) 792 132 181 245 274 590 1020 1190 1790 2500
2021-02-06 11:30 6.04 1110 3840 (2020) 107 (1940) 792 132 181 245 274 590 1020 1190 1790 2500
2021-02-06 10:30 6.05 1120 3840 (2020) 107 (1940) 792 132 181 245 274 590 1020 1190 1790 2500
2021-02-06 09:30 6.06 1130 3840 (2020) 107 (1940) 792 132 181 245 274 590 1020 1190 1790 2500
2021-02-06 08:30 6.04 1110 3840 (2020) 107 (1940) 792 132 181 245 274 590 1020 1190 1790 2500
2021-02-06 07:30 6.06 1130 3840 (2020) 107 (1940) 792 132 181 245 274 590 1020 1190 1790 2500
2021-02-06 06:30 6.07 1130 3840 (2020) 107 (1940) 792 132 181 245 274 590 1020 1190 1790 2500
2021-02-06 05:30 6.06 1130 3840 (2020) 107 (1940) 792 132 181 245 274 590 1020 1190 1790 2500
2021-02-06 04:30 6.07 1130 3840 (2020) 107 (1940) 792 132 181 245 274 590 1020 1190 1790 2500
2021-02-06 03:30 6.07 1130 3840 (2020) 107 (1940) 792 132 181 245 274 590 1020 1190 1790 2500
2021-02-06 02:30 6.08 1140 3840 (2020) 107 (1940) 792 132 181 245 274 590 1020 1190 1790 2500
2021-02-06 01:30 6.07 1130 3840 (2020) 107 (1940) 792 132 181 245 274 590 1020 1190 1790 2500
2021-02-06 00:30 6.08 1140 3840 (2020) 107 (1940) 792 132 181 245 274 590 1020 1190 1790 2500
2021-02-05 23:30 6.08 1140 4750 (2020) 107 (1940) 834 135 187 240 271 510 987 1280 2110 2500
2021-02-05 22:30 6.07 1130 4750 (2020) 107 (1940) 834 135 187 240 271 510 987 1280 2110 2500
2021-02-05 21:30 6.08 1140 4750 (2020) 107 (1940) 834 135 187 240 271 510 987 1280 2110 2500
2021-02-05 20:30 6.08 1140 4750 (2020) 107 (1940) 834 135 187 240 271 510 987 1280 2110 2500
2021-02-05 19:30 6.07 1130 4750 (2020) 107 (1940) 834 135 187 240 271 510 987 1280 2110 2500
2021-02-05 18:30 6.07 1130 4750 (2020) 107 (1940) 834 135 187 240 271 510 987 1280 2110 2500
2021-02-05 17:30 6.09 1150 4750 (2020) 107 (1940) 834 135 187 240 271 510 987 1280 2110 2500
2021-02-05 16:30 6.08 1140 4750 (2020) 107 (1940) 834 135 187 240 271 510 987 1280 2110 2500
2021-02-05 15:30 6.09 1150 4750 (2020) 107 (1940) 834 135 187 240 271 510 987 1280 2110 2500
2021-02-05 14:30 6.11 1170 4750 (2020) 107 (1940) 834 135 187 240 271 510 987 1280 2110 2500
2021-02-05 13:30 6.08 1140 4750 (2020) 107 (1940) 834 135 187 240 271 510 987 1280 2110 2500
2021-02-05 12:30 6.09 1150 4750 (2020) 107 (1940) 834 135 187 240 271 510 987 1280 2110 2500
2021-02-05 11:30 6.11 1170 4750 (2020) 107 (1940) 834 135 187 240 271 510 987 1280 2110 2500
2021-02-05 10:30 6.11 1170 4750 (2020) 107 (1940) 834 135 187 240 271 510 987 1280 2110 2500
2021-02-05 09:30 6.13 1180 4750 (2020) 107 (1940) 834 135 187 240 271 510 987 1280 2110 2500
2021-02-05 08:30 6.12 1180 4750 (2020) 107 (1940) 834 135 187 240 271 510 987 1280 2110 2500
2021-02-05 07:30 6.12 1180 4750 (2020) 107 (1940) 834 135 187 240 271 510 987 1280 2110 2500
2021-02-05 06:30 6.12 1180 4750 (2020) 107 (1940) 834 135 187 240 271 510 987 1280 2110 2500
2021-02-05 05:30 6.13 1180 4750 (2020) 107 (1940) 834 135 187 240 271 510 987 1280 2110 2500
2021-02-05 04:30 6.15 1200 4750 (2020) 107 (1940) 834 135 187 240 271 510 987 1280 2110 2500
2021-02-05 03:30 6.13 1180 4750 (2020) 107 (1940) 834 135 187 240 271 510 987 1280 2110 2500
2021-02-05 02:30 6.11 1170 4750 (2020) 107 (1940) 834 135 187 240 271 510 987 1280 2110 2500
2021-02-05 01:30 6.15 1200 4750 (2020) 107 (1940) 834 135 187 240 271 510 987 1280 2110 2500
2021-02-05 00:30 6.13 1180 4750 (2020) 107 (1940) 834 135 187 240 271 510 987 1280 2110 2500
2021-02-04 23:30 6.13 1180 5080 (1968) 102 (1964) 847 140 188 233 267 526 1040 1330 2070 2850
2021-02-04 22:30 6.14 1190 5080 (1968) 102 (1964) 847 140 188 233 267 526 1040 1330 2070 2850
2021-02-04 21:30 6.13 1180 5080 (1968) 102 (1964) 847 140 188 233 267 526 1040 1330 2070 2850
2021-02-04 20:30 6.16 1210 5080 (1968) 102 (1964) 847 140 188 233 267 526 1040 1330 2070 2850
2021-02-04 19:30 6.16 1210 5080 (1968) 102 (1964) 847 140 188 233 267 526 1040 1330 2070 2850
2021-02-04 18:30 6.14 1190 5080 (1968) 102 (1964) 847 140 188 233 267 526 1040 1330 2070 2850
2021-02-04 17:30 6.16 1210 5080 (1968) 102 (1964) 847 140 188 233 267 526 1040 1330 2070 2850
2021-02-04 16:30 6.16 1210 5080 (1968) 102 (1964) 847 140 188 233 267 526 1040 1330 2070 2850
2021-02-04 15:30 6.15 1200 5080 (1968) 102 (1964) 847 140 188 233 267 526 1040 1330 2070 2850
2021-02-04 14:30 6.18 1230 5080 (1968) 102 (1964) 847 140 188 233 267 526 1040 1330 2070 2850
2021-02-04 13:30 6.17 1220 5080 (1968) 102 (1964) 847 140 188 233 267 526 1040 1330 2070 2850
2021-02-04 12:30 6.18 1230 5080 (1968) 102 (1964) 847 140 188 233 267 526 1040 1330 2070 2850
2021-02-04 11:30 6.20 1240 5080 (1968) 102 (1964) 847 140 188 233 267 526 1040 1330 2070 2850
2021-02-04 10:30 6.20 1240 5080 (1968) 102 (1964) 847 140 188 233 267 526 1040 1330 2070 2850
2021-02-04 09:30 6.19 1240 5080 (1968) 102 (1964) 847 140 188 233 267 526 1040 1330 2070 2850
2021-02-04 08:30 6.20 1240 5080 (1968) 102 (1964) 847 140 188 233 267 526 1040 1330 2070 2850
2021-02-04 07:30 6.20 1240 5080 (1968) 102 (1964) 847 140 188 233 267 526 1040 1330 2070 2850
2021-02-04 06:30 6.20 1240 5080 (1968) 102 (1964) 847 140 188 233 267 526 1040 1330 2070 2850
2021-02-04 05:30 6.20 1240 5080 (1968) 102 (1964) 847 140 188 233 267 526 1040 1330 2070 2850
2021-02-04 04:30 6.21 1250 5080 (1968) 102 (1964) 847 140 188 233 267 526 1040 1330 2070 2850
2021-02-04 03:30 6.21 1250 5080 (1968) 102 (1964) 847 140 188 233 267 526 1040 1330 2070 2850
2021-02-04 02:30 6.23 1270 5080 (1968) 102 (1964) 847 140 188 233 267 526 1040 1330 2070 2850
2021-02-04 01:30 6.22 1260 5080 (1968) 102 (1964) 847 140 188 233 267 526 1040 1330 2070 2850
2021-02-04 00:30 6.20 1240 5080 (1968) 102 (1964) 847 140 188 233 267 526 1040 1330 2070 2850
2021-02-03 23:30 6.23 1270 13400 (1968) 100 (1964) 1020 128 185 233 268 514 1070 1300 2430 3590
2021-02-03 22:30 6.23 1270 13400 (1968) 100 (1964) 1020 128 185 233 268 514 1070 1300 2430 3590
2021-02-03 21:30 6.22 1260 13400 (1968) 100 (1964) 1020 128 185 233 268 514 1070 1300 2430 3590
2021-02-03 20:30 6.23 1270 13400 (1968) 100 (1964) 1020 128 185 233 268 514 1070 1300 2430 3590
2021-02-03 19:30 6.23 1270 13400 (1968) 100 (1964) 1020 128 185 233 268 514 1070 1300 2430 3590
2021-02-03 18:30 6.24 1280 13400 (1968) 100 (1964) 1020 128 185 233 268 514 1070 1300 2430 3590
2021-02-03 17:30 6.22 1260 13400 (1968) 100 (1964) 1020 128 185 233 268 514 1070 1300 2430 3590
2021-02-03 16:30 6.22 1260 13400 (1968) 100 (1964) 1020 128 185 233 268 514 1070 1300 2430 3590
2021-02-03 15:30 6.24 1280 13400 (1968) 100 (1964) 1020 128 185 233 268 514 1070 1300 2430 3590
2021-02-03 14:30 6.24 1280 13400 (1968) 100 (1964) 1020 128 185 233 268 514 1070 1300 2430 3590
2021-02-03 13:30 6.25 1290 13400 (1968) 100 (1964) 1020 128 185 233 268 514 1070 1300 2430 3590
2021-02-03 12:30 6.26 1300 13400 (1968) 100 (1964) 1020 128 185 233 268 514 1070 1300 2430 3590
2021-02-03 11:30 6.25 1290 13400 (1968) 100 (1964) 1020 128 185 233 268 514 1070 1300 2430 3590
2021-02-03 10:30 6.27 1310 13400 (1968) 100 (1964) 1020 128 185 233 268 514 1070 1300 2430 3590
2021-02-03 09:30 6.29 1320 13400 (1968) 100 (1964) 1020 128 185 233 268 514 1070 1300 2430 3590
2021-02-03 08:30 6.29 1320 13400 (1968) 100 (1964) 1020 128 185 233 268 514 1070 1300 2430 3590
2021-02-03 07:30 6.31 1340 13400 (1968) 100 (1964) 1020 128 185 233 268 514 1070 1300 2430 3590
2021-02-03 06:30 6.29 1320 13400 (1968) 100 (1964) 1020 128 185 233 268 514 1070 1300 2430 3590
2021-02-03 05:30 6.30 1330 13400 (1968) 100 (1964) 1020 128 185 233 268 514 1070 1300 2430 3590
2021-02-03 04:30 6.32 1350 13400 (1968) 100 (1964) 1020 128 185 233 268 514 1070 1300 2430 3590
2021-02-03 03:30 6.30 1330 13400 (1968) 100 (1964) 1020 128 185 233 268 514 1070 1300 2430 3590
2021-02-03 02:30 6.31 1340 13400 (1968) 100 (1964) 1020 128 185 233 268 514 1070 1300 2430 3590
2021-02-03 01:30 6.32 1350 13400 (1968) 100 (1964) 1020 128 185 233 268 514 1070 1300 2430 3590
2021-02-03 00:30 6.33 1360 13400 (1968) 100 (1964) 1020 128 185 233 268 514 1070 1300 2430 3590
2021-02-02 23:30 6.32 1350 12600 (1968) 98 (1964) 1040 128 185 242 263 563 1140 1220 1960 4080
2021-02-02 22:30 6.32 1350 12600 (1968) 98 (1964) 1040 128 185 242 263 563 1140 1220 1960 4080
2021-02-02 21:30 6.36 1390 12600 (1968) 98 (1964) 1040 128 185 242 263 563 1140 1220 1960 4080
2021-02-02 20:30 6.34 1370 12600 (1968) 98 (1964) 1040 128 185 242 263 563 1140 1220 1960 4080
2021-02-02 19:30 6.35 1380 12600 (1968) 98 (1964) 1040 128 185 242 263 563 1140 1220 1960 4080
2021-02-02 18:30 6.34 1370 12600 (1968) 98 (1964) 1040 128 185 242 263 563 1140 1220 1960 4080
2021-02-02 17:30 6.35 1380 12600 (1968) 98 (1964) 1040 128 185 242 263 563 1140 1220 1960 4080
2021-02-02 16:30 6.36 1390 12600 (1968) 98 (1964) 1040 128 185 242 263 563 1140 1220 1960 4080
2021-02-02 15:30 6.35 1380 12600 (1968) 98 (1964) 1040 128 185 242 263 563 1140 1220 1960 4080
2021-02-02 14:30 6.35 1380 12600 (1968) 98 (1964) 1040 128 185 242 263 563 1140 1220 1960 4080
2021-02-02 13:30 6.40 1430 12600 (1968) 98 (1964) 1040 128 185 242 263 563 1140 1220 1960 4080
2021-02-02 12:30 6.37 1400 12600 (1968) 98 (1964) 1040 128 185 242 263 563 1140 1220 1960 4080
2021-02-02 11:30 6.41 1440 12600 (1968) 98 (1964) 1040 128 185 242 263 563 1140 1220 1960 4080
2021-02-02 10:30 6.39 1420 12600 (1968) 98 (1964) 1040 128 185 242 263 563 1140 1220 1960 4080
2021-02-02 09:30 6.42 1450 12600 (1968) 98 (1964) 1040 128 185 242 263 563 1140 1220 1960 4080
2021-02-02 08:30 6.43 1460 12600 (1968) 98 (1964) 1040 128 185 242 263 563 1140 1220 1960 4080
2021-02-02 07:30 6.42 1450 12600 (1968) 98 (1964) 1040 128 185 242 263 563 1140 1220 1960 4080
2021-02-02 06:30 6.44 1470 12600 (1968) 98 (1964) 1040 128 185 242 263 563 1140 1220 1960 4080
2021-02-02 05:30 6.42 1450 12600 (1968) 98 (1964) 1040 128 185 242 263 563 1140 1220 1960 4080
2021-02-02 04:30 6.45 1480 12600 (1968) 98 (1964) 1040 128 185 242 263 563 1140 1220 1960 4080
2021-02-02 03:30 6.45 1480 12600 (1968) 98 (1964) 1040 128 185 242 263 563 1140 1220 1960 4080
2021-02-02 02:30 6.47 1500 12600 (1968) 98 (1964) 1040 128 185 242 263 563 1140 1220 1960 4080
2021-02-02 01:30 6.49 1520 12600 (1968) 98 (1964) 1040 128 185 242 263 563 1140 1220 1960 4080
2021-02-02 00:30 6.47 1500 12600 (1968) 98 (1964) 1040 128 185 242 263 563 1140 1220 1960 4080
2021-02-01 23:30 6.47 1500 15600 (1982) 94 (1964) 1090 131 186 246 272 543 1080 1180 1790 4440
2021-02-01 22:30 6.48 1510 15600 (1982) 94 (1964) 1090 131 186 246 272 543 1080 1180 1790 4440
2021-02-01 21:30 6.48 1510 15600 (1982) 94 (1964) 1090 131 186 246 272 543 1080 1180 1790 4440
2021-02-01 20:30 6.48 1510 15600 (1982) 94 (1964) 1090 131 186 246 272 543 1080 1180 1790 4440
2021-02-01 19:30 6.49 1520 15600 (1982) 94 (1964) 1090 131 186 246 272 543 1080 1180 1790 4440
2021-02-01 18:30 6.50 1530 15600 (1982) 94 (1964) 1090 131 186 246 272 543 1080 1180 1790 4440
2021-02-01 17:30 6.51 1540 15600 (1982) 94 (1964) 1090 131 186 246 272 543 1080 1180 1790 4440
2021-02-01 16:30 6.51 1540 15600 (1982) 94 (1964) 1090 131 186 246 272 543 1080 1180 1790 4440
2021-02-01 15:30 6.53 1560 15600 (1982) 94 (1964) 1090 131 186 246 272 543 1080 1180 1790 4440
2021-02-01 14:30 6.55 1580 15600 (1982) 94 (1964) 1090 131 186 246 272 543 1080 1180 1790 4440
2021-02-01 13:30 6.55 1580 15600 (1982) 94 (1964) 1090 131 186 246 272 543 1080 1180 1790 4440
2021-02-01 12:30 6.55 1580 15600 (1982) 94 (1964) 1090 131 186 246 272 543 1080 1180 1790 4440
2021-02-01 11:30 6.56 1590 15600 (1982) 94 (1964) 1090 131 186 246 272 543 1080 1180 1790 4440
2021-02-01 10:30 6.58 1610 15600 (1982) 94 (1964) 1090 131 186 246 272 543 1080 1180 1790 4440
2021-02-01 09:30 6.57 1600 15600 (1982) 94 (1964) 1090 131 186 246 272 543 1080 1180 1790 4440
2021-02-01 08:30 6.60 1630 15600 (1982) 94 (1964) 1090 131 186 246 272 543 1080 1180 1790 4440
2021-02-01 07:30 6.55 1580 15600 (1982) 94 (1964) 1090 131 186 246 272 543 1080 1180 1790 4440
2021-02-01 06:30 6.58 1610 15600 (1982) 94 (1964) 1090 131 186 246 272 543 1080 1180 1790 4440
2021-02-01 05:30 6.57 1600 15600 (1982) 94 (1964) 1090 131 186 246 272 543 1080 1180 1790 4440
2021-02-01 04:30 6.58 1610 15600 (1982) 94 (1964) 1090 131 186 246 272 543 1080 1180 1790 4440
2021-02-01 03:30 6.55 1580 15600 (1982) 94 (1964) 1090 131 186 246 272 543 1080 1180 1790 4440
2021-02-01 02:30 6.61 1640 15600 (1982) 94 (1964) 1090 131 186 246 272 543 1080 1180 1790 4440
2021-02-01 01:30 6.56 1590 15600 (1982) 94 (1964) 1090 131 186 246 272 543 1080 1180 1790 4440
2021-02-01 00:30 6.55 1580 15600 (1982) 94 (1964) 1090 131 186 246 272 543 1080 1180 1790 4440
2021-01-31 23:30 6.56 1590 24000 (1969) 91 (1956) 1210 132 191 252 272 494 998 1100 1670 6020
2021-01-31 22:30 6.55 1580 24000 (1969) 91 (1956) 1210 132 191 252 272 494 998 1100 1670 6020
2021-01-31 21:30 6.55 1580 24000 (1969) 91 (1956) 1210 132 191 252 272 494 998 1100 1670 6020
2021-01-31 20:30 6.53 1560 24000 (1969) 91 (1956) 1210 132 191 252 272 494 998 1100 1670 6020
2021-01-31 19:30 6.52 1550 24000 (1969) 91 (1956) 1210 132 191 252 272 494 998 1100 1670 6020
2021-01-31 18:30 6.54 1570 24000 (1969) 91 (1956) 1210 132 191 252 272 494 998 1100 1670 6020
2021-01-31 17:30 6.52 1550 24000 (1969) 91 (1956) 1210 132 191 252 272 494 998 1100 1670 6020
2021-01-31 16:30 6.55 1580 24000 (1969) 91 (1956) 1210 132 191 252 272 494 998 1100 1670 6020
2021-01-31 15:30 6.53 1560 24000 (1969) 91 (1956) 1210 132 191 252 272 494 998 1100 1670 6020
2021-01-31 14:30 6.56 1590 24000 (1969) 91 (1956) 1210 132 191 252 272 494 998 1100 1670 6020
2021-01-31 13:30 6.55 1580 24000 (1969) 91 (1956) 1210 132 191 252 272 494 998 1100 1670 6020
2021-01-31 12:30 6.57 1600 24000 (1969) 91 (1956) 1210 132 191 252 272 494 998 1100 1670 6020
2021-01-31 11:30 6.58 1610 24000 (1969) 91 (1956) 1210 132 191 252 272 494 998 1100 1670 6020
2021-01-31 10:30 6.59 1620 24000 (1969) 91 (1956) 1210 132 191 252 272 494 998 1100 1670 6020
2021-01-31 09:30 6.58 1610 24000 (1969) 91 (1956) 1210 132 191 252 272 494 998 1100 1670 6020
2021-01-31 08:30 6.57 1600 24000 (1969) 91 (1956) 1210 132 191 252 272 494 998 1100 1670 6020
2021-01-31 07:30 6.58 1610 24000 (1969) 91 (1956) 1210 132 191 252 272 494 998 1100 1670 6020
2021-01-31 06:30 6.59 1620 24000 (1969) 91 (1956) 1210 132 191 252 272 494 998 1100 1670 6020
2021-01-31 05:30 6.62 1650 24000 (1969) 91 (1956) 1210 132 191 252 272 494 998 1100 1670 6020
2021-01-31 04:30 6.61 1640 24000 (1969) 91 (1956) 1210 132 191 252 272 494 998 1100 1670 6020
2021-01-31 03:30 6.63 1660 24000 (1969) 91 (1956) 1210 132 191 252 272 494 998 1100 1670 6020
2021-01-31 02:30 6.61 1640 24000 (1969) 91 (1956) 1210 132 191 252 272 494 998 1100 1670 6020
2021-01-31 01:30 6.62 1650 24000 (1969) 91 (1956) 1210 132 191 252 272 494 998 1100 1670 6020
2021-01-31 00:30 6.64 1670 24000 (1969) 91 (1956) 1210 132 191 252 272 494 998 1100 1670 6020
2021-01-30 23:30 6.66 1690 15700 (1969) 88 (1964) 949 136 190 239 255 456 1050 1150 1630 3370
2021-01-30 22:30 6.66 1690 15700 (1969) 88 (1964) 949 136 190 239 255 456 1050 1150 1630 3370
2021-01-30 21:30 6.66 1690 15700 (1969) 88 (1964) 949 136 190 239 255 456 1050 1150 1630 3370
2021-01-30 20:30 6.62 1650 15700 (1969) 88 (1964) 949 136 190 239 255 456 1050 1150 1630 3370
2021-01-30 19:30 6.65 1680 15700 (1969) 88 (1964) 949 136 190 239 255 456 1050 1150 1630 3370
2021-01-30 18:30 6.65 1680 15700 (1969) 88 (1964) 949 136 190 239 255 456 1050 1150 1630 3370
2021-01-30 17:30 6.69 1720 15700 (1969) 88 (1964) 949 136 190 239 255 456 1050 1150 1630 3370
2021-01-30 16:30 6.66 1690 15700 (1969) 88 (1964) 949 136 190 239 255 456 1050 1150 1630 3370
2021-01-30 15:30 6.69 1720 15700 (1969) 88 (1964) 949 136 190 239 255 456 1050 1150 1630 3370
2021-01-30 14:30 6.70 1730 15700 (1969) 88 (1964) 949 136 190 239 255 456 1050 1150 1630 3370
2021-01-30 13:30 6.62 1650 15700 (1969) 88 (1964) 949 136 190 239 255 456 1050 1150 1630 3370
2021-01-30 12:30 6.68 1710 15700 (1969) 88 (1964) 949 136 190 239 255 456 1050 1150 1630 3370
2021-01-30 11:30 6.74 1780 15700 (1969) 88 (1964) 949 136 190 239 255 456 1050 1150 1630 3370
2021-01-30 10:30 6.75 1790 15700 (1969) 88 (1964) 949 136 190 239 255 456 1050 1150 1630 3370
2021-01-30 09:30 6.70 1730 15700 (1969) 88 (1964) 949 136 190 239 255 456 1050 1150 1630 3370
2021-01-30 08:30 6.72 1760 15700 (1969) 88 (1964) 949 136 190 239 255 456 1050 1150 1630 3370
2021-01-30 07:30 6.73 1770 15700 (1969) 88 (1964) 949 136 190 239 255 456 1050 1150 1630 3370
2021-01-30 06:30 6.72 1760 15700 (1969) 88 (1964) 949 136 190 239 255 456 1050 1150 1630 3370
2021-01-30 05:30 6.77 1810 15700 (1969) 88 (1964) 949 136 190 239 255 456 1050 1150 1630 3370
2021-01-30 04:30 6.76 1800 15700 (1969) 88 (1964) 949 136 190 239 255 456 1050 1150 1630 3370
2021-01-30 03:30 6.74 1780 15700 (1969) 88 (1964) 949 136 190 239 255 456 1050 1150 1630 3370
2021-01-30 02:30 6.76 1800 15700 (1969) 88 (1964) 949 136 190 239 255 456 1050 1150 1630 3370
2021-01-30 01:30 6.76 1800 15700 (1969) 88 (1964) 949 136 190 239 255 456 1050 1150 1630 3370
2021-01-30 00:30 6.79 1830 15700 (1969) 88 (1964) 949 136 190 239 255 456 1050 1150 1630 3370
2021-01-29 23:30 6.79 1830 6180 (1949) 88 (1964) 758 134 195 238 248 477 1070 1190 1600 2090
2021-01-29 22:30 6.76 1800 6180 (1949) 88 (1964) 758 134 195 238 248 477 1070 1190 1600 2090
2021-01-29 21:30 6.80 1850 6180 (1949) 88 (1964) 758 134 195 238 248 477 1070 1190 1600 2090
2021-01-29 20:30 6.77 1810 6180 (1949) 88 (1964) 758 134 195 238 248 477 1070 1190 1600 2090
2021-01-29 19:30 6.81 1860 6180 (1949) 88 (1964) 758 134 195 238 248 477 1070 1190 1600 2090
2021-01-29 18:30 6.80 1850 6180 (1949) 88 (1964) 758 134 195 238 248 477 1070 1190 1600 2090
2021-01-29 17:30 6.82 1870 6180 (1949) 88 (1964) 758 134 195 238 248 477 1070 1190 1600 2090
2021-01-29 16:30 6.82 1870 6180 (1949) 88 (1964) 758 134 195 238 248 477 1070 1190 1600 2090
2021-01-29 15:30 6.84 1890 6180 (1949) 88 (1964) 758 134 195 238 248 477 1070 1190 1600 2090
2021-01-29 14:30 6.83 1880 6180 (1949) 88 (1964) 758 134 195 238 248 477 1070 1190 1600 2090
2021-01-29 13:30 6.83 1880 6180 (1949) 88 (1964) 758 134 195 238 248 477 1070 1190 1600 2090
2021-01-29 12:30 6.87 1930 6180 (1949) 88 (1964) 758 134 195 238 248 477 1070 1190 1600 2090
2021-01-29 11:30 6.93 2000 6180 (1949) 88 (1964) 758 134 195 238 248 477 1070 1190 1600 2090
2021-01-29 10:30 6.93 2000 6180 (1949) 88 (1964) 758 134 195 238 248 477 1070 1190 1600 2090
2021-01-29 09:30 6.94 2010 6180 (1949) 88 (1964) 758 134 195 238 248 477 1070 1190 1600 2090
2021-01-29 08:30 7.05 2150 6180 (1949) 88 (1964) 758 134 195 238 248 477 1070 1190 1600 2090
2021-01-29 07:30 7.06 2160 6180 (1949) 88 (1964) 758 134 195 238 248 477 1070 1190 1600 2090
2021-01-29 06:30 7.06 2160 6180 (1949) 88 (1964) 758 134 195 238 248 477 1070 1190 1600 2090
2021-01-29 05:30 7.13 2270 6180 (1949) 88 (1964) 758 134 195 238 248 477 1070 1190 1600 2090
2021-01-29 04:30 7.11 2240 6180 (1949) 88 (1964) 758 134 195 238 248 477 1070 1190 1600 2090
2021-01-29 03:30 7.14 2280 6180 (1949) 88 (1964) 758 134 195 238 248 477 1070 1190 1600 2090
2021-01-29 02:30 7.12 2250 6180 (1949) 88 (1964) 758 134 195 238 248 477 1070 1190 1600 2090
2021-01-29 01:30 7.15 2290 6180 (1949) 88 (1964) 758 134 195 238 248 477 1070 1190 1600 2090
2021-01-29 00:30 7.17 2320 6180 (1949) 88 (1964) 758 134 195 238 248 477 1070 1190 1600 2090
2021-01-28 23:30 7.17 2320 6180 (1949) 86 (1964) 724 126 188 236 257 484 1020 1110 1460 1640
2021-01-28 22:30 7.14 2280 6180 (1949) 86 (1964) 724 126 188 236 257 484 1020 1110 1460 1640
2021-01-28 21:30 7.16 2310 6180 (1949) 86 (1964) 724 126 188 236 257 484 1020 1110 1460 1640
2021-01-28 20:30 7.19 2350 6180 (1949) 86 (1964) 724 126 188 236 257 484 1020 1110 1460 1640
2021-01-28 19:30 7.22 2400 6180 (1949) 86 (1964) 724 126 188 236 257 484 1020 1110 1460 1640
2021-01-28 18:30 7.22 2400 6180 (1949) 86 (1964) 724 126 188 236 257 484 1020 1110 1460 1640
2021-01-28 17:30 7.25 2440 6180 (1949) 86 (1964) 724 126 188 236 257 484 1020 1110 1460 1640
2021-01-28 16:30 7.26 2460 6180 (1949) 86 (1964) 724 126 188 236 257 484 1020 1110 1460 1640
2021-01-28 15:30 7.29 2500 6180 (1949) 86 (1964) 724 126 188 236 257 484 1020 1110 1460 1640
2021-01-28 14:30 7.31 2530 6180 (1949) 86 (1964) 724 126 188 236 257 484 1020 1110 1460 1640
2021-01-28 13:30 7.36 2610 6180 (1949) 86 (1964) 724 126 188 236 257 484 1020 1110 1460 1640
2021-01-28 12:30 7.36 2610 6180 (1949) 86 (1964) 724 126 188 236 257 484 1020 1110 1460 1640
2021-01-28 11:30 7.42 2710 6180 (1949) 86 (1964) 724 126 188 236 257 484 1020 1110 1460 1640
2021-01-28 10:30 7.44 2740 6180 (1949) 86 (1964) 724 126 188 236 257 484 1020 1110 1460 1640
2021-01-28 09:30 7.51 2850 6180 (1949) 86 (1964) 724 126 188 236 257 484 1020 1110 1460 1640
2021-01-28 08:30 7.51 2850 6180 (1949) 86 (1964) 724 126 188 236 257 484 1020 1110 1460 1640
2021-01-28 07:30 7.59 2960 6180 (1949) 86 (1964) 724 126 188 236 257 484 1020 1110 1460 1640
2021-01-28 06:30 7.58 2940 6180 (1949) 86 (1964) 724 126 188 236 257 484 1020 1110 1460 1640
2021-01-28 05:30 7.63 3010 6180 (1949) 86 (1964) 724 126 188 236 257 484 1020 1110 1460 1640
2021-01-28 04:30 7.70 3110 6180 (1949) 86 (1964) 724 126 188 236 257 484 1020 1110 1460 1640
2021-01-28 03:30 7.69 3090 6180 (1949) 86 (1964) 724 126 188 236 257 484 1020 1110 1460 1640
2021-01-28 02:30 7.73 3150 6180 (1949) 86 (1964) 724 126 188 236 257 484 1020 1110 1460 1640
2021-01-28 01:30 7.72 3140 6180 (1949) 86 (1964) 724 126 188 236 257 484 1020 1110 1460 1640
2021-01-28 00:30 7.77 3210 6180 (1949) 86 (1964) 724 126 188 236 257 484 1020 1110 1460 1640
2021-01-27 23:30 7.80 3250 4760 (1949) 82 (1964) 728 119 186 229 261 471 978 1150 1540 1950
2021-01-27 22:30 7.81 3270 4760 (1949) 82 (1964) 728 119 186 229 261 471 978 1150 1540 1950
2021-01-27 21:30 7.88 3370 4760 (1949) 82 (1964) 728 119 186 229 261 471 978 1150 1540 1950
2021-01-27 20:30 7.89 3380 4760 (1949) 82 (1964) 728 119 186 229 261 471 978 1150 1540 1950
2021-01-27 19:30 7.93 3440 4760 (1949) 82 (1964) 728 119 186 229 261 471 978 1150 1540 1950
2021-01-27 18:30 8.03 3590 4760 (1949) 82 (1964) 728 119 186 229 261 471 978 1150 1540 1950
2021-01-27 17:30 8.01 3560 4760 (1949) 82 (1964) 728 119 186 229 261 471 978 1150 1540 1950
2021-01-27 16:30 8.04 3600 4760 (1949) 82 (1964) 728 119 186 229 261 471 978 1150 1540 1950
2021-01-27 15:30 8.09 3680 4760 (1949) 82 (1964) 728 119 186 229 261 471 978 1150 1540 1950
2021-01-27 14:30 8.16 3780 4760 (1949) 82 (1964) 728 119 186 229 261 471 978 1150 1540 1950
2021-01-27 13:30 8.20 3840 4760 (1949) 82 (1964) 728 119 186 229 261 471 978 1150 1540 1950
2021-01-27 12:30 8.30 3990 4760 (1949) 82 (1964) 728 119 186 229 261 471 978 1150 1540 1950
2021-01-27 11:30 8.34 4050 4760 (1949) 82 (1964) 728 119 186 229 261 471 978 1150 1540 1950
2021-01-27 10:30 8.42 4170 4760 (1949) 82 (1964) 728 119 186 229 261 471 978 1150 1540 1950
2021-01-27 09:30 8.49 4280 4760 (1949) 82 (1964) 728 119 186 229 261 471 978 1150 1540 1950
2021-01-27 08:30 8.55 4380 4760 (1949) 82 (1964) 728 119 186 229 261 471 978 1150 1540 1950
2021-01-27 07:30 8.63 4500 4760 (1949) 82 (1964) 728 119 186 229 261 471 978 1150 1540 1950
2021-01-27 06:30 8.67 4560 4760 (1949) 82 (1964) 728 119 186 229 261 471 978 1150 1540 1950
2021-01-27 05:30 8.76 4700 4760 (1949) 82 (1964) 728 119 186 229 261 471 978 1150 1540 1950
2021-01-27 04:30 8.87 4870 4760 (1949) 82 (1964) 728 119 186 229 261 471 978 1150 1540 1950
2021-01-27 03:30 8.93 4970 4760 (1949) 82 (1964) 728 119 186 229 261 471 978 1150 1540 1950
2021-01-27 02:30 9.06 5170 4760 (1949) 82 (1964) 728 119 186 229 261 471 978 1150 1540 1950
2021-01-27 01:30 9.15 5310 4760 (1949) 82 (1964) 728 119 186 229 261 471 978 1150 1540 1950
2021-01-27 00:30 9.30 5540 4760 (1949) 82 (1964) 728 119 186 229 261 471 978 1150 1540 1950
2021-01-26 23:30 9.40 5700 7300 (1949) 86 (1956) 769 120 178 219 265 477 894 1110 1640 2250
2021-01-26 22:30 9.53 5910 7300 (1949) 86 (1956) 769 120 178 219 265 477 894 1110 1640 2250
2021-01-26 21:30 9.69 6220 7300 (1949) 86 (1956) 769 120 178 219 265 477 894 1110 1640 2250
2021-01-26 20:30 9.83 6500 7300 (1949) 86 (1956) 769 120 178 219 265 477 894 1110 1640 2250
2021-01-26 19:30 10.02 6880 7300 (1949) 86 (1956) 769 120 178 219 265 477 894 1110 1640 2250
2021-01-26 18:30 10.17 7190 7300 (1949) 86 (1956) 769 120 178 219 265 477 894 1110 1640 2250
2021-01-26 17:30 10.34 7560 7300 (1949) 86 (1956) 769 120 178 219 265 477 894 1110 1640 2250
2021-01-26 16:30 10.48 7860 7300 (1949) 86 (1956) 769 120 178 219 265 477 894 1110 1640 2250
2021-01-26 15:30 10.57 8060 7300 (1949) 86 (1956) 769 120 178 219 265 477 894 1110 1640 2250
2021-01-26 14:30 10.63 8200 7300 (1949) 86 (1956) 769 120 178 219 265 477 894 1110 1640 2250
2021-01-26 13:30 10.62 8170 7300 (1949) 86 (1956) 769 120 178 219 265 477 894 1110 1640 2250
2021-01-26 12:30 10.59 8110 7300 (1949) 86 (1956) 769 120 178 219 265 477 894 1110 1640 2250
2021-01-26 11:30 10.50 7910 7300 (1949) 86 (1956) 769 120 178 219 265 477 894 1110 1640 2250
2021-01-26 10:30 10.35 7580 7300 (1949) 86 (1956) 769 120 178 219 265 477 894 1110 1640 2250
2021-01-26 09:30 10.17 7190 7300 (1949) 86 (1956) 769 120 178 219 265 477 894 1110 1640 2250
2021-01-26 08:30 9.95 6740 7300 (1949) 86 (1956) 769 120 178 219 265 477 894 1110 1640 2250
2021-01-26 07:30 9.74 6320 7300 (1949) 86 (1956) 769 120 178 219 265 477 894 1110 1640 2250
2021-01-26 06:30 9.57 5990 7300 (1949) 86 (1956) 769 120 178 219 265 477 894 1110 1640 2250
2021-01-26 05:30 9.42 5730 7300 (1949) 86 (1956) 769 120 178 219 265 477 894 1110 1640 2250
2021-01-26 04:30 9.31 5560 7300 (1949) 86 (1956) 769 120 178 219 265 477 894 1110 1640 2250
2021-01-26 03:30 9.20 5390 7300 (1949) 86 (1956) 769 120 178 219 265 477 894 1110 1640 2250
2021-01-26 02:30 9.08 5200 7300 (1949) 86 (1956) 769 120 178 219 265 477 894 1110 1640 2250
2021-01-26 01:30 8.94 4980 7300 (1949) 86 (1956) 769 120 178 219 265 477 894 1110 1640 2250
2021-01-26 00:30 8.80 4760 7300 (1949) 86 (1956) 769 120 178 219 265 477 894 1110 1640 2250
2021-01-25 23:30 8.51 4310 3900 (1949) 84 (1956) 754 107 176 216 269 470 954 1170 1680 2580
2021-01-25 22:30 8.25 3910 3900 (1949) 84 (1956) 754 107 176 216 269 470 954 1170 1680 2580
2021-01-25 21:30 8.00 3550 3900 (1949) 84 (1956) 754 107 176 216 269 470 954 1170 1680 2580
2021-01-25 20:30 7.77 3210 3900 (1949) 84 (1956) 754 107 176 216 269 470 954 1170 1680 2580
2021-01-25 19:30 7.73 3150 3900 (1949) 84 (1956) 754 107 176 216 269 470 954 1170 1680 2580
2021-01-25 18:30 7.68 3080 3900 (1949) 84 (1956) 754 107 176 216 269 470 954 1170 1680 2580
2021-01-25 17:30 7.71 3120 3900 (1949) 84 (1956) 754 107 176 216 269 470 954 1170 1680 2580
2021-01-25 16:30 7.67 3070 3900 (1949) 84 (1956) 754 107 176 216 269 470 954 1170 1680 2580
2021-01-25 15:30 7.60 2970 3900 (1949) 84 (1956) 754 107 176 216 269 470 954 1170 1680 2580
2021-01-25 14:30 7.54 2890 3900 (1949) 84 (1956) 754 107 176 216 269 470 954 1170 1680 2580
2021-01-25 13:30 7.42 2710 3900 (1949) 84 (1956) 754 107 176 216 269 470 954 1170 1680 2580
2021-01-25 12:30 7.33 2560 3900 (1949) 84 (1956) 754 107 176 216 269 470 954 1170 1680 2580
2021-01-25 11:30 7.20 2370 3900 (1949) 84 (1956) 754 107 176 216 269 470 954 1170 1680 2580
2021-01-25 10:30 6.99 2070 3900 (1949) 84 (1956) 754 107 176 216 269 470 954 1170 1680 2580
2021-01-25 09:30 6.62 1650 3900 (1949) 84 (1956) 754 107 176 216 269 470 954 1170 1680 2580
2021-01-25 08:30 6.04 1110 3900 (1949) 84 (1956) 754 107 176 216 269 470 954 1170 1680 2580
2021-01-25 07:30 5.76 896 3900 (1949) 84 (1956) 754 107 176 216 269 470 954 1170 1680 2580
2021-01-25 06:30 5.74 882 3900 (1949) 84 (1956) 754 107 176 216 269 470 954 1170 1680 2580
2021-01-25 05:30 5.75 889 3900 (1949) 84 (1956) 754 107 176 216 269 470 954 1170 1680 2580
2021-01-25 04:30 5.60 788 3900 (1949) 84 (1956) 754 107 176 216 269 470 954 1170 1680 2580
2021-01-25 03:30 5.58 775 3900 (1949) 84 (1956) 754 107 176 216 269 470 954 1170 1680 2580
2021-01-25 02:30 5.57 768 3900 (1949) 84 (1956) 754 107 176 216 269 470 954 1170 1680 2580
2021-01-25 01:30 5.56 762 3900 (1949) 84 (1956) 754 107 176 216 269 470 954 1170 1680 2580
2021-01-25 00:30 5.52 737 3900 (1949) 84 (1956) 754 107 176 216 269 470 954 1170 1680 2580
2021-01-24 23:30 5.52 737 5230 (1973) 82 (1956) 738 108 184 217 267 439 973 1210 1650 2130
2021-01-24 22:30 5.52 737 5230 (1973) 82 (1956) 738 108 184 217 267 439 973 1210 1650 2130
2021-01-24 21:30 5.51 730 5230 (1973) 82 (1956) 738 108 184 217 267 439 973 1210 1650 2130
2021-01-24 20:30 5.53 743 5230 (1973) 82 (1956) 738 108 184 217 267 439 973 1210 1650 2130
2021-01-24 19:30 5.54 749 5230 (1973) 82 (1956) 738 108 184 217 267 439 973 1210 1650 2130
2021-01-24 18:30 5.53 743 5230 (1973) 82 (1956) 738 108 184 217 267 439 973 1210 1650 2130
2021-01-24 17:30 5.53 743 5230 (1973) 82 (1956) 738 108 184 217 267 439 973 1210 1650 2130
2021-01-24 16:30 5.53 743 5230 (1973) 82 (1956) 738 108 184 217 267 439 973 1210 1650 2130
2021-01-24 15:30 5.53 743 5230 (1973) 82 (1956) 738 108 184 217 267 439 973 1210 1650 2130
2021-01-24 14:30 5.53 743 5230 (1973) 82 (1956) 738 108 184 217 267 439 973 1210 1650 2130
2021-01-24 13:30 5.53 743 5230 (1973) 82 (1956) 738 108 184 217 267 439 973 1210 1650 2130
2021-01-24 12:30 5.52 737 5230 (1973) 82 (1956) 738 108 184 217 267 439 973 1210 1650 2130
2021-01-24 11:30 5.54 749 5230 (1973) 82 (1956) 738 108 184 217 267 439 973 1210 1650 2130
2021-01-24 10:30 5.53 743 5230 (1973) 82 (1956) 738 108 184 217 267 439 973 1210 1650 2130
2021-01-24 09:30 5.55 756 5230 (1973) 82 (1956) 738 108 184 217 267 439 973 1210 1650 2130
2021-01-24 08:30 5.55 756 5230 (1973) 82 (1956) 738 108 184 217 267 439 973 1210 1650 2130
2021-01-24 07:30 5.54 749 5230 (1973) 82 (1956) 738 108 184 217 267 439 973 1210 1650 2130
2021-01-24 06:30 5.54 749 5230 (1973) 82 (1956) 738 108 184 217 267 439 973 1210 1650 2130
2021-01-24 05:30 5.55 756 5230 (1973) 82 (1956) 738 108 184 217 267 439 973 1210 1650 2130
2021-01-24 04:30 5.55 756 5230 (1973) 82 (1956) 738 108 184 217 267 439 973 1210 1650 2130
2021-01-24 03:30 5.55 756 5230 (1973) 82 (1956) 738 108 184 217 267 439 973 1210 1650 2130
2021-01-24 02:30 5.56 762 5230 (1973) 82 (1956) 738 108 184 217 267 439 973 1210 1650 2130
2021-01-24 01:30 5.55 756 5230 (1973) 82 (1956) 738 108 184 217 267 439 973 1210 1650 2130
2021-01-24 00:30 5.55 756 5230 (1973) 82 (1956) 738 108 184 217 267 439 973 1210 1650 2130
2021-01-23 23:30 5.56 762 8380 (1973) 78 (1956) 810 108 173 219 266 420 1040 1180 1900 2470
2021-01-23 22:30 5.55 756 8380 (1973) 78 (1956) 810 108 173 219 266 420 1040 1180 1900 2470
2021-01-23 21:30 5.55 756 8380 (1973) 78 (1956) 810 108 173 219 266 420 1040 1180 1900 2470
2021-01-23 20:30 5.56 762 8380 (1973) 78 (1956) 810 108 173 219 266 420 1040 1180 1900 2470
2021-01-23 19:30 5.55 756 8380 (1973) 78 (1956) 810 108 173 219 266 420 1040 1180 1900 2470
2021-01-23 18:30 5.56 762 8380 (1973) 78 (1956) 810 108 173 219 266 420 1040 1180 1900 2470
2021-01-23 17:30 5.56 762 8380 (1973) 78 (1956) 810 108 173 219 266 420 1040 1180 1900 2470
2021-01-23 16:30 5.56 762 8380 (1973) 78 (1956) 810 108 173 219 266 420 1040 1180 1900 2470
2021-01-23 15:30 5.56 762 8380 (1973) 78 (1956) 810 108 173 219 266 420 1040 1180 1900 2470
2021-01-23 14:30 5.58 775 8380 (1973) 78 (1956) 810 108 173 219 266 420 1040 1180 1900 2470
2021-01-23 13:30 5.57 768 8380 (1973) 78 (1956) 810 108 173 219 266 420 1040 1180 1900 2470
2021-01-23 12:30 5.57 768 8380 (1973) 78 (1956) 810 108 173 219 266 420 1040 1180 1900 2470
2021-01-23 11:30 5.59 781 8380 (1973) 78 (1956) 810 108 173 219 266 420 1040 1180 1900 2470
2021-01-23 10:30 5.56 762 8380 (1973) 78 (1956) 810 108 173 219 266 420 1040 1180 1900 2470
2021-01-23 09:30 5.57 768 8380 (1973) 78 (1956) 810 108 173 219 266 420 1040 1180 1900 2470
2021-01-23 08:30 5.58 775 8380 (1973) 78 (1956) 810 108 173 219 266 420 1040 1180 1900 2470
2021-01-23 07:30 5.59 781 8380 (1973) 78 (1956) 810 108 173 219 266 420 1040 1180 1900 2470
2021-01-23 06:30 5.57 768 8380 (1973) 78 (1956) 810 108 173 219 266 420 1040 1180 1900 2470
2021-01-23 05:30 5.59 781 8380 (1973) 78 (1956) 810 108 173 219 266 420 1040 1180 1900 2470
2021-01-23 04:30 5.57 768 8380 (1973) 78 (1956) 810 108 173 219 266 420 1040 1180 1900 2470
2021-01-23 03:30 5.59 781 8380 (1973) 78 (1956) 810 108 173 219 266 420 1040 1180 1900 2470
2021-01-23 02:30 5.59 781 8380 (1973) 78 (1956) 810 108 173 219 266 420 1040 1180 1900 2470
2021-01-23 01:30 5.57 768 8380 (1973) 78 (1956) 810 108 173 219 266 420 1040 1180 1900 2470
2021-01-23 00:30 5.59 781 8380 (1973) 78 (1956) 810 108 173 219 266 420 1040 1180 1900 2470
2021-01-22 23:30 5.59 781 6560 (1973) 73 (1956) 800 106 150 215 265 419 1050 1210 2010 2740
2021-01-22 22:30 5.58 775 6560 (1973) 73 (1956) 800 106 150 215 265 419 1050 1210 2010 2740
2021-01-22 21:30 5.60 788 6560 (1973) 73 (1956) 800 106 150 215 265 419 1050 1210 2010 2740
2021-01-22 20:30 5.60 788 6560 (1973) 73 (1956) 800 106 150 215 265 419 1050 1210 2010 2740
2021-01-22 19:30 5.59 781 6560 (1973) 73 (1956) 800 106 150 215 265 419 1050 1210 2010 2740
2021-01-22 18:30 5.59 781 6560 (1973) 73 (1956) 800 106 150 215 265 419 1050 1210 2010 2740
2021-01-22 17:30 5.58 775 6560 (1973) 73 (1956) 800 106 150 215 265 419 1050 1210 2010 2740
2021-01-22 16:30 5.59 781 6560 (1973) 73 (1956) 800 106 150 215 265 419 1050 1210 2010 2740
2021-01-22 15:30 5.58 775 6560 (1973) 73 (1956) 800 106 150 215 265 419 1050 1210 2010 2740
2021-01-22 14:30 5.59 781 6560 (1973) 73 (1956) 800 106 150 215 265 419 1050 1210 2010 2740
2021-01-22 13:30 5.59 781 6560 (1973) 73 (1956) 800 106 150 215 265 419 1050 1210 2010 2740
2021-01-22 12:30 5.58 775 6560 (1973) 73 (1956) 800 106 150 215 265 419 1050 1210 2010 2740
2021-01-22 11:30 5.59 781 6560 (1973) 73 (1956) 800 106 150 215 265 419 1050 1210 2010 2740
2021-01-22 10:30 5.59 781 6560 (1973) 73 (1956) 800 106 150 215 265 419 1050 1210 2010 2740
2021-01-22 09:30 5.59 781 6560 (1973) 73 (1956) 800 106 150 215 265 419 1050 1210 2010 2740
2021-01-22 08:30 5.59 781 6560 (1973) 73 (1956) 800 106 150 215 265 419 1050 1210 2010 2740
2021-01-22 07:30 5.60 788 6560 (1973) 73 (1956) 800 106 150 215 265 419 1050 1210 2010 2740
2021-01-22 06:30 5.60 788 6560 (1973) 73 (1956) 800 106 150 215 265 419 1050 1210 2010 2740
2021-01-22 05:30 5.60 788 6560 (1973) 73 (1956) 800 106 150 215 265 419 1050 1210 2010 2740
2021-01-22 04:30 5.59 781 6560 (1973) 73 (1956) 800 106 150 215 265 419 1050 1210 2010 2740
2021-01-22 03:30 5.62 801 6560 (1973) 73 (1956) 800 106 150 215 265 419 1050 1210 2010 2740
2021-01-22 02:30 5.61 794 6560 (1973) 73 (1956) 800 106 150 215 265 419 1050 1210 2010 2740
2021-01-22 01:30 5.61 794 6560 (1973) 73 (1956) 800 106 150 215 265 419 1050 1210 2010 2740
2021-01-22 00:30 5.61 794 6560 (1973) 73 (1956) 800 106 150 215 265 419 1050 1210 2010 2740
2021-01-21 23:30 5.60 788 6100 (1990) 71 (1956) 840 99 149 213 261 425 1080 1400 2150 3090
2021-01-21 22:30 5.62 801 6100 (1990) 71 (1956) 840 99 149 213 261 425 1080 1400 2150 3090
2021-01-21 21:30 5.60 788 6100 (1990) 71 (1956) 840 99 149 213 261 425 1080 1400 2150 3090
2021-01-21 20:30 5.60 788 6100 (1990) 71 (1956) 840 99 149 213 261 425 1080 1400 2150 3090
2021-01-21 19:30 5.60 788 6100 (1990) 71 (1956) 840 99 149 213 261 425 1080 1400 2150 3090
2021-01-21 18:30 5.60 788 6100 (1990) 71 (1956) 840 99 149 213 261 425 1080 1400 2150 3090
2021-01-21 17:30 5.61 794 6100 (1990) 71 (1956) 840 99 149 213 261 425 1080 1400 2150 3090
2021-01-21 16:30 5.59 781 6100 (1990) 71 (1956) 840 99 149 213 261 425 1080 1400 2150 3090
2021-01-21 15:30 5.60 788 6100 (1990) 71 (1956) 840 99 149 213 261 425 1080 1400 2150 3090
2021-01-21 14:30 5.60 788 6100 (1990) 71 (1956) 840 99 149 213 261 425 1080 1400 2150 3090
2021-01-21 13:30 5.61 794 6100 (1990) 71 (1956) 840 99 149 213 261 425 1080 1400 2150 3090
2021-01-21 12:30 5.61 794 6100 (1990) 71 (1956) 840 99 149 213 261 425 1080 1400 2150 3090
2021-01-21 11:30 5.62 801 6100 (1990) 71 (1956) 840 99 149 213 261 425 1080 1400 2150 3090
2021-01-21 10:30 5.63 807 6100 (1990) 71 (1956) 840 99 149 213 261 425 1080 1400 2150 3090
2021-01-21 09:30 5.63 807 6100 (1990) 71 (1956) 840 99 149 213 261 425 1080 1400 2150 3090
2021-01-21 08:30 5.62 801 6100 (1990) 71 (1956) 840 99 149 213 261 425 1080 1400 2150 3090
2021-01-21 07:30 5.63 807 6100 (1990) 71 (1956) 840 99 149 213 261 425 1080 1400 2150 3090
2021-01-21 06:30 5.61 794 6100 (1990) 71 (1956) 840 99 149 213 261 425 1080 1400 2150 3090
2021-01-21 05:30 5.63 807 6100 (1990) 71 (1956) 840 99 149 213 261 425 1080 1400 2150 3090
2021-01-21 04:30 5.63 807 6100 (1990) 71 (1956) 840 99 149 213 261 425 1080 1400 2150 3090
2021-01-21 03:30 5.63 807 6100 (1990) 71 (1956) 840 99 149 213 261 425 1080 1400 2150 3090
2021-01-21 02:30 5.64 814 6100 (1990) 71 (1956) 840 99 149 213 261 425 1080 1400 2150 3090
2021-01-21 01:30 5.63 807 6100 (1990) 71 (1956) 840 99 149 213 261 425 1080 1400 2150 3090
2021-01-21 00:30 5.64 814 6100 (1990) 71 (1956) 840 99 149 213 261 425 1080 1400 2150 3090
2021-01-20 23:30 5.65 821 4810 (1990) 69 (1956) 876 99 151 209 251 430 1150 1500 2150 3500
2021-01-20 22:30 5.64 814 4810 (1990) 69 (1956) 876 99 151 209 251 430 1150 1500 2150 3500
2021-01-20 21:30 5.64 814 4810 (1990) 69 (1956) 876 99 151 209 251 430 1150 1500 2150 3500
2021-01-20 20:30 5.65 821 4810 (1990) 69 (1956) 876 99 151 209 251 430 1150 1500 2150 3500
2021-01-20 19:30 5.65 821 4810 (1990) 69 (1956) 876 99 151 209 251 430 1150 1500 2150 3500
2021-01-20 18:30 5.65 821 4810 (1990) 69 (1956) 876 99 151 209 251 430 1150 1500 2150 3500
2021-01-20 17:30 5.65 821 4810 (1990) 69 (1956) 876 99 151 209 251 430 1150 1500 2150 3500
2021-01-20 16:30 5.65 821 4810 (1990) 69 (1956) 876 99 151 209 251 430 1150 1500 2150 3500
2021-01-20 15:30 5.66 827 4810 (1990) 69 (1956) 876 99 151 209 251 430 1150 1500 2150 3500
2021-01-20 14:30 5.65 821 4810 (1990) 69 (1956) 876 99 151 209 251 430 1150 1500 2150 3500
2021-01-20 13:30 5.65 821 4810 (1990) 69 (1956) 876 99 151 209 251 430 1150 1500 2150 3500
2021-01-20 12:30 5.66 827 4810 (1990) 69 (1956) 876 99 151 209 251 430 1150 1500 2150 3500
2021-01-20 11:30 5.66 827 4810 (1990) 69 (1956) 876 99 151 209 251 430 1150 1500 2150 3500
2021-01-20 10:30 5.67 834 4810 (1990) 69 (1956) 876 99 151 209 251 430 1150 1500 2150 3500
2021-01-20 09:30 5.66 827 4810 (1990) 69 (1956) 876 99 151 209 251 430 1150 1500 2150 3500
2021-01-20 08:30 5.68 841 4810 (1990) 69 (1956) 876 99 151 209 251 430 1150 1500 2150 3500
2021-01-20 07:30 5.66 827 4810 (1990) 69 (1956) 876 99 151 209 251 430 1150 1500 2150 3500
2021-01-20 06:30 5.67 834 4810 (1990) 69 (1956) 876 99 151 209 251 430 1150 1500 2150 3500
2021-01-20 05:30 5.67 834 4810 (1990) 69 (1956) 876 99 151 209 251 430 1150 1500 2150 3500
2021-01-20 04:30 5.67 834 4810 (1990) 69 (1956) 876 99 151 209 251 430 1150 1500 2150 3500
2021-01-20 03:30 5.68 841 4810 (1990) 69 (1956) 876 99 151 209 251 430 1150 1500 2150 3500
2021-01-20 02:30 5.68 841 4810 (1990) 69 (1956) 876 99 151 209 251 430 1150 1500 2150 3500
2021-01-20 01:30 5.68 841 4810 (1990) 69 (1956) 876 99 151 209 251 430 1150 1500 2150 3500
2021-01-20 00:30 5.66 827 4810 (1990) 69 (1956) 876 99 151 209 251 430 1150 1500 2150 3500
2021-01-19 23:30 5.69 848 6240 (2020) 69 (1956) 834 99 149 205 249 457 1120 1510 2080 2460
2021-01-19 22:30 5.68 841 6240 (2020) 69 (1956) 834 99 149 205 249 457 1120 1510 2080 2460
2021-01-19 21:30 5.69 848 6240 (2020) 69 (1956) 834 99 149 205 249 457 1120 1510 2080 2460
2021-01-19 20:30 5.68 841 6240 (2020) 69 (1956) 834 99 149 205 249 457 1120 1510 2080 2460
2021-01-19 19:30 5.71 861 6240 (2020) 69 (1956) 834 99 149 205 249 457 1120 1510 2080 2460
2021-01-19 18:30 5.70 855 6240 (2020) 69 (1956) 834 99 149 205 249 457 1120 1510 2080 2460
2021-01-19 17:30 5.69 848 6240 (2020) 69 (1956) 834 99 149 205 249 457 1120 1510 2080 2460
2021-01-19 16:30 5.69 848 6240 (2020) 69 (1956) 834 99 149 205 249 457 1120 1510 2080 2460
2021-01-19 15:30 5.69 848 6240 (2020) 69 (1956) 834 99 149 205 249 457 1120 1510 2080 2460
2021-01-19 14:30 5.68 841 6240 (2020) 69 (1956) 834 99 149 205 249 457 1120 1510 2080 2460
2021-01-19 13:30 5.68 841 6240 (2020) 69 (1956) 834 99 149 205 249 457 1120 1510 2080 2460
2021-01-19 12:30 5.70 855 6240 (2020) 69 (1956) 834 99 149 205 249 457 1120 1510 2080 2460
2021-01-19 11:30 5.69 848 6240 (2020) 69 (1956) 834 99 149 205 249 457 1120 1510 2080 2460
2021-01-19 10:30 5.70 855 6240 (2020) 69 (1956) 834 99 149 205 249 457 1120 1510 2080 2460
2021-01-19 09:30 5.70 855 6240 (2020) 69 (1956) 834 99 149 205 249 457 1120 1510 2080 2460
2021-01-19 08:30 5.74 882 6240 (2020) 69 (1956) 834 99 149 205 249 457 1120 1510 2080 2460
2021-01-19 07:30 5.71 861 6240 (2020) 69 (1956) 834 99 149 205 249 457 1120 1510 2080 2460
2021-01-19 06:30 5.73 875 6240 (2020) 69 (1956) 834 99 149 205 249 457 1120 1510 2080 2460
2021-01-19 05:30 5.72 868 6240 (2020) 69 (1956) 834 99 149 205 249 457 1120 1510 2080 2460
2021-01-19 04:30 5.74 882 6240 (2020) 69 (1956) 834 99 149 205 249 457 1120 1510 2080 2460
2021-01-19 03:30 5.72 868 6240 (2020) 69 (1956) 834 99 149 205 249 457 1120 1510 2080 2460
2021-01-19 02:30 5.73 875 6240 (2020) 69 (1956) 834 99 149 205 249 457 1120 1510 2080 2460
2021-01-19 01:30 5.73 875 6240 (2020) 69 (1956) 834 99 149 205 249 457 1120 1510 2080 2460
2021-01-19 00:30 5.73 875 6240 (2020) 69 (1956) 834 99 149 205 249 457 1120 1510 2080 2460
2021-01-18 23:30 5.74 882 4050 (2020) 67 (1956) 785 98 154 206 251 468 1000 1280 2070 2790
2021-01-18 22:30 5.73 875 4050 (2020) 67 (1956) 785 98 154 206 251 468 1000 1280 2070 2790
2021-01-18 21:30 5.74 882 4050 (2020) 67 (1956) 785 98 154 206 251 468 1000 1280 2070 2790
2021-01-18 20:30 5.73 875 4050 (2020) 67 (1956) 785 98 154 206 251 468 1000 1280 2070 2790
2021-01-18 19:30 5.73 875 4050 (2020) 67 (1956) 785 98 154 206 251 468 1000 1280 2070 2790
2021-01-18 18:30 5.74 882 4050 (2020) 67 (1956) 785 98 154 206 251 468 1000 1280 2070 2790
2021-01-18 17:30 5.73 875 4050 (2020) 67 (1956) 785 98 154 206 251 468 1000 1280 2070 2790
2021-01-18 16:30 5.73 875 4050 (2020) 67 (1956) 785 98 154 206 251 468 1000 1280 2070 2790
2021-01-18 15:30 5.75 889 4050 (2020) 67 (1956) 785 98 154 206 251 468 1000 1280 2070 2790
2021-01-18 14:30 5.74 882 4050 (2020) 67 (1956) 785 98 154 206 251 468 1000 1280 2070 2790
2021-01-18 13:30 5.74 882 4050 (2020) 67 (1956) 785 98 154 206 251 468 1000 1280 2070 2790
2021-01-18 12:30 5.75 889 4050 (2020) 67 (1956) 785 98 154 206 251 468 1000 1280 2070 2790
2021-01-18 11:30 5.76 896 4050 (2020) 67 (1956) 785 98 154 206 251 468 1000 1280 2070 2790
2021-01-18 10:30 5.76 896 4050 (2020) 67 (1956) 785 98 154 206 251 468 1000 1280 2070 2790
2021-01-18 09:30 5.77 903 4050 (2020) 67 (1956) 785 98 154 206 251 468 1000 1280 2070 2790
2021-01-18 08:30 5.76 896 4050 (2020) 67 (1956) 785 98 154 206 251 468 1000 1280 2070 2790
2021-01-18 07:30 5.77 903 4050 (2020) 67 (1956) 785 98 154 206 251 468 1000 1280 2070 2790
2021-01-18 06:30 5.78 911 4050 (2020) 67 (1956) 785 98 154 206 251 468 1000 1280 2070 2790
2021-01-18 05:30 5.78 911 4050 (2020) 67 (1956) 785 98 154 206 251 468 1000 1280 2070 2790
2021-01-18 04:30 5.79 918 4050 (2020) 67 (1956) 785 98 154 206 251 468 1000 1280 2070 2790
2021-01-18 03:30 5.78 911 4050 (2020) 67 (1956) 785 98 154 206 251 468 1000 1280 2070 2790
2021-01-18 02:30 5.78 911 4050 (2020) 67 (1956) 785 98 154 206 251 468 1000 1280 2070 2790
2021-01-18 01:30 5.78 911 4050 (2020) 67 (1956) 785 98 154 206 251 468 1000 1280 2070 2790
2021-01-18 00:30 5.79 918 4050 (2020) 67 (1956) 785 98 154 206 251 468 1000 1280 2070 2790
2021-01-17 23:30 5.79 918 4440 (1991) 65 (1956) 827 96 150 214 244 474 961 1330 2160 3400
2021-01-17 22:30 5.79 918 4440 (1991) 65 (1956) 827 96 150 214 244 474 961 1330 2160 3400
2021-01-17 21:30 5.79 918 4440 (1991) 65 (1956) 827 96 150 214 244 474 961 1330 2160 3400
2021-01-17 20:30 5.78 911 4440 (1991) 65 (1956) 827 96 150 214 244 474 961 1330 2160 3400
2021-01-17 19:30 5.78 911 4440 (1991) 65 (1956) 827 96 150 214 244 474 961 1330 2160 3400
2021-01-17 18:30 5.79 918 4440 (1991) 65 (1956) 827 96 150 214 244 474 961 1330 2160 3400
2021-01-17 17:30 5.79 918 4440 (1991) 65 (1956) 827 96 150 214 244 474 961 1330 2160 3400
2021-01-17 16:30 5.80 925 4440 (1991) 65 (1956) 827 96 150 214 244 474 961 1330 2160 3400
2021-01-17 15:30 5.79 918 4440 (1991) 65 (1956) 827 96 150 214 244 474 961 1330 2160 3400
2021-01-17 14:30 5.80 925 4440 (1991) 65 (1956) 827 96 150 214 244 474 961 1330 2160 3400
2021-01-17 13:30 5.80 925 4440 (1991) 65 (1956) 827 96 150 214 244 474 961 1330 2160 3400
2021-01-17 12:30 5.82 939 4440 (1991) 65 (1956) 827 96 150 214 244 474 961 1330 2160 3400
2021-01-17 11:30 5.81 932 4440 (1991) 65 (1956) 827 96 150 214 244 474 961 1330 2160 3400
2021-01-17 10:30 5.81 932 4440 (1991) 65 (1956) 827 96 150 214 244 474 961 1330 2160 3400
2021-01-17 09:30 5.83 947 4440 (1991) 65 (1956) 827 96 150 214 244 474 961 1330 2160 3400
2021-01-17 08:30 5.82 939 4440 (1991) 65 (1956) 827 96 150 214 244 474 961 1330 2160 3400
2021-01-17 07:30 5.84 954 4440 (1991) 65 (1956) 827 96 150 214 244 474 961 1330 2160 3400
2021-01-17 06:30 5.84 954 4440 (1991) 65 (1956) 827 96 150 214 244 474 961 1330 2160 3400
2021-01-17 05:30 5.84 954 4440 (1991) 65 (1956) 827 96 150 214 244 474 961 1330 2160 3400
2021-01-17 04:30 5.85 962 4440 (1991) 65 (1956) 827 96 150 214 244 474 961 1330 2160 3400
2021-01-17 03:30 5.85 962 4440 (1991) 65 (1956) 827 96 150 214 244 474 961 1330 2160 3400
2021-01-17 02:30 5.85 962 4440 (1991) 65 (1956) 827 96 150 214 244 474 961 1330 2160 3400
2021-01-17 01:30 5.83 947 4440 (1991) 65 (1956) 827 96 150 214 244 474 961 1330 2160 3400
2021-01-16 22:30 5.86 969 11000 (1937) 65 (1956) 984 96 148 210 234 446 929 1400 2190 4010
2021-01-16 21:30 5.86 969 11000 (1937) 65 (1956) 984 96 148 210 234 446 929 1400 2190 4010
2021-01-16 20:30 5.84 954 11000 (1937) 65 (1956) 984 96 148 210 234 446 929 1400 2190 4010
2021-01-16 19:30 5.86 969 11000 (1937) 65 (1956) 984 96 148 210 234 446 929 1400 2190 4010
2021-01-16 18:30 5.86 969 11000 (1937) 65 (1956) 984 96 148 210 234 446 929 1400 2190 4010
2021-01-16 17:30 5.86 969 11000 (1937) 65 (1956) 984 96 148 210 234 446 929 1400 2190 4010
2021-01-16 16:30 5.88 984 11000 (1937) 65 (1956) 984 96 148 210 234 446 929 1400 2190 4010
2021-01-16 15:30 5.87 976 11000 (1937) 65 (1956) 984 96 148 210 234 446 929 1400 2190 4010
2021-01-16 14:30 5.87 976 11000 (1937) 65 (1956) 984 96 148 210 234 446 929 1400 2190 4010
2021-01-16 13:30 5.87 976 11000 (1937) 65 (1956) 984 96 148 210 234 446 929 1400 2190 4010
2021-01-16 12:30 5.88 984 11000 (1937) 65 (1956) 984 96 148 210 234 446 929 1400 2190 4010
2021-01-16 11:30 5.89 991 11000 (1937) 65 (1956) 984 96 148 210 234 446 929 1400 2190 4010
2021-01-16 10:30 5.89 991 11000 (1937) 65 (1956) 984 96 148 210 234 446 929 1400 2190 4010
2021-01-16 09:30 5.90 999 11000 (1937) 65 (1956) 984 96 148 210 234 446 929 1400 2190 4010
2021-01-16 08:30 5.90 999 11000 (1937) 65 (1956) 984 96 148 210 234 446 929 1400 2190 4010
2021-01-16 07:30 5.91 1010 11000 (1937) 65 (1956) 984 96 148 210 234 446 929 1400 2190 4010
2021-01-16 06:30 5.91 1010 11000 (1937) 65 (1956) 984 96 148 210 234 446 929 1400 2190 4010
2021-01-16 05:30 5.91 1010 11000 (1937) 65 (1956) 984 96 148 210 234 446 929 1400 2190 4010
2021-01-16 04:30 5.90 999 11000 (1937) 65 (1956) 984 96 148 210 234 446 929 1400 2190 4010
2021-01-16 03:30 5.91 1010 11000 (1937) 65 (1956) 984 96 148 210 234 446 929 1400 2190 4010
2021-01-16 02:30 5.90 999 11000 (1937) 65 (1956) 984 96 148 210 234 446 929 1400 2190 4010
2021-01-16 01:30 5.89 991 11000 (1937) 65 (1956) 984 96 148 210 234 446 929 1400 2190 4010
2021-01-16 00:30 5.91 1010 11000 (1937) 65 (1956) 984 96 148 210 234 446 929 1400 2190 4010
2021-01-15 23:30 5.91 1010 13100 (1995) 65 (1956) 1220 98 147 215 238 437 827 1360 2510 7970
2021-01-15 22:30 5.92 1010 13100 (1995) 65 (1956) 1220 98 147 215 238 437 827 1360 2510 7970
2021-01-15 21:30 5.93 1020 13100 (1995) 65 (1956) 1220 98 147 215 238 437 827 1360 2510 7970
2021-01-15 20:30 5.91 1010 13100 (1995) 65 (1956) 1220 98 147 215 238 437 827 1360 2510 7970
2021-01-15 19:30 5.92 1010 13100 (1995) 65 (1956) 1220 98 147 215 238 437 827 1360 2510 7970
2021-01-15 18:30 5.92 1010 13100 (1995) 65 (1956) 1220 98 147 215 238 437 827 1360 2510 7970
2021-01-15 17:30 5.93 1020 13100 (1995) 65 (1956) 1220 98 147 215 238 437 827 1360 2510 7970
2021-01-15 16:30 5.93 1020 13100 (1995) 65 (1956) 1220 98 147 215 238 437 827 1360 2510 7970
2021-01-15 15:30 5.95 1040 13100 (1995) 65 (1956) 1220 98 147 215 238 437 827 1360 2510 7970
2021-01-15 14:30 5.95 1040 13100 (1995) 65 (1956) 1220 98 147 215 238 437 827 1360 2510 7970
2021-01-15 13:30 5.96 1050 13100 (1995) 65 (1956) 1220 98 147 215 238 437 827 1360 2510 7970
2021-01-15 12:30 5.96 1050 13100 (1995) 65 (1956) 1220 98 147 215 238 437 827 1360 2510 7970
2021-01-15 11:30 5.95 1040 13100 (1995) 65 (1956) 1220 98 147 215 238 437 827 1360 2510 7970
2021-01-15 10:30 5.95 1040 13100 (1995) 65 (1956) 1220 98 147 215 238 437 827 1360 2510 7970
2021-01-15 09:30 5.96 1050 13100 (1995) 65 (1956) 1220 98 147 215 238 437 827 1360 2510 7970
2021-01-15 08:30 5.97 1050 13100 (1995) 65 (1956) 1220 98 147 215 238 437 827 1360 2510 7970
2021-01-15 07:30 5.98 1060 13100 (1995) 65 (1956) 1220 98 147 215 238 437 827 1360 2510 7970
2021-01-15 06:30 5.95 1040 13100 (1995) 65 (1956) 1220 98 147 215 238 437 827 1360 2510 7970
2021-01-15 05:30 5.97 1050 13100 (1995) 65 (1956) 1220 98 147 215 238 437 827 1360 2510 7970
2021-01-15 04:30 5.97 1050 13100 (1995) 65 (1956) 1220 98 147 215 238 437 827 1360 2510 7970
2021-01-15 03:30 5.97 1050 13100 (1995) 65 (1956) 1220 98 147 215 238 437 827 1360 2510 7970
2021-01-15 02:30 5.97 1050 13100 (1995) 65 (1956) 1220 98 147 215 238 437 827 1360 2510 7970
2021-01-15 01:30 5.99 1070 13100 (1995) 65 (1956) 1220 98 147 215 238 437 827 1360 2510 7970
2021-01-15 00:30 5.97 1050 13100 (1995) 65 (1956) 1220 98 147 215 238 437 827 1360 2510 7970
2021-01-14 23:30 5.98 1060 12700 (2005) 65 (1956) 1150 99 144 215 232 455 851 1490 2510 6320
2021-01-14 22:30 5.98 1060 12700 (2005) 65 (1956) 1150 99 144 215 232 455 851 1490 2510 6320
2021-01-14 21:30 5.99 1070 12700 (2005) 65 (1956) 1150 99 144 215 232 455 851 1490 2510 6320
2021-01-14 20:30 5.99 1070 12700 (2005) 65 (1956) 1150 99 144 215 232 455 851 1490 2510 6320
2021-01-14 19:30 6.01 1080 12700 (2005) 65 (1956) 1150 99 144 215 232 455 851 1490 2510 6320
2021-01-14 18:30 6.01 1080 12700 (2005) 65 (1956) 1150 99 144 215 232 455 851 1490 2510 6320
2021-01-14 17:30 6.00 1080 12700 (2005) 65 (1956) 1150 99 144 215 232 455 851 1490 2510 6320
2021-01-14 16:30 6.00 1080 12700 (2005) 65 (1956) 1150 99 144 215 232 455 851 1490 2510 6320
2021-01-14 15:30 6.02 1090 12700 (2005) 65 (1956) 1150 99 144 215 232 455 851 1490 2510 6320
2021-01-14 14:30 6.00 1080 12700 (2005) 65 (1956) 1150 99 144 215 232 455 851 1490 2510 6320
2021-01-14 13:30 6.01 1080 12700 (2005) 65 (1956) 1150 99 144 215 232 455 851 1490 2510 6320
2021-01-14 12:30 6.00 1080 12700 (2005) 65 (1956) 1150 99 144 215 232 455 851 1490 2510 6320
2021-01-14 11:30 6.04 1110 12700 (2005) 65 (1956) 1150 99 144 215 232 455 851 1490 2510 6320
2021-01-14 10:30 6.01 1080 12700 (2005) 65 (1956) 1150 99 144 215 232 455 851 1490 2510 6320
2021-01-14 09:30 6.04 1110 12700 (2005) 65 (1956) 1150 99 144 215 232 455 851 1490 2510 6320
2021-01-14 08:30 6.03 1100 12700 (2005) 65 (1956) 1150 99 144 215 232 455 851 1490 2510 6320
2021-01-14 07:30 6.04 1110 12700 (2005) 65 (1956) 1150 99 144 215 232 455 851 1490 2510 6320
2021-01-14 06:30 6.03 1100 12700 (2005) 65 (1956) 1150 99 144 215 232 455 851 1490 2510 6320
2021-01-14 05:30 6.04 1110 12700 (2005) 65 (1956) 1150 99 144 215 232 455 851 1490 2510 6320
2021-01-14 04:30 6.04 1110 12700 (2005) 65 (1956) 1150 99 144 215 232 455 851 1490 2510 6320
2021-01-14 03:30 6.05 1120 12700 (2005) 65 (1956) 1150 99 144 215 232 455 851 1490 2510 6320
2021-01-14 02:30 6.05 1120 12700 (2005) 65 (1956) 1150 99 144 215 232 455 851 1490 2510 6320
2021-01-14 01:30 6.07 1130 12700 (2005) 65 (1956) 1150 99 144 215 232 455 851 1490 2510 6320
2021-01-14 00:30 6.06 1130 12700 (2005) 65 (1956) 1150 99 144 215 232 455 851 1490 2510 6320
2021-01-13 23:30 6.05 1120 9310 (2005) 67 (1956) 909 99 142 213 224 452 849 989 2350 3430
2021-01-13 22:30 6.06 1130 9310 (2005) 67 (1956) 909 99 142 213 224 452 849 989 2350 3430
2021-01-13 21:30 6.06 1130 9310 (2005) 67 (1956) 909 99 142 213 224 452 849 989 2350 3430
2021-01-13 20:30 6.08 1140 9310 (2005) 67 (1956) 909 99 142 213 224 452 849 989 2350 3430
2021-01-13 19:30 6.06 1130 9310 (2005) 67 (1956) 909 99 142 213 224 452 849 989 2350 3430
2021-01-13 18:30 6.07 1130 9310 (2005) 67 (1956) 909 99 142 213 224 452 849 989 2350 3430
2021-01-13 17:30 6.07 1130 9310 (2005) 67 (1956) 909 99 142 213 224 452 849 989 2350 3430
2021-01-13 16:30 6.08 1140 9310 (2005) 67 (1956) 909 99 142 213 224 452 849 989 2350 3430
2021-01-13 15:30 6.08 1140 9310 (2005) 67 (1956) 909 99 142 213 224 452 849 989 2350 3430
2021-01-13 14:30 6.09 1150 9310 (2005) 67 (1956) 909 99 142 213 224 452 849 989 2350 3430
2021-01-13 13:30 6.09 1150 9310 (2005) 67 (1956) 909 99 142 213 224 452 849 989 2350 3430
2021-01-13 12:30 6.10 1160 9310 (2005) 67 (1956) 909 99 142 213 224 452 849 989 2350 3430
2021-01-13 11:30 6.10 1160 9310 (2005) 67 (1956) 909 99 142 213 224 452 849 989 2350 3430
2021-01-13 10:30 6.11 1170 9310 (2005) 67 (1956) 909 99 142 213 224 452 849 989 2350 3430
2021-01-13 09:30 6.12 1180 9310 (2005) 67 (1956) 909 99 142 213 224 452 849 989 2350 3430
2021-01-13 08:30 6.14 1190 9310 (2005) 67 (1956) 909 99 142 213 224 452 849 989 2350 3430
2021-01-13 07:30 6.13 1180 9310 (2005) 67 (1956) 909 99 142 213 224 452 849 989 2350 3430
2021-01-13 06:30 6.12 1180 9310 (2005) 67 (1956) 909 99 142 213 224 452 849 989 2350 3430
2021-01-13 05:30 6.13 1180 9310 (2005) 67 (1956) 909 99 142 213 224 452 849 989 2350 3430
2021-01-13 04:30 6.14 1190 9310 (2005) 67 (1956) 909 99 142 213 224 452 849 989 2350 3430
2021-01-13 03:30 6.16 1210 9310 (2005) 67 (1956) 909 99 142 213 224 452 849 989 2350 3430
2021-01-13 02:30 6.14 1190 9310 (2005) 67 (1956) 909 99 142 213 224 452 849 989 2350 3430
2021-01-13 01:30 6.15 1200 9310 (2005) 67 (1956) 909 99 142 213 224 452 849 989 2350 3430
2021-01-13 00:30 6.15 1200 9310 (2005) 67 (1956) 909 99 142 213 224 452 849 989 2350 3430
2021-01-12 23:30 6.17 1220 17300 (2020) 67 (1956) 964 97 142 209 228 477 882 1010 2320 2790
2021-01-12 22:30 6.17 1220 17300 (2020) 67 (1956) 964 97 142 209 228 477 882 1010 2320 2790
2021-01-12 21:30 6.18 1230 17300 (2020) 67 (1956) 964 97 142 209 228 477 882 1010 2320 2790
2021-01-12 20:30 6.17 1220 17300 (2020) 67 (1956) 964 97 142 209 228 477 882 1010 2320 2790
2021-01-12 19:30 6.17 1220 17300 (2020) 67 (1956) 964 97 142 209 228 477 882 1010 2320 2790
2021-01-12 18:30 6.16 1210 17300 (2020) 67 (1956) 964 97 142 209 228 477 882 1010 2320 2790
2021-01-12 17:30 6.18 1230 17300 (2020) 67 (1956) 964 97 142 209 228 477 882 1010 2320 2790
2021-01-12 16:30 6.17 1220 17300 (2020) 67 (1956) 964 97 142 209 228 477 882 1010 2320 2790
2021-01-12 15:30 6.18 1230 17300 (2020) 67 (1956) 964 97 142 209 228 477 882 1010 2320 2790
2021-01-12 14:30 6.20 1240 17300 (2020) 67 (1956) 964 97 142 209 228 477 882 1010 2320 2790
2021-01-12 13:30 6.20 1240 17300 (2020) 67 (1956) 964 97 142 209 228 477 882 1010 2320 2790
2021-01-12 12:30 6.20 1240 17300 (2020) 67 (1956) 964 97 142 209 228 477 882 1010 2320 2790
2021-01-12 11:30 6.22 1260 17300 (2020) 67 (1956) 964 97 142 209 228 477 882 1010 2320 2790
2021-01-12 10:30 6.21 1250 17300 (2020) 67 (1956) 964 97 142 209 228 477 882 1010 2320 2790
2021-01-12 09:30 6.22 1260 17300 (2020) 67 (1956) 964 97 142 209 228 477 882 1010 2320 2790
2021-01-12 08:30 6.24 1280 17300 (2020) 67 (1956) 964 97 142 209 228 477 882 1010 2320 2790
2021-01-12 07:30 6.24 1280 17300 (2020) 67 (1956) 964 97 142 209 228 477 882 1010 2320 2790
2021-01-12 06:30 6.25 1290 17300 (2020) 67 (1956) 964 97 142 209 228 477 882 1010 2320 2790
2021-01-12 05:30 6.24 1280 17300 (2020) 67 (1956) 964 97 142 209 228 477 882 1010 2320 2790
2021-01-12 04:30 6.24 1280 17300 (2020) 67 (1956) 964 97 142 209 228 477 882 1010 2320 2790
2021-01-12 03:30 6.26 1300 17300 (2020) 67 (1956) 964 97 142 209 228 477 882 1010 2320 2790
2021-01-12 02:30 6.27 1310 17300 (2020) 67 (1956) 964 97 142 209 228 477 882 1010 2320 2790
2021-01-12 01:30 6.27 1310 17300 (2020) 67 (1956) 964 97 142 209 228 477 882 1010 2320 2790
2021-01-12 00:30 6.27 1310 17300 (2020) 67 (1956) 964 97 142 209 228 477 882 1010 2320 2790
2021-01-11 23:30 6.27 1310 10600 (2020) 67 (1956) 929 99 142 210 227 490 905 981 2420 3520
2021-01-11 22:30 6.29 1320 10600 (2020) 67 (1956) 929 99 142 210 227 490 905 981 2420 3520
2021-01-11 21:30 6.30 1330 10600 (2020) 67 (1956) 929 99 142 210 227 490 905 981 2420 3520
2021-01-11 20:30 6.27 1310 10600 (2020) 67 (1956) 929 99 142 210 227 490 905 981 2420 3520
2021-01-11 19:30 6.31 1340 10600 (2020) 67 (1956) 929 99 142 210 227 490 905 981 2420 3520
2021-01-11 18:30 6.31 1340 10600 (2020) 67 (1956) 929 99 142 210 227 490 905 981 2420 3520
2021-01-11 17:30 6.30 1330 10600 (2020) 67 (1956) 929 99 142 210 227 490 905 981 2420 3520
2021-01-11 16:30 6.29 1320 10600 (2020) 67 (1956) 929 99 142 210 227 490 905 981 2420 3520
2021-01-11 15:30 6.31 1340 10600 (2020) 67 (1956) 929 99 142 210 227 490 905 981 2420 3520
2021-01-11 14:30 6.31 1340 10600 (2020) 67 (1956) 929 99 142 210 227 490 905 981 2420 3520
2021-01-11 13:30 6.31 1340 10600 (2020) 67 (1956) 929 99 142 210 227 490 905 981 2420 3520
2021-01-11 12:30 6.32 1350 10600 (2020) 67 (1956) 929 99 142 210 227 490 905 981 2420 3520
2021-01-11 11:30 6.35 1380 10600 (2020) 67 (1956) 929 99 142 210 227 490 905 981 2420 3520
2021-01-11 10:30 6.35 1380 10600 (2020) 67 (1956) 929 99 142 210 227 490 905 981 2420 3520
2021-01-11 09:30 6.31 1340 10600 (2020) 67 (1956) 929 99 142 210 227 490 905 981 2420 3520
2021-01-11 08:30 6.33 1360 10600 (2020) 67 (1956) 929 99 142 210 227 490 905 981 2420 3520
2021-01-11 07:30 6.33 1360 10600 (2020) 67 (1956) 929 99 142 210 227 490 905 981 2420 3520
2021-01-11 06:30 6.35 1380 10600 (2020) 67 (1956) 929 99 142 210 227 490 905 981 2420 3520
2021-01-11 05:30 6.34 1370 10600 (2020) 67 (1956) 929 99 142 210 227 490 905 981 2420 3520
2021-01-11 04:30 6.35 1380 10600 (2020) 67 (1956) 929 99 142 210 227 490 905 981 2420 3520
2021-01-11 03:30 6.36 1390 10600 (2020) 67 (1956) 929 99 142 210 227 490 905 981 2420 3520
2021-01-11 02:30 6.37 1400 10600 (2020) 67 (1956) 929 99 142 210 227 490 905 981 2420 3520
2021-01-11 01:30 6.37 1400 10600 (2020) 67 (1956) 929 99 142 210 227 490 905 981 2420 3520
2021-01-11 00:30 6.38 1410 10600 (2020) 67 (1956) 929 99 142 210 227 490 905 981 2420 3520
2021-01-10 23:30 6.38 1410 8220 (1937) 67 (1956) 870 103 143 211 228 505 960 1080 1980 2910
2021-01-10 22:30 6.39 1420 8220 (1937) 67 (1956) 870 103 143 211 228 505 960 1080 1980 2910
2021-01-10 21:30 6.40 1430 8220 (1937) 67 (1956) 870 103 143 211 228 505 960 1080 1980 2910
2021-01-10 20:30 6.41 1440 8220 (1937) 67 (1956) 870 103 143 211 228 505 960 1080 1980 2910
2021-01-10 19:30 6.40 1430 8220 (1937) 67 (1956) 870 103 143 211 228 505 960 1080 1980 2910
2021-01-10 18:30 6.41 1440 8220 (1937) 67 (1956) 870 103 143 211 228 505 960 1080 1980 2910
2021-01-10 17:30 6.43 1460 8220 (1937) 67 (1956) 870 103 143 211 228 505 960 1080 1980 2910
2021-01-10 16:30 6.42 1450 8220 (1937) 67 (1956) 870 103 143 211 228 505 960 1080 1980 2910
2021-01-10 15:30 6.41 1440 8220 (1937) 67 (1956) 870 103 143 211 228 505 960 1080 1980 2910
2021-01-10 14:30 6.44 1470 8220 (1937) 67 (1956) 870 103 143 211 228 505 960 1080 1980 2910
2021-01-10 13:30 6.45 1480 8220 (1937) 67 (1956) 870 103 143 211 228 505 960 1080 1980 2910
2021-01-10 12:30 6.44 1470 8220 (1937) 67 (1956) 870 103 143 211 228 505 960 1080 1980 2910
2021-01-10 11:30 6.48 1510 8220 (1937) 67 (1956) 870 103 143 211 228 505 960 1080 1980 2910
2021-01-10 10:30 6.48 1510 8220 (1937) 67 (1956) 870 103 143 211 228 505 960 1080 1980 2910
2021-01-10 09:30 6.51 1540 8220 (1937) 67 (1956) 870 103 143 211 228 505 960 1080 1980 2910
2021-01-10 08:30 6.52 1550 8220 (1937) 67 (1956) 870 103 143 211 228 505 960 1080 1980 2910
2021-01-10 07:30 6.50 1530 8220 (1937) 67 (1956) 870 103 143 211 228 505 960 1080 1980 2910
2021-01-10 06:30 6.52 1550 8220 (1937) 67 (1956) 870 103 143 211 228 505 960 1080 1980 2910
2021-01-10 05:30 6.55 1580 8220 (1937) 67 (1956) 870 103 143 211 228 505 960 1080 1980 2910
2021-01-10 04:30 6.55 1580 8220 (1937) 67 (1956) 870 103 143 211 228 505 960 1080 1980 2910
2021-01-10 03:30 6.56 1590 8220 (1937) 67 (1956) 870 103 143 211 228 505 960 1080 1980 2910
2021-01-10 02:30 6.58 1610 8220 (1937) 67 (1956) 870 103 143 211 228 505 960 1080 1980 2910
2021-01-10 01:30 6.58 1610 8220 (1937) 67 (1956) 870 103 143 211 228 505 960 1080 1980 2910
2021-01-10 00:30 6.57 1600 8220 (1937) 67 (1956) 870 103 143 211 228 505 960 1080 1980 2910
2021-01-09 23:30 6.58 1610 10900 (1998) 67 (1956) 880 105 141 212 235 505 970 1140 1970 3040
2021-01-09 22:30 6.64 1670 10900 (1998) 67 (1956) 880 105 141 212 235 505 970 1140 1970 3040
2021-01-09 20:30 6.62 1650 10900 (1998) 67 (1956) 880 105 141 212 235 505 970 1140 1970 3040
2021-01-09 19:30 6.66 1690 10900 (1998) 67 (1956) 880 105 141 212 235 505 970 1140 1970 3040
2021-01-09 18:30 6.67 1700 10900 (1998) 67 (1956) 880 105 141 212 235 505 970 1140 1970 3040
2021-01-09 17:30 6.66 1690 10900 (1998) 67 (1956) 880 105 141 212 235 505 970 1140 1970 3040
2021-01-09 16:30 6.67 1700 10900 (1998) 67 (1956) 880 105 141 212 235 505 970 1140 1970 3040
2021-01-09 15:30 6.69 1720 10900 (1998) 67 (1956) 880 105 141 212 235 505 970 1140 1970 3040
2021-01-09 14:30 6.70 1730 10900 (1998) 67 (1956) 880 105 141 212 235 505 970 1140 1970 3040
2021-01-09 13:30 6.70 1730 10900 (1998) 67 (1956) 880 105 141 212 235 505 970 1140 1970 3040
2021-01-09 12:30 6.72 1760 10900 (1998) 67 (1956) 880 105 141 212 235 505 970 1140 1970 3040
2021-01-09 11:30 6.74 1780 10900 (1998) 67 (1956) 880 105 141 212 235 505 970 1140 1970 3040
2021-01-09 10:30 6.73 1770 10900 (1998) 67 (1956) 880 105 141 212 235 505 970 1140 1970 3040
2021-01-09 09:30 6.78 1820 10900 (1998) 67 (1956) 880 105 141 212 235 505 970 1140 1970 3040
2021-01-09 08:30 6.72 1760 10900 (1998) 67 (1956) 880 105 141 212 235 505 970 1140 1970 3040
2021-01-09 07:30 6.78 1820 10900 (1998) 67 (1956) 880 105 141 212 235 505 970 1140 1970 3040
2021-01-09 06:30 6.78 1820 10900 (1998) 67 (1956) 880 105 141 212 235 505 970 1140 1970 3040
2021-01-09 05:30 6.79 1830 10900 (1998) 67 (1956) 880 105 141 212 235 505 970 1140 1970 3040
2021-01-09 04:30 6.81 1860 10900 (1998) 67 (1956) 880 105 141 212 235 505 970 1140 1970 3040
2021-01-09 03:30 6.83 1880 10900 (1998) 67 (1956) 880 105 141 212 235 505 970 1140 1970 3040
2021-01-09 02:30 6.82 1870 10900 (1998) 67 (1956) 880 105 141 212 235 505 970 1140 1970 3040
2021-01-09 01:30 6.84 1890 10900 (1998) 67 (1956) 880 105 141 212 235 505 970 1140 1970 3040
2021-01-09 00:30 6.85 1900 10900 (1998) 67 (1956) 880 105 141 212 235 505 970 1140 1970 3040
2021-01-08 23:30 6.83 1880 8080 (1998) 69 (1956) 860 108 149 219 241 528 997 1250 1740 2470
2021-01-08 22:30 6.84 1890 8080 (1998) 69 (1956) 860 108 149 219 241 528 997 1250 1740 2470
2021-01-08 21:30 6.84 1890 8080 (1998) 69 (1956) 860 108 149 219 241 528 997 1250 1740 2470
2021-01-08 20:30 6.82 1870 8080 (1998) 69 (1956) 860 108 149 219 241 528 997 1250 1740 2470
2021-01-08 19:30 6.81 1860 8080 (1998) 69 (1956) 860 108 149 219 241 528 997 1250 1740 2470
2021-01-08 18:30 6.79 1830 8080 (1998) 69 (1956) 860 108 149 219 241 528 997 1250 1740 2470
2021-01-08 17:30 6.77 1810 8080 (1998) 69 (1956) 860 108 149 219 241 528 997 1250 1740 2470
2021-01-08 16:30 6.75 1790 8080 (1998) 69 (1956) 860 108 149 219 241 528 997 1250 1740 2470
2021-01-08 15:30 6.71 1750 8080 (1998) 69 (1956) 860 108 149 219 241 528 997 1250 1740 2470
2021-01-08 14:30 6.68 1710 8080 (1998) 69 (1956) 860 108 149 219 241 528 997 1250 1740 2470
2021-01-08 13:30 6.67 1700 8080 (1998) 69 (1956) 860 108 149 219 241 528 997 1250 1740 2470
2021-01-08 12:30 6.62 1650 8080 (1998) 69 (1956) 860 108 149 219 241 528 997 1250 1740 2470
2021-01-08 11:30 6.58 1610 8080 (1998) 69 (1956) 860 108 149 219 241 528 997 1250 1740 2470
2021-01-08 10:30 6.54 1570 8080 (1998) 69 (1956) 860 108 149 219 241 528 997 1250 1740 2470
2021-01-08 09:30 6.52 1550 8080 (1998) 69 (1956) 860 108 149 219 241 528 997 1250 1740 2470
2021-01-08 08:30 6.50 1530 8080 (1998) 69 (1956) 860 108 149 219 241 528 997 1250 1740 2470
2021-01-08 07:30 6.43 1460 8080 (1998) 69 (1956) 860 108 149 219 241 528 997 1250 1740 2470
2021-01-08 06:30 6.42 1450 8080 (1998) 69 (1956) 860 108 149 219 241 528 997 1250 1740 2470
2021-01-08 05:30 6.37 1400 8080 (1998) 69 (1956) 860 108 149 219 241 528 997 1250 1740 2470
2021-01-08 04:30 6.40 1430 8080 (1998) 69 (1956) 860 108 149 219 241 528 997 1250 1740 2470
2021-01-08 03:30 6.36 1390 8080 (1998) 69 (1956) 860 108 149 219 241 528 997 1250 1740 2470
2021-01-08 02:30 6.35 1380 8080 (1998) 69 (1956) 860 108 149 219 241 528 997 1250 1740 2470
2021-01-08 01:30 6.33 1360 8080 (1998) 69 (1956) 860 108 149 219 241 528 997 1250 1740 2470
2021-01-08 00:30 6.32 1350 8080 (1998) 69 (1956) 860 108 149 219 241 528 997 1250 1740 2470
2021-01-07 23:30 6.34 1370 11100 (2005) 69 (1956) 965 102 147 223 246 540 970 1210 2090 2900
2021-01-07 22:30 6.31 1340 11100 (2005) 69 (1956) 965 102 147 223 246 540 970 1210 2090 2900
2021-01-07 21:30 6.31 1340 11100 (2005) 69 (1956) 965 102 147 223 246 540 970 1210 2090 2900
2021-01-07 20:30 6.31 1340 11100 (2005) 69 (1956) 965 102 147 223 246 540 970 1210 2090 2900
2021-01-07 19:30 6.33 1360 11100 (2005) 69 (1956) 965 102 147 223 246 540 970 1210 2090 2900
2021-01-07 18:30 6.32 1350 11100 (2005) 69 (1956) 965 102 147 223 246 540 970 1210 2090 2900
2021-01-07 17:30 6.33 1360 11100 (2005) 69 (1956) 965 102 147 223 246 540 970 1210 2090 2900
2021-01-07 16:30 6.32 1350 11100 (2005) 69 (1956) 965 102 147 223 246 540 970 1210 2090 2900
2021-01-07 15:30 6.34 1370 11100 (2005) 69 (1956) 965 102 147 223 246 540 970 1210 2090 2900
2021-01-07 14:30 6.32 1350 11100 (2005) 69 (1956) 965 102 147 223 246 540 970 1210 2090 2900
2021-01-07 13:30 6.35 1380 11100 (2005) 69 (1956) 965 102 147 223 246 540 970 1210 2090 2900
2021-01-07 12:30 6.34 1370 11100 (2005) 69 (1956) 965 102 147 223 246 540 970 1210 2090 2900
2021-01-07 11:30 6.37 1400 11100 (2005) 69 (1956) 965 102 147 223 246 540 970 1210 2090 2900
2021-01-07 10:30 6.35 1380 11100 (2005) 69 (1956) 965 102 147 223 246 540 970 1210 2090 2900
2021-01-07 09:30 6.36 1390 11100 (2005) 69 (1956) 965 102 147 223 246 540 970 1210 2090 2900
2021-01-07 08:30 6.37 1400 11100 (2005) 69 (1956) 965 102 147 223 246 540 970 1210 2090 2900
2021-01-07 07:30 6.37 1400 11100 (2005) 69 (1956) 965 102 147 223 246 540 970 1210 2090 2900
2021-01-07 06:30 6.37 1400 11100 (2005) 69 (1956) 965 102 147 223 246 540 970 1210 2090 2900
2021-01-07 05:30 6.36 1390 11100 (2005) 69 (1956) 965 102 147 223 246 540 970 1210 2090 2900
2021-01-07 04:30 6.37 1400 11100 (2005) 69 (1956) 965 102 147 223 246 540 970 1210 2090 2900
2021-01-07 03:30 6.38 1410 11100 (2005) 69 (1956) 965 102 147 223 246 540 970 1210 2090 2900
2021-01-07 02:30 6.40 1430 11100 (2005) 69 (1956) 965 102 147 223 246 540 970 1210 2090 2900
2021-01-07 01:30 6.41 1440 11100 (2005) 69 (1956) 965 102 147 223 246 540 970 1210 2090 2900
2021-01-07 00:30 6.40 1430 11100 (2005) 69 (1956) 965 102 147 223 246 540 970 1210 2090 2900
2021-01-06 23:30 6.39 1420 20100 (1998) 69 (1956) 1270 102 143 231 253 566 1080 1300 2080 3870
2021-01-06 22:30 6.41 1440 20100 (1998) 69 (1956) 1270 102 143 231 253 566 1080 1300 2080 3870
2021-01-06 21:30 6.42 1450 20100 (1998) 69 (1956) 1270 102 143 231 253 566 1080 1300 2080 3870
2021-01-06 20:30 6.43 1460 20100 (1998) 69 (1956) 1270 102 143 231 253 566 1080 1300 2080 3870
2021-01-06 19:30 6.44 1470 20100 (1998) 69 (1956) 1270 102 143 231 253 566 1080 1300 2080 3870
2021-01-06 18:30 6.48 1510 20100 (1998) 69 (1956) 1270 102 143 231 253 566 1080 1300 2080 3870
2021-01-06 17:30 6.46 1490 20100 (1998) 69 (1956) 1270 102 143 231 253 566 1080 1300 2080 3870
2021-01-06 16:30 6.44 1470 20100 (1998) 69 (1956) 1270 102 143 231 253 566 1080 1300 2080 3870
2021-01-06 15:30 6.46 1490 20100 (1998) 69 (1956) 1270 102 143 231 253 566 1080 1300 2080 3870
2021-01-06 14:30 6.49 1520 20100 (1998) 69 (1956) 1270 102 143 231 253 566 1080 1300 2080 3870
2021-01-06 13:30 6.49 1520 20100 (1998) 69 (1956) 1270 102 143 231 253 566 1080 1300 2080 3870
2021-01-06 12:30 6.48 1510 20100 (1998) 69 (1956) 1270 102 143 231 253 566 1080 1300 2080 3870
2021-01-06 11:30 6.51 1540 20100 (1998) 69 (1956) 1270 102 143 231 253 566 1080 1300 2080 3870
2021-01-06 10:30 6.50 1530 20100 (1998) 69 (1956) 1270 102 143 231 253 566 1080 1300 2080 3870
2021-01-06 09:30 6.52 1550 20100 (1998) 69 (1956) 1270 102 143 231 253 566 1080 1300 2080 3870
2021-01-06 08:30 6.53 1560 20100 (1998) 69 (1956) 1270 102 143 231 253 566 1080 1300 2080 3870
2021-01-06 07:30 6.52 1550 20100 (1998) 69 (1956) 1270 102 143 231 253 566 1080 1300 2080 3870
2021-01-06 06:30 6.53 1560 20100 (1998) 69 (1956) 1270 102 143 231 253 566 1080 1300 2080 3870
2021-01-06 05:30 6.53 1560 20100 (1998) 69 (1956) 1270 102 143 231 253 566 1080 1300 2080 3870
2021-01-06 04:30 6.55 1580 20100 (1998) 69 (1956) 1270 102 143 231 253 566 1080 1300 2080 3870
2021-01-06 03:30 6.57 1600 20100 (1998) 69 (1956) 1270 102 143 231 253 566 1080 1300 2080 3870
2021-01-06 02:30 6.59 1620 20100 (1998) 69 (1956) 1270 102 143 231 253 566 1080 1300 2080 3870
2021-01-06 01:30 6.59 1620 20100 (1998) 69 (1956) 1270 102 143 231 253 566 1080 1300 2080 3870
2021-01-06 00:30 6.63 1660 20100 (1998) 69 (1956) 1270 102 143 231 253 566 1080 1300 2080 3870
2021-01-05 23:30 6.65 1680 14900 (2005) 71 (1956) 1230 105 139 232 259 573 1230 1390 2490 5890
2021-01-05 22:30 6.63 1660 14900 (2005) 71 (1956) 1230 105 139 232 259 573 1230 1390 2490 5890
2021-01-05 21:30 6.64 1670 14900 (2005) 71 (1956) 1230 105 139 232 259 573 1230 1390 2490 5890
2021-01-05 20:30 6.67 1700 14900 (2005) 71 (1956) 1230 105 139 232 259 573 1230 1390 2490 5890
2021-01-05 19:30 6.66 1690 14900 (2005) 71 (1956) 1230 105 139 232 259 573 1230 1390 2490 5890
2021-01-05 18:30 6.67 1700 14900 (2005) 71 (1956) 1230 105 139 232 259 573 1230 1390 2490 5890
2021-01-05 17:30 6.68 1710 14900 (2005) 71 (1956) 1230 105 139 232 259 573 1230 1390 2490 5890
2021-01-05 16:30 6.67 1700 14900 (2005) 71 (1956) 1230 105 139 232 259 573 1230 1390 2490 5890
2021-01-05 15:30 6.67 1700 14900 (2005) 71 (1956) 1230 105 139 232 259 573 1230 1390 2490 5890
2021-01-05 14:30 6.71 1750 14900 (2005) 71 (1956) 1230 105 139 232 259 573 1230 1390 2490 5890
2021-01-05 13:30 6.72 1760 14900 (2005) 71 (1956) 1230 105 139 232 259 573 1230 1390 2490 5890
2021-01-05 12:30 6.75 1790 14900 (2005) 71 (1956) 1230 105 139 232 259 573 1230 1390 2490 5890
2021-01-05 11:30 6.74 1780 14900 (2005) 71 (1956) 1230 105 139 232 259 573 1230 1390 2490 5890
2021-01-05 10:30 6.78 1820 14900 (2005) 71 (1956) 1230 105 139 232 259 573 1230 1390 2490 5890
2021-01-05 09:30 6.78 1820 14900 (2005) 71 (1956) 1230 105 139 232 259 573 1230 1390 2490 5890
2021-01-05 08:30 6.77 1810 14900 (2005) 71 (1956) 1230 105 139 232 259 573 1230 1390 2490 5890
2021-01-05 07:30 6.79 1830 14900 (2005) 71 (1956) 1230 105 139 232 259 573 1230 1390 2490 5890
2021-01-05 06:30 6.84 1890 14900 (2005) 71 (1956) 1230 105 139 232 259 573 1230 1390 2490 5890
2021-01-05 05:30 6.87 1930 14900 (2005) 71 (1956) 1230 105 139 232 259 573 1230 1390 2490 5890
2021-01-05 04:30 6.89 1950 14900 (2005) 71 (1956) 1230 105 139 232 259 573 1230 1390 2490 5890
2021-01-05 03:30 6.88 1940 14900 (2005) 71 (1956) 1230 105 139 232 259 573 1230 1390 2490 5890
2021-01-05 02:30 6.89 1950 14900 (2005) 71 (1956) 1230 105 139 232 259 573 1230 1390 2490 5890
2021-01-05 01:30 6.92 1980 14900 (2005) 71 (1956) 1230 105 139 232 259 573 1230 1390 2490 5890
2021-01-05 00:30 6.95 2020 14900 (2005) 71 (1956) 1230 105 139 232 259 573 1230 1390 2490 5890
2021-01-04 23:30 6.97 2040 4510 (1985) 71 (1956) 873 105 142 233 259 594 1050 1300 2060 3390
2021-01-04 22:30 6.95 2020 4510 (1985) 71 (1956) 873 105 142 233 259 594 1050 1300 2060 3390
2021-01-04 21:30 6.99 2070 4510 (1985) 71 (1956) 873 105 142 233 259 594 1050 1300 2060 3390
2021-01-04 20:30 7.01 2090 4510 (1985) 71 (1956) 873 105 142 233 259 594 1050 1300 2060 3390
2021-01-04 19:30 6.98 2060 4510 (1985) 71 (1956) 873 105 142 233 259 594 1050 1300 2060 3390
2021-01-04 18:30 7.01 2090 4510 (1985) 71 (1956) 873 105 142 233 259 594 1050 1300 2060 3390
2021-01-04 17:30 6.99 2070 4510 (1985) 71 (1956) 873 105 142 233 259 594 1050 1300 2060 3390
2021-01-04 16:30 7.06 2160 4510 (1985) 71 (1956) 873 105 142 233 259 594 1050 1300 2060 3390
2021-01-04 15:30 7.07 2180 4510 (1985) 71 (1956) 873 105 142 233 259 594 1050 1300 2060 3390
2021-01-04 14:30 7.06 2160 4510 (1985) 71 (1956) 873 105 142 233 259 594 1050 1300 2060 3390
2021-01-04 13:30 7.08 2190 4510 (1985) 71 (1956) 873 105 142 233 259 594 1050 1300 2060 3390
2021-01-04 12:30 7.09 2210 4510 (1985) 71 (1956) 873 105 142 233 259 594 1050 1300 2060 3390
2021-01-04 11:30 7.14 2280 4510 (1985) 71 (1956) 873 105 142 233 259 594 1050 1300 2060 3390
2021-01-04 10:30 7.15 2290 4510 (1985) 71 (1956) 873 105 142 233 259 594 1050 1300 2060 3390
2021-01-04 09:30 7.18 2340 4510 (1985) 71 (1956) 873 105 142 233 259 594 1050 1300 2060 3390
2021-01-04 08:30 7.19 2350 4510 (1985) 71 (1956) 873 105 142 233 259 594 1050 1300 2060 3390
2021-01-04 07:30 7.21 2380 4510 (1985) 71 (1956) 873 105 142 233 259 594 1050 1300 2060 3390
2021-01-04 06:30 7.23 2410 4510 (1985) 71 (1956) 873 105 142 233 259 594 1050 1300 2060 3390
2021-01-04 05:30 7.25 2440 4510 (1985) 71 (1956) 873 105 142 233 259 594 1050 1300 2060 3390
2021-01-04 04:30 7.24 2430 4510 (1985) 71 (1956) 873 105 142 233 259 594 1050 1300 2060 3390
2021-01-04 03:30 7.32 2550 4510 (1985) 71 (1956) 873 105 142 233 259 594 1050 1300 2060 3390
2021-01-04 02:30 7.33 2560 4510 (1985) 71 (1956) 873 105 142 233 259 594 1050 1300 2060 3390
2021-01-04 01:30 7.40 2670 4510 (1985) 71 (1956) 873 105 142 233 259 594 1050 1300 2060 3390
2021-01-04 00:30 7.37 2630 4510 (1985) 71 (1956) 873 105 142 233 259 594 1050 1300 2060 3390
2021-01-03 23:30 7.40 2670 9620 (1941) 71 (1956) 923 104 143 220 246 580 1060 1160 1990 3210
2021-01-03 22:30 7.40 2670 9620 (1941) 71 (1956) 923 104 143 220 246 580 1060 1160 1990 3210
2021-01-03 21:30 7.48 2800 9620 (1941) 71 (1956) 923 104 143 220 246 580 1060 1160 1990 3210
2021-01-03 19:30 7.47 2790 9620 (1941) 71 (1956) 923 104 143 220 246 580 1060 1160 1990 3210
2021-01-03 18:30 7.48 2800 9620 (1941) 71 (1956) 923 104 143 220 246 580 1060 1160 1990 3210
2021-01-03 17:30 7.55 2900 9620 (1941) 71 (1956) 923 104 143 220 246 580 1060 1160 1990 3210
2021-01-03 16:30 7.57 2930 9620 (1941) 71 (1956) 923 104 143 220 246 580 1060 1160 1990 3210
2021-01-03 15:30 7.64 3020 9620 (1941) 71 (1956) 923 104 143 220 246 580 1060 1160 1990 3210
2021-01-03 14:30 7.70 3110 9620 (1941) 71 (1956) 923 104 143 220 246 580 1060 1160 1990 3210
2021-01-03 13:30 7.76 3190 9620 (1941) 71 (1956) 923 104 143 220 246 580 1060 1160 1990 3210
2021-01-03 12:30 7.77 3210 9620 (1941) 71 (1956) 923 104 143 220 246 580 1060 1160 1990 3210
2021-01-03 11:30 7.80 3250 9620 (1941) 71 (1956) 923 104 143 220 246 580 1060 1160 1990 3210
2021-01-03 10:30 7.83 3290 9620 (1941) 71 (1956) 923 104 143 220 246 580 1060 1160 1990 3210
2021-01-03 09:30 7.86 3340 9620 (1941) 71 (1956) 923 104 143 220 246 580 1060 1160 1990 3210
2021-01-03 08:30 7.92 3430 9620 (1941) 71 (1956) 923 104 143 220 246 580 1060 1160 1990 3210
2021-01-03 07:30 7.95 3470 9620 (1941) 71 (1956) 923 104 143 220 246 580 1060 1160 1990 3210
2021-01-03 06:30 8.02 3580 9620 (1941) 71 (1956) 923 104 143 220 246 580 1060 1160 1990 3210
2021-01-03 05:30 8.07 3650 9620 (1941) 71 (1956) 923 104 143 220 246 580 1060 1160 1990 3210
2021-01-03 04:30 8.18 3810 9620 (1941) 71 (1956) 923 104 143 220 246 580 1060 1160 1990 3210
2021-01-03 03:30 8.19 3830 9620 (1941) 71 (1956) 923 104 143 220 246 580 1060 1160 1990 3210
2021-01-03 01:30 8.35 4070 9620 (1941) 71 (1956) 923 104 143 220 246 580 1060 1160 1990 3210
2021-01-03 00:30 8.42 4170 9620 (1941) 71 (1956) 923 104 143 220 246 580 1060 1160 1990 3210
2021-01-02 23:30 8.51 4310 17700 (1985) 71 (1956) 1090 106 144 214 238 560 947 1270 2260 3620
2021-01-02 22:30 8.57 4410 17700 (1985) 71 (1956) 1090 106 144 214 238 560 947 1270 2260 3620
2021-01-02 21:30 8.64 4520 17700 (1985) 71 (1956) 1090 106 144 214 238 560 947 1270 2260 3620
2021-01-02 20:30 8.73 4660 17700 (1985) 71 (1956) 1090 106 144 214 238 560 947 1270 2260 3620
2021-01-02 19:30 8.84 4830 17700 (1985) 71 (1956) 1090 106 144 214 238 560 947 1270 2260 3620
2021-01-02 18:30 8.94 4980 17700 (1985) 71 (1956) 1090 106 144 214 238 560 947 1270 2260 3620
2021-01-02 17:30 9.03 5120 17700 (1985) 71 (1956) 1090 106 144 214 238 560 947 1270 2260 3620
2021-01-02 16:30 9.14 5300 17700 (1985) 71 (1956) 1090 106 144 214 238 560 947 1270 2260 3620
2021-01-02 15:30 9.25 5470 17700 (1985) 71 (1956) 1090 106 144 214 238 560 947 1270 2260 3620
2021-01-02 14:30 9.36 5640 17700 (1985) 71 (1956) 1090 106 144 214 238 560 947 1270 2260 3620
2021-01-02 13:30 9.45 5780 17700 (1985) 71 (1956) 1090 106 144 214 238 560 947 1270 2260 3620
2021-01-02 12:30 9.53 5910 17700 (1985) 71 (1956) 1090 106 144 214 238 560 947 1270 2260 3620
2021-01-02 11:30 9.62 6090 17700 (1985) 71 (1956) 1090 106 144 214 238 560 947 1270 2260 3620
2021-01-02 10:30 9.64 6120 17700 (1985) 71 (1956) 1090 106 144 214 238 560 947 1270 2260 3620
2021-01-02 09:30 9.60 6050 17700 (1985) 71 (1956) 1090 106 144 214 238 560 947 1270 2260 3620
2021-01-02 08:30 9.49 5840 17700 (1985) 71 (1956) 1090 106 144 214 238 560 947 1270 2260 3620
2021-01-02 07:30 9.32 5580 17700 (1985) 71 (1956) 1090 106 144 214 238 560 947 1270 2260 3620
2021-01-02 06:30 9.02 5110 17700 (1985) 71 (1956) 1090 106 144 214 238 560 947 1270 2260 3620
2021-01-02 05:30 8.75 4690 17700 (1985) 71 (1956) 1090 106 144 214 238 560 947 1270 2260 3620
2021-01-02 04:30 8.40 4140 17700 (1985) 71 (1956) 1090 106 144 214 238 560 947 1270 2260 3620
2021-01-02 03:30 8.05 3620 17700 (1985) 71 (1956) 1090 106 144 214 238 560 947 1270 2260 3620
2021-01-02 02:30 7.82 3280 17700 (1985) 71 (1956) 1090 106 144 214 238 560 947 1270 2260 3620
2021-01-02 01:30 7.64 3020 17700 (1985) 71 (1956) 1090 106 144 214 238 560 947 1270 2260 3620
2021-01-02 00:30 7.45 2750 17700 (1985) 71 (1956) 1090 106 144 214 238 560 947 1270 2260 3620
2021-01-01 23:30 7.28 2490 13100 (1985) 73 (1956) 968 108 136 216 239 582 1020 1290 2560 2990
2021-01-01 22:30 7.18 2340 13100 (1985) 73 (1956) 968 108 136 216 239 582 1020 1290 2560 2990
2021-01-01 21:30 7.09 2210 13100 (1985) 73 (1956) 968 108 136 216 239 582 1020 1290 2560 2990
2021-01-01 20:30 7.01 2090 13100 (1985) 73 (1956) 968 108 136 216 239 582 1020 1290 2560 2990
2021-01-01 19:30 7.02 2110 13100 (1985) 73 (1956) 968 108 136 216 239 582 1020 1290 2560 2990
2021-01-01 18:30 6.94 2010 13100 (1985) 73 (1956) 968 108 136 216 239 582 1020 1290 2560 2990
2021-01-01 17:30 6.93 2000 13100 (1985) 73 (1956) 968 108 136 216 239 582 1020 1290 2560 2990
2021-01-01 16:30 6.92 1980 13100 (1985) 73 (1956) 968 108 136 216 239 582 1020 1290 2560 2990
2021-01-01 15:30 6.89 1950 13100 (1985) 73 (1956) 968 108 136 216 239 582 1020 1290 2560 2990
2021-01-01 14:30 6.85 1900 13100 (1985) 73 (1956) 968 108 136 216 239 582 1020 1290 2560 2990
2021-01-01 13:30 6.83 1880 13100 (1985) 73 (1956) 968 108 136 216 239 582 1020 1290 2560 2990
2021-01-01 12:30 6.78 1820 13100 (1985) 73 (1956) 968 108 136 216 239 582 1020 1290 2560 2990
2021-01-01 11:30 6.73 1770 13100 (1985) 73 (1956) 968 108 136 216 239 582 1020 1290 2560 2990
2021-01-01 10:30 6.69 1720 13100 (1985) 73 (1956) 968 108 136 216 239 582 1020 1290 2560 2990
2021-01-01 09:30 6.65 1680 13100 (1985) 73 (1956) 968 108 136 216 239 582 1020 1290 2560 2990
2021-01-01 08:30 6.58 1610 13100 (1985) 73 (1956) 968 108 136 216 239 582 1020 1290 2560 2990
2021-01-01 07:30 6.53 1560 13100 (1985) 73 (1956) 968 108 136 216 239 582 1020 1290 2560 2990
2021-01-01 06:30 6.47 1500 13100 (1985) 73 (1956) 968 108 136 216 239 582 1020 1290 2560 2990
2021-01-01 05:30 6.36 1390 13100 (1985) 73 (1956) 968 108 136 216 239 582 1020 1290 2560 2990
2021-01-01 04:30 6.25 1290 13100 (1985) 73 (1956) 968 108 136 216 239 582 1020 1290 2560 2990
2021-01-01 03:30 6.17 1220 13100 (1985) 73 (1956) 968 108 136 216 239 582 1020 1290 2560 2990
2021-01-01 02:30 6.09 1150 13100 (1985) 73 (1956) 968 108 136 216 239 582 1020 1290 2560 2990
2021-01-01 01:30 6.02 1090 13100 (1985) 73 (1956) 968 108 136 216 239 582 1020 1290 2560 2990
2021-01-01 00:30 5.96 1050 13100 (1985) 73 (1956) 968 108 136 216 239 582 1020 1290 2560 2990
2020-12-31 23:30 5.87 976 5670 (2016) 73 (1956) 925 109 137 211 227 552 892 1310 2130 4310
2020-12-31 22:30 5.79 918 5670 (2016) 73 (1956) 925 109 137 211 227 552 892 1310 2130 4310
2020-12-31 21:30 5.70 855 5670 (2016) 73 (1956) 925 109 137 211 227 552 892 1310 2130 4310
2020-12-31 20:30 5.68 841 5670 (2016) 73 (1956) 925 109 137 211 227 552 892 1310 2130 4310
2020-12-31 19:30 5.63 807 5670 (2016) 73 (1956) 925 109 137 211 227 552 892 1310 2130 4310
2020-12-31 18:30 5.59 781 5670 (2016) 73 (1956) 925 109 137 211 227 552 892 1310 2130 4310
2020-12-31 17:30 5.57 768 5670 (2016) 73 (1956) 925 109 137 211 227 552 892 1310 2130 4310
2020-12-31 16:30 5.57 768 5670 (2016) 73 (1956) 925 109 137 211 227 552 892 1310 2130 4310
2020-12-31 15:30 5.56 762 5670 (2016) 73 (1956) 925 109 137 211 227 552 892 1310 2130 4310
2020-12-31 14:30 5.53 743 5670 (2016) 73 (1956) 925 109 137 211 227 552 892 1310 2130 4310
2020-12-31 13:30 5.53 743 5670 (2016) 73 (1956) 925 109 137 211 227 552 892 1310 2130 4310
2020-12-31 12:30 5.54 749 5670 (2016) 73 (1956) 925 109 137 211 227 552 892 1310 2130 4310
2020-12-31 11:30 5.53 743 5670 (2016) 73 (1956) 925 109 137 211 227 552 892 1310 2130 4310
2020-12-31 10:30 5.52 737 5670 (2016) 73 (1956) 925 109 137 211 227 552 892 1310 2130 4310
2020-12-31 09:30 5.52 737 5670 (2016) 73 (1956) 925 109 137 211 227 552 892 1310 2130 4310
2020-12-31 08:30 5.51 730 5670 (2016) 73 (1956) 925 109 137 211 227 552 892 1310 2130 4310
2020-12-31 07:30 5.52 737 5670 (2016) 73 (1956) 925 109 137 211 227 552 892 1310 2130 4310
2020-12-31 06:30 5.50 724 5670 (2016) 73 (1956) 925 109 137 211 227 552 892 1310 2130 4310
2020-12-31 05:30 5.51 730 5670 (2016) 73 (1956) 925 109 137 211 227 552 892 1310 2130 4310
2020-12-31 04:30 5.52 737 5670 (2016) 73 (1956) 925 109 137 211 227 552 892 1310 2130 4310
2020-12-31 03:30 5.51 730 5670 (2016) 73 (1956) 925 109 137 211 227 552 892 1310 2130 4310
2020-12-31 02:30 5.49 718 5670 (2016) 73 (1956) 925 109 137 211 227 552 892 1310 2130 4310
2020-12-31 01:30 5.49 718 5670 (2016) 73 (1956) 925 109 137 211 227 552 892 1310 2130 4310
2020-12-31 00:30 5.49 718 5670 (2016) 73 (1956) 925 109 137 211 227 552 892 1310 2130 4310
2020-12-30 23:30 5.48 712 10100 (2016) 73 (1956) 988 112 139 207 232 495 946 1190 2310 4170
2020-12-30 22:30 5.49 718 10100 (2016) 73 (1956) 988 112 139 207 232 495 946 1190 2310 4170
2020-12-30 21:30 5.48 712 10100 (2016) 73 (1956) 988 112 139 207 232 495 946 1190 2310 4170
2020-12-30 20:30 5.47 706 10100 (2016) 73 (1956) 988 112 139 207 232 495 946 1190 2310 4170
2020-12-30 19:30 5.49 718 10100 (2016) 73 (1956) 988 112 139 207 232 495 946 1190 2310 4170
2020-12-30 18:30 5.48 712 10100 (2016) 73 (1956) 988 112 139 207 232 495 946 1190 2310 4170
2020-12-30 17:30 5.48 712 10100 (2016) 73 (1956) 988 112 139 207 232 495 946 1190 2310 4170
2020-12-30 16:30 5.48 712 10100 (2016) 73 (1956) 988 112 139 207 232 495 946 1190 2310 4170
2020-12-30 15:30 5.46 700 10100 (2016) 73 (1956) 988 112 139 207 232 495 946 1190 2310 4170
2020-12-30 14:30 5.47 706 10100 (2016) 73 (1956) 988 112 139 207 232 495 946 1190 2310 4170
2020-12-30 13:30 5.46 700 10100 (2016) 73 (1956) 988 112 139 207 232 495 946 1190 2310 4170
2020-12-30 12:30 5.47 706 10100 (2016) 73 (1956) 988 112 139 207 232 495 946 1190 2310 4170
2020-12-30 11:30 5.45 694 10100 (2016) 73 (1956) 988 112 139 207 232 495 946 1190 2310 4170
2020-12-30 10:30 5.45 694 10100 (2016) 73 (1956) 988 112 139 207 232 495 946 1190 2310 4170
2020-12-30 09:30 5.45 694 10100 (2016) 73 (1956) 988 112 139 207 232 495 946 1190 2310 4170
2020-12-30 08:30 5.43 682 10100 (2016) 73 (1956) 988 112 139 207 232 495 946 1190 2310 4170
2020-12-30 07:30 5.43 682 10100 (2016) 73 (1956) 988 112 139 207 232 495 946 1190 2310 4170
2020-12-30 06:30 5.43 682 10100 (2016) 73 (1956) 988 112 139 207 232 495 946 1190 2310 4170
2020-12-30 05:30 5.41 670 10100 (2016) 73 (1956) 988 112 139 207 232 495 946 1190 2310 4170
2020-12-30 04:30 5.38 653 10100 (2016) 73 (1956) 988 112 139 207 232 495 946 1190 2310 4170
2020-12-30 03:30 5.39 659 10100 (2016) 73 (1956) 988 112 139 207 232 495 946 1190 2310 4170
2020-12-30 02:30 5.36 641 10100 (2016) 73 (1956) 988 112 139 207 232 495 946 1190 2310 4170
2020-12-30 01:30 5.34 630 10100 (2016) 73 (1956) 988 112 139 207 232 495 946 1190 2310 4170
2020-12-30 00:30 5.33 624 10100 (2016) 73 (1956) 988 112 139 207 232 495 946 1190 2310 4170
2020-12-29 23:30 5.34 630 45300 (2016) 73 (1956) 1550 111 143 203 237 458 985 1150 2120 5760
2020-12-29 22:30 5.36 641 45300 (2016) 73 (1956) 1550 111 143 203 237 458 985 1150 2120 5760
2020-12-29 21:30 5.36 641 45300 (2016) 73 (1956) 1550 111 143 203 237 458 985 1150 2120 5760
2020-12-29 20:30 5.36 641 45300 (2016) 73 (1956) 1550 111 143 203 237 458 985 1150 2120 5760
2020-12-29 19:30 5.36 641 45300 (2016) 73 (1956) 1550 111 143 203 237 458 985 1150 2120 5760
2020-12-29 18:30 5.35 636 45300 (2016) 73 (1956) 1550 111 143 203 237 458 985 1150 2120 5760
2020-12-29 17:30 5.34 630 45300 (2016) 73 (1956) 1550 111 143 203 237 458 985 1150 2120 5760
2020-12-29 16:30 5.36 641 45300 (2016) 73 (1956) 1550 111 143 203 237 458 985 1150 2120 5760
2020-12-29 15:30 5.35 636 45300 (2016) 73 (1956) 1550 111 143 203 237 458 985 1150 2120 5760
2020-12-29 14:30 5.34 630 45300 (2016) 73 (1956) 1550 111 143 203 237 458 985 1150 2120 5760
2020-12-29 13:30 5.35 636 45300 (2016) 73 (1956) 1550 111 143 203 237 458 985 1150 2120 5760
2020-12-29 12:30 5.36 641 45300 (2016) 73 (1956) 1550 111 143 203 237 458 985 1150 2120 5760
2020-12-29 11:30 5.37 647 45300 (2016) 73 (1956) 1550 111 143 203 237 458 985 1150 2120 5760
2020-12-29 10:30 5.37 647 45300 (2016) 73 (1956) 1550 111 143 203 237 458 985 1150 2120 5760
2020-12-29 09:30 5.37 647 45300 (2016) 73 (1956) 1550 111 143 203 237 458 985 1150 2120 5760
2020-12-29 08:30 5.38 653 45300 (2016) 73 (1956) 1550 111 143 203 237 458 985 1150 2120 5760
2020-12-29 07:30 5.36 641 45300 (2016) 73 (1956) 1550 111 143 203 237 458 985 1150 2120 5760
2020-12-29 06:30 5.37 647 45300 (2016) 73 (1956) 1550 111 143 203 237 458 985 1150 2120 5760
2020-12-29 05:30 5.38 653 45300 (2016) 73 (1956) 1550 111 143 203 237 458 985 1150 2120 5760
2020-12-29 04:30 5.36 641 45300 (2016) 73 (1956) 1550 111 143 203 237 458 985 1150 2120 5760
2020-12-29 03:30 5.36 641 45300 (2016) 73 (1956) 1550 111 143 203 237 458 985 1150 2120 5760
2020-12-29 02:30 5.37 647 45300 (2016) 73 (1956) 1550 111 143 203 237 458 985 1150 2120 5760
2020-12-29 01:30 5.38 653 45300 (2016) 73 (1956) 1550 111 143 203 237 458 985 1150 2120 5760
2020-12-29 00:30 5.38 653 45300 (2016) 73 (1956) 1550 111 143 203 237 458 985 1150 2120 5760
2020-12-28 23:30 5.37 647 107000 (2016) 73 (1956) 2330 114 145 202 228 473 868 1080 2000 4890
2020-12-28 22:30 5.38 653 107000 (2016) 73 (1956) 2330 114 145 202 228 473 868 1080 2000 4890
2020-12-28 21:30 5.38 653 107000 (2016) 73 (1956) 2330 114 145 202 228 473 868 1080 2000 4890
2020-12-28 20:30 5.37 647 107000 (2016) 73 (1956) 2330 114 145 202 228 473 868 1080 2000 4890
2020-12-28 19:30 5.37 647 107000 (2016) 73 (1956) 2330 114 145 202 228 473 868 1080 2000 4890
2020-12-28 18:30 5.36 641 107000 (2016) 73 (1956) 2330 114 145 202 228 473 868 1080 2000 4890
2020-12-28 17:30 5.38 653 107000 (2016) 73 (1956) 2330 114 145 202 228 473 868 1080 2000 4890
2020-12-28 16:30 5.37 647 107000 (2016) 73 (1956) 2330 114 145 202 228 473 868 1080 2000 4890
2020-12-28 15:30 5.37 647 107000 (2016) 73 (1956) 2330 114 145 202 228 473 868 1080 2000 4890
2020-12-28 14:30 5.38 653 107000 (2016) 73 (1956) 2330 114 145 202 228 473 868 1080 2000 4890
2020-12-28 13:30 5.36 641 107000 (2016) 73 (1956) 2330 114 145 202 228 473 868 1080 2000 4890
2020-12-28 12:30 5.37 647 107000 (2016) 73 (1956) 2330 114 145 202 228 473 868 1080 2000 4890
2020-12-28 11:30 5.38 653 107000 (2016) 73 (1956) 2330 114 145 202 228 473 868 1080 2000 4890
2020-12-28 10:30 5.38 653 107000 (2016) 73 (1956) 2330 114 145 202 228 473 868 1080 2000 4890
2020-12-28 09:30 5.38 653 107000 (2016) 73 (1956) 2330 114 145 202 228 473 868 1080 2000 4890
2020-12-28 08:30 5.39 659 107000 (2016) 73 (1956) 2330 114 145 202 228 473 868 1080 2000 4890
2020-12-28 07:30 5.39 659 107000 (2016) 73 (1956) 2330 114 145 202 228 473 868 1080 2000 4890
2020-12-28 06:30 5.38 653 107000 (2016) 73 (1956) 2330 114 145 202 228 473 868 1080 2000 4890
2020-12-28 05:30 5.38 653 107000 (2016) 73 (1956) 2330 114 145 202 228 473 868 1080 2000 4890
2020-12-28 04:30 5.39 659 107000 (2016) 73 (1956) 2330 114 145 202 228 473 868 1080 2000 4890
2020-12-28 03:30 5.41 670 107000 (2016) 73 (1956) 2330 114 145 202 228 473 868 1080 2000 4890
2020-12-28 02:30 5.38 653 107000 (2016) 73 (1956) 2330 114 145 202 228 473 868 1080 2000 4890
2020-12-28 01:30 5.40 664 107000 (2016) 73 (1956) 2330 114 145 202 228 473 868 1080 2000 4890
2020-12-28 00:30 5.40 664 107000 (2016) 73 (1956) 2330 114 145 202 228 473 868 1080 2000 4890
2020-12-27 23:30 5.42 676 31700 (2016) 73 (1956) 1280 102 144 199 224 486 856 1030 1830 2870
2020-12-27 22:30 5.40 664 31700 (2016) 73 (1956) 1280 102 144 199 224 486 856 1030 1830 2870
2020-12-27 21:30 5.41 670 31700 (2016) 73 (1956) 1280 102 144 199 224 486 856 1030 1830 2870
2020-12-27 20:30 5.41 670 31700 (2016) 73 (1956) 1280 102 144 199 224 486 856 1030 1830 2870
2020-12-27 19:30 5.40 664 31700 (2016) 73 (1956) 1280 102 144 199 224 486 856 1030 1830 2870
2020-12-27 18:30 5.39 659 31700 (2016) 73 (1956) 1280 102 144 199 224 486 856 1030 1830 2870
2020-12-27 17:30 5.40 664 31700 (2016) 73 (1956) 1280 102 144 199 224 486 856 1030 1830 2870
2020-12-27 16:30 5.40 664 31700 (2016) 73 (1956) 1280 102 144 199 224 486 856 1030 1830 2870
2020-12-27 15:30 5.41 670 31700 (2016) 73 (1956) 1280 102 144 199 224 486 856 1030 1830 2870
2020-12-27 14:30 5.41 670 31700 (2016) 73 (1956) 1280 102 144 199 224 486 856 1030 1830 2870
2020-12-27 13:30 5.40 664 31700 (2016) 73 (1956) 1280 102 144 199 224 486 856 1030 1830 2870
2020-12-27 12:30 5.42 676 31700 (2016) 73 (1956) 1280 102 144 199 224 486 856 1030 1830 2870
2020-12-27 11:30 5.42 676 31700 (2016) 73 (1956) 1280 102 144 199 224 486 856 1030 1830 2870
2020-12-27 10:30 5.42 676 31700 (2016) 73 (1956) 1280 102 144 199 224 486 856 1030 1830 2870
2020-12-27 09:30 5.43 682 31700 (2016) 73 (1956) 1280 102 144 199 224 486 856 1030 1830 2870
2020-12-27 08:30 5.43 682 31700 (2016) 73 (1956) 1280 102 144 199 224 486 856 1030 1830 2870
2020-12-27 07:30 5.43 682 31700 (2016) 73 (1956) 1280 102 144 199 224 486 856 1030 1830 2870
2020-12-27 06:30 5.44 688 31700 (2016) 73 (1956) 1280 102 144 199 224 486 856 1030 1830 2870
2020-12-27 05:30 5.43 682 31700 (2016) 73 (1956) 1280 102 144 199 224 486 856 1030 1830 2870
2020-12-27 04:30 5.43 682 31700 (2016) 73 (1956) 1280 102 144 199 224 486 856 1030 1830 2870
2020-12-27 03:30 5.46 700 31700 (2016) 73 (1956) 1280 102 144 199 224 486 856 1030 1830 2870
2020-12-27 02:30 5.43 682 31700 (2016) 73 (1956) 1280 102 144 199 224 486 856 1030 1830 2870
2020-12-27 01:30 5.43 682 31700 (2016) 73 (1956) 1280 102 144 199 224 486 856 1030 1830 2870
2020-12-27 00:30 5.43 682 31700 (2016) 73 (1956) 1280 102 144 199 224 486 856 1030 1830 2870
2020-12-26 23:30 5.43 682 14300 (1988) 73 (1956) 838 101 134 202 224 502 739 942 1780 2850
2020-12-26 22:30 5.44 688 14300 (1988) 73 (1956) 838 101 134 202 224 502 739 942 1780 2850
2020-12-26 21:30 5.44 688 14300 (1988) 73 (1956) 838 101 134 202 224 502 739 942 1780 2850
2020-12-26 20:30 5.45 694 14300 (1988) 73 (1956) 838 101 134 202 224 502 739 942 1780 2850
2020-12-26 19:30 5.44 688 14300 (1988) 73 (1956) 838 101 134 202 224 502 739 942 1780 2850
2020-12-26 18:30 5.45 694 14300 (1988) 73 (1956) 838 101 134 202 224 502 739 942 1780 2850
2020-12-26 17:30 5.45 694 14300 (1988) 73 (1956) 838 101 134 202 224 502 739 942 1780 2850
2020-12-26 16:30 5.45 694 14300 (1988) 73 (1956) 838 101 134 202 224 502 739 942 1780 2850
2020-12-26 15:30 5.46 700 14300 (1988) 73 (1956) 838 101 134 202 224 502 739 942 1780 2850
2020-12-26 14:30 5.46 700 14300 (1988) 73 (1956) 838 101 134 202 224 502 739 942 1780 2850
2020-12-26 13:30 5.46 700 14300 (1988) 73 (1956) 838 101 134 202 224 502 739 942 1780 2850
2020-12-26 12:30 5.48 712 14300 (1988) 73 (1956) 838 101 134 202 224 502 739 942 1780 2850
2020-12-26 11:30 5.47 706 14300 (1988) 73 (1956) 838 101 134 202 224 502 739 942 1780 2850
2020-12-26 10:30 5.47 706 14300 (1988) 73 (1956) 838 101 134 202 224 502 739 942 1780 2850
2020-12-26 09:30 5.46 700 14300 (1988) 73 (1956) 838 101 134 202 224 502 739 942 1780 2850
2020-12-26 08:30 5.48 712 14300 (1988) 73 (1956) 838 101 134 202 224 502 739 942 1780 2850
2020-12-26 07:30 5.48 712 14300 (1988) 73 (1956) 838 101 134 202 224 502 739 942 1780 2850
2020-12-26 06:30 5.49 718 14300 (1988) 73 (1956) 838 101 134 202 224 502 739 942 1780 2850
2020-12-26 05:30 5.49 718 14300 (1988) 73 (1956) 838 101 134 202 224 502 739 942 1780 2850
2020-12-26 04:30 5.48 712 14300 (1988) 73 (1956) 838 101 134 202 224 502 739 942 1780 2850
2020-12-26 03:30 5.48 712 14300 (1988) 73 (1956) 838 101 134 202 224 502 739 942 1780 2850
2020-12-26 02:30 5.50 724 14300 (1988) 73 (1956) 838 101 134 202 224 502 739 942 1780 2850
2020-12-26 01:30 5.49 718 14300 (1988) 73 (1956) 838 101 134 202 224 502 739 942 1780 2850
2020-12-26 00:30 5.48 712 14300 (1988) 73 (1956) 838 101 134 202 224 502 739 942 1780 2850
2020-12-25 23:30 5.49 718 4090 (1974) 73 (1956) 725 103 131 200 221 504 817 964 1650 3360
2020-12-25 22:30 5.49 718 4090 (1974) 73 (1956) 725 103 131 200 221 504 817 964 1650 3360
2020-12-25 21:30 5.49 718 4090 (1974) 73 (1956) 725 103 131 200 221 504 817 964 1650 3360
2020-12-25 20:30 5.48 712 4090 (1974) 73 (1956) 725 103 131 200 221 504 817 964 1650 3360
2020-12-25 19:30 5.49 718 4090 (1974) 73 (1956) 725 103 131 200 221 504 817 964 1650 3360
2020-12-25 18:30 5.50 724 4090 (1974) 73 (1956) 725 103 131 200 221 504 817 964 1650 3360
2020-12-25 17:30 5.48 712 4090 (1974) 73 (1956) 725 103 131 200 221 504 817 964 1650 3360
2020-12-25 16:30 5.48 712 4090 (1974) 73 (1956) 725 103 131 200 221 504 817 964 1650 3360
2020-12-25 15:30 5.51 730 4090 (1974) 73 (1956) 725 103 131 200 221 504 817 964 1650 3360
2020-12-25 14:30 5.50 724 4090 (1974) 73 (1956) 725 103 131 200 221 504 817 964 1650 3360
2020-12-25 13:30 5.51 730 4090 (1974) 73 (1956) 725 103 131 200 221 504 817 964 1650 3360
2020-12-25 12:30 5.51 730 4090 (1974) 73 (1956) 725 103 131 200 221 504 817 964 1650 3360
2020-12-25 11:30 5.50 724 4090 (1974) 73 (1956) 725 103 131 200 221 504 817 964 1650 3360
2020-12-25 10:30 5.50 724 4090 (1974) 73 (1956) 725 103 131 200 221 504 817 964 1650 3360
2020-12-25 09:30 5.51 730 4090 (1974) 73 (1956) 725 103 131 200 221 504 817 964 1650 3360
2020-12-25 08:30 5.52 737 4090 (1974) 73 (1956) 725 103 131 200 221 504 817 964 1650 3360
2020-12-25 07:30 5.52 737 4090 (1974) 73 (1956) 725 103 131 200 221 504 817 964 1650 3360
2020-12-25 06:30 5.52 737 4090 (1974) 73 (1956) 725 103 131 200 221 504 817 964 1650 3360
2020-12-25 05:30 5.51 730 4090 (1974) 73 (1956) 725 103 131 200 221 504 817 964 1650 3360
2020-12-25 04:30 5.54 749 4090 (1974) 73 (1956) 725 103 131 200 221 504 817 964 1650 3360
2020-12-25 03:30 5.53 743 4090 (1974) 73 (1956) 725 103 131 200 221 504 817 964 1650 3360
2020-12-25 02:30 5.53 743 4090 (1974) 73 (1956) 725 103 131 200 221 504 817 964 1650 3360
2020-12-25 01:30 5.53 743 4090 (1974) 73 (1956) 725 103 131 200 221 504 817 964 1650 3360
2020-12-25 00:30 5.53 743 4090 (1974) 73 (1956) 725 103 131 200 221 504 817 964 1650 3360
2020-12-24 23:30 5.54 749 5500 (1985) 76 (1956) 736 102 127 181 214 492 817 1010 1730 2810
2020-12-24 22:30 5.53 743 5500 (1985) 76 (1956) 736 102 127 181 214 492 817 1010 1730 2810
2020-12-24 21:30 5.53 743 5500 (1985) 76 (1956) 736 102 127 181 214 492 817 1010 1730 2810
2020-12-24 20:30 5.54 749 5500 (1985) 76 (1956) 736 102 127 181 214 492 817 1010 1730 2810
2020-12-24 19:30 5.53 743 5500 (1985) 76 (1956) 736 102 127 181 214 492 817 1010 1730 2810
2020-12-24 18:30 5.54 749 5500 (1985) 76 (1956) 736 102 127 181 214 492 817 1010 1730 2810
2020-12-24 17:30 5.53 743 5500 (1985) 76 (1956) 736 102 127 181 214 492 817 1010 1730 2810
2020-12-24 16:30 5.55 756 5500 (1985) 76 (1956) 736 102 127 181 214 492 817 1010 1730 2810
2020-12-24 15:30 5.53 743 5500 (1985) 76 (1956) 736 102 127 181 214 492 817 1010 1730 2810
2020-12-24 14:30 5.54 749 5500 (1985) 76 (1956) 736 102 127 181 214 492 817 1010 1730 2810
2020-12-24 13:30 5.54 749 5500 (1985) 76 (1956) 736 102 127 181 214 492 817 1010 1730 2810
2020-12-24 12:30 5.56 762 5500 (1985) 76 (1956) 736 102 127 181 214 492 817 1010 1730 2810
2020-12-24 11:30 5.55 756 5500 (1985) 76 (1956) 736 102 127 181 214 492 817 1010 1730 2810
2020-12-24 10:30 5.56 762 5500 (1985) 76 (1956) 736 102 127 181 214 492 817 1010 1730 2810
2020-12-24 09:30 5.57 768 5500 (1985) 76 (1956) 736 102 127 181 214 492 817 1010 1730 2810
2020-12-24 08:30 5.56 762 5500 (1985) 76 (1956) 736 102 127 181 214 492 817 1010 1730 2810
2020-12-24 07:30 5.57 768 5500 (1985) 76 (1956) 736 102 127 181 214 492 817 1010 1730 2810
2020-12-24 06:30 5.56 762 5500 (1985) 76 (1956) 736 102 127 181 214 492 817 1010 1730 2810
2020-12-24 05:30 5.57 768 5500 (1985) 76 (1956) 736 102 127 181 214 492 817 1010 1730 2810
2020-12-24 04:30 5.58 775 5500 (1985) 76 (1956) 736 102 127 181 214 492 817 1010 1730 2810
2020-12-24 03:30 5.58 775 5500 (1985) 76 (1956) 736 102 127 181 214 492 817 1010 1730 2810
2020-12-24 02:30 5.57 768 5500 (1985) 76 (1956) 736 102 127 181 214 492 817 1010 1730 2810
2020-12-24 01:30 5.57 768 5500 (1985) 76 (1956) 736 102 127 181 214 492 817 1010 1730 2810
2020-12-24 00:30 5.56 762 5500 (1985) 76 (1956) 736 102 127 181 214 492 817 1010 1730 2810
2020-12-23 23:30 5.60 788 14700 (1985) 76 (1956) 918 100 124 185 213 428 841 1060 1890 3940
2020-12-23 22:30 5.57 768 14700 (1985) 76 (1956) 918 100 124 185 213 428 841 1060 1890 3940
2020-12-23 21:30 5.57 768 14700 (1985) 76 (1956) 918 100 124 185 213 428 841 1060 1890 3940
2020-12-23 20:30 5.59 781 14700 (1985) 76 (1956) 918 100 124 185 213 428 841 1060 1890 3940
2020-12-23 19:30 5.60 788 14700 (1985) 76 (1956) 918 100 124 185 213 428 841 1060 1890 3940
2020-12-23 18:30 5.59 781 14700 (1985) 76 (1956) 918 100 124 185 213 428 841 1060 1890 3940
2020-12-23 17:30 5.59 781 14700 (1985) 76 (1956) 918 100 124 185 213 428 841 1060 1890 3940
2020-12-23 16:30 5.58 775 14700 (1985) 76 (1956) 918 100 124 185 213 428 841 1060 1890 3940
2020-12-23 15:30 5.58 775 14700 (1985) 76 (1956) 918 100 124 185 213 428 841 1060 1890 3940
2020-12-23 14:30 5.59 781 14700 (1985) 76 (1956) 918 100 124 185 213 428 841 1060 1890 3940
2020-12-23 13:30 5.60 788 14700 (1985) 76 (1956) 918 100 124 185 213 428 841 1060 1890 3940
2020-12-23 12:30 5.61 794 14700 (1985) 76 (1956) 918 100 124 185 213 428 841 1060 1890 3940
2020-12-23 11:30 5.59 781 14700 (1985) 76 (1956) 918 100 124 185 213 428 841 1060 1890 3940
2020-12-23 10:30 5.60 788 14700 (1985) 76 (1956) 918 100 124 185 213 428 841 1060 1890 3940
2020-12-23 09:30 5.58 775 14700 (1985) 76 (1956) 918 100 124 185 213 428 841 1060 1890 3940
2020-12-23 08:30 5.61 794 14700 (1985) 76 (1956) 918 100 124 185 213 428 841 1060 1890 3940
2020-12-23 07:30 5.61 794 14700 (1985) 76 (1956) 918 100 124 185 213 428 841 1060 1890 3940
2020-12-23 06:30 5.61 794 14700 (1985) 76 (1956) 918 100 124 185 213 428 841 1060 1890 3940
2020-12-23 05:30 5.62 801 14700 (1985) 76 (1956) 918 100 124 185 213 428 841 1060 1890 3940
2020-12-23 04:30 5.60 788 14700 (1985) 76 (1956) 918 100 124 185 213 428 841 1060 1890 3940
2020-12-23 03:30 5.63 807 14700 (1985) 76 (1956) 918 100 124 185 213 428 841 1060 1890 3940
2020-12-23 02:30 5.62 801 14700 (1985) 76 (1956) 918 100 124 185 213 428 841 1060 1890 3940
2020-12-23 01:30 5.63 807 14700 (1985) 76 (1956) 918 100 124 185 213 428 841 1060 1890 3940
2020-12-23 00:30 5.63 807 14700 (1985) 76 (1956) 918 100 124 185 213 428 841 1060 1890 3940
2020-12-22 23:30 5.62 801 33700 (1985) 76 (1956) 1220 96 129 179 210 426 841 1110 2270 4210
2020-12-22 22:30 5.63 807 33700 (1985) 76 (1956) 1220 96 129 179 210 426 841 1110 2270 4210
2020-12-22 21:30 5.63 807 33700 (1985) 76 (1956) 1220 96 129 179 210 426 841 1110 2270 4210
2020-12-22 20:30 5.63 807 33700 (1985) 76 (1956) 1220 96 129 179 210 426 841 1110 2270 4210
2020-12-22 19:30 5.62 801 33700 (1985) 76 (1956) 1220 96 129 179 210 426 841 1110 2270 4210
2020-12-22 18:30 5.63 807 33700 (1985) 76 (1956) 1220 96 129 179 210 426 841 1110 2270 4210
2020-12-22 17:30 5.63 807 33700 (1985) 76 (1956) 1220 96 129 179 210 426 841 1110 2270 4210
2020-12-22 16:30 5.63 807 33700 (1985) 76 (1956) 1220 96 129 179 210 426 841 1110 2270 4210
2020-12-22 15:30 5.63 807 33700 (1985) 76 (1956) 1220 96 129 179 210 426 841 1110 2270 4210
2020-12-22 14:30 5.65 821 33700 (1985) 76 (1956) 1220 96 129 179 210 426 841 1110 2270 4210
2020-12-22 13:30 5.64 814 33700 (1985) 76 (1956) 1220 96 129 179 210 426 841 1110 2270 4210
2020-12-22 12:30 5.64 814 33700 (1985) 76 (1956) 1220 96 129 179 210 426 841 1110 2270 4210
2020-12-22 11:30 5.65 821 33700 (1985) 76 (1956) 1220 96 129 179 210 426 841 1110 2270 4210
2020-12-22 10:30 5.64 814 33700 (1985) 76 (1956) 1220 96 129 179 210 426 841 1110 2270 4210
2020-12-22 09:30 5.64 814 33700 (1985) 76 (1956) 1220 96 129 179 210 426 841 1110 2270 4210
2020-12-22 08:30 5.64 814 33700 (1985) 76 (1956) 1220 96 129 179 210 426 841 1110 2270 4210
2020-12-22 07:30 5.66 827 33700 (1985) 76 (1956) 1220 96 129 179 210 426 841 1110 2270 4210
2020-12-22 06:30 5.66 827 33700 (1985) 76 (1956) 1220 96 129 179 210 426 841 1110 2270 4210
2020-12-22 05:30 5.65 821 33700 (1985) 76 (1956) 1220 96 129 179 210 426 841 1110 2270 4210
2020-12-22 04:30 5.66 827 33700 (1985) 76 (1956) 1220 96 129 179 210 426 841 1110 2270 4210
2020-12-22 03:30 5.67 834 33700 (1985) 76 (1956) 1220 96 129 179 210 426 841 1110 2270 4210
2020-12-22 02:30 5.67 834 33700 (1985) 76 (1956) 1220 96 129 179 210 426 841 1110 2270 4210
2020-12-22 01:30 5.67 834 33700 (1985) 76 (1956) 1220 96 129 179 210 426 841 1110 2270 4210
2020-12-22 00:30 5.67 834 33700 (1985) 76 (1956) 1220 96 129 179 210 426 841 1110 2270 4210
2020-12-21 23:30 5.67 834 14100 (1988) 76 (1956) 981 97 136 178 211 431 889 1170 1810 3130
2020-12-21 22:30 5.68 841 14100 (1988) 76 (1956) 981 97 136 178 211 431 889 1170 1810 3130
2020-12-21 21:30 5.68 841 14100 (1988) 76 (1956) 981 97 136 178 211 431 889 1170 1810 3130
2020-12-21 20:30 5.67 834 14100 (1988) 76 (1956) 981 97 136 178 211 431 889 1170 1810 3130
2020-12-21 19:30 5.67 834 14100 (1988) 76 (1956) 981 97 136 178 211 431 889 1170 1810 3130
2020-12-21 18:30 5.67 834 14100 (1988) 76 (1956) 981 97 136 178 211 431 889 1170 1810 3130
2020-12-21 17:30 5.67 834 14100 (1988) 76 (1956) 981 97 136 178 211 431 889 1170 1810 3130
2020-12-21 16:30 5.67 834 14100 (1988) 76 (1956) 981 97 136 178 211 431 889 1170 1810 3130
2020-12-21 15:30 5.66 827 14100 (1988) 76 (1956) 981 97 136 178 211 431 889 1170 1810 3130
2020-12-21 14:30 5.67 834 14100 (1988) 76 (1956) 981 97 136 178 211 431 889 1170 1810 3130
2020-12-21 13:30 5.67 834 14100 (1988) 76 (1956) 981 97 136 178 211 431 889 1170 1810 3130
2020-12-21 12:30 5.67 834 14100 (1988) 76 (1956) 981 97 136 178 211 431 889 1170 1810 3130
2020-12-21 11:30 5.67 834 14100 (1988) 76 (1956) 981 97 136 178 211 431 889 1170 1810 3130
2020-12-21 10:30 5.68 841 14100 (1988) 76 (1956) 981 97 136 178 211 431 889 1170 1810 3130
2020-12-21 09:30 5.68 841 14100 (1988) 76 (1956) 981 97 136 178 211 431 889 1170 1810 3130
2020-12-21 08:30 5.69 848 14100 (1988) 76 (1956) 981 97 136 178 211 431 889 1170 1810 3130
2020-12-21 07:30 5.69 848 14100 (1988) 76 (1956) 981 97 136 178 211 431 889 1170 1810 3130
2020-12-21 06:30 5.69 848 14100 (1988) 76 (1956) 981 97 136 178 211 431 889 1170 1810 3130
2020-12-21 05:30 5.69 848 14100 (1988) 76 (1956) 981 97 136 178 211 431 889 1170 1810 3130
2020-12-21 04:30 5.69 848 14100 (1988) 76 (1956) 981 97 136 178 211 431 889 1170 1810 3130
2020-12-21 03:30 5.69 848 14100 (1988) 76 (1956) 981 97 136 178 211 431 889 1170 1810 3130
2020-12-21 02:30 5.69 848 14100 (1988) 76 (1956) 981 97 136 178 211 431 889 1170 1810 3130
2020-12-21 01:30 5.69 848 14100 (1988) 76 (1956) 981 97 136 178 211 431 889 1170 1810 3130
2020-12-21 00:30 5.69 848 14100 (1988) 76 (1956) 981 97 136 178 211 431 889 1170 1810 3130
2020-12-20 23:30 5.70 855 11300 (1988) 76 (1956) 845 97 143 182 214 483 881 1240 1760 2220
2020-12-20 22:30 5.68 841 11300 (1988) 76 (1956) 845 97 143 182 214 483 881 1240 1760 2220
2020-12-20 21:30 5.69 848 11300 (1988) 76 (1956) 845 97 143 182 214 483 881 1240 1760 2220
2020-12-20 20:30 5.68 841 11300 (1988) 76 (1956) 845 97 143 182 214 483 881 1240 1760 2220
2020-12-20 19:30 5.68 841 11300 (1988) 76 (1956) 845 97 143 182 214 483 881 1240 1760 2220
2020-12-20 18:30 5.69 848 11300 (1988) 76 (1956) 845 97 143 182 214 483 881 1240 1760 2220
2020-12-20 17:30 5.69 848 11300 (1988) 76 (1956) 845 97 143 182 214 483 881 1240 1760 2220
2020-12-20 16:30 5.68 841 11300 (1988) 76 (1956) 845 97 143 182 214 483 881 1240 1760 2220
2020-12-20 15:30 5.69 848 11300 (1988) 76 (1956) 845 97 143 182 214 483 881 1240 1760 2220
2020-12-20 14:30 5.68 841 11300 (1988) 76 (1956) 845 97 143 182 214 483 881 1240 1760 2220
2020-12-20 13:30 5.69 848 11300 (1988) 76 (1956) 845 97 143 182 214 483 881 1240 1760 2220
2020-12-20 12:30 5.69 848 11300 (1988) 76 (1956) 845 97 143 182 214 483 881 1240 1760 2220
2020-12-20 11:30 5.69 848 11300 (1988) 76 (1956) 845 97 143 182 214 483 881 1240 1760 2220
2020-12-20 10:30 5.70 855 11300 (1988) 76 (1956) 845 97 143 182 214 483 881 1240 1760 2220
2020-12-20 09:30 5.71 861 11300 (1988) 76 (1956) 845 97 143 182 214 483 881 1240 1760 2220
2020-12-20 08:30 5.70 855 11300 (1988) 76 (1956) 845 97 143 182 214 483 881 1240 1760 2220
2020-12-20 07:30 5.70 855 11300 (1988) 76 (1956) 845 97 143 182 214 483 881 1240 1760 2220
2020-12-20 06:30 5.71 861 11300 (1988) 76 (1956) 845 97 143 182 214 483 881 1240 1760 2220
2020-12-20 05:30 5.70 855 11300 (1988) 76 (1956) 845 97 143 182 214 483 881 1240 1760 2220
2020-12-20 04:30 5.70 855 11300 (1988) 76 (1956) 845 97 143 182 214 483 881 1240 1760 2220
2020-12-20 03:30 5.70 855 11300 (1988) 76 (1956) 845 97 143 182 214 483 881 1240 1760 2220
2020-12-20 02:30 5.69 848 11300 (1988) 76 (1956) 845 97 143 182 214 483 881 1240 1760 2220
2020-12-20 01:30 5.69 848 11300 (1988) 76 (1956) 845 97 143 182 214 483 881 1240 1760 2220
2020-12-20 00:30 5.69 848 11300 (1988) 76 (1956) 845 97 143 182 214 483 881 1240 1760 2220
2020-12-19 23:30 5.70 855 6660 (2002) 76 (1956) 820 101 143 183 214 508 972 1170 1920 2640
2020-12-19 22:30 5.69 848 6660 (2002) 76 (1956) 820 101 143 183 214 508 972 1170 1920 2640
2020-12-19 21:30 5.68 841 6660 (2002) 76 (1956) 820 101 143 183 214 508 972 1170 1920 2640
2020-12-19 20:30 5.69 848 6660 (2002) 76 (1956) 820 101 143 183 214 508 972 1170 1920 2640
2020-12-19 19:30 5.69 848 6660 (2002) 76 (1956) 820 101 143 183 214 508 972 1170 1920 2640
2020-12-19 18:30 5.69 848 6660 (2002) 76 (1956) 820 101 143 183 214 508 972 1170 1920 2640
2020-12-19 17:30 5.69 848 6660 (2002) 76 (1956) 820 101 143 183 214 508 972 1170 1920 2640
2020-12-19 16:30 5.68 841 6660 (2002) 76 (1956) 820 101 143 183 214 508 972 1170 1920 2640
2020-12-19 15:30 5.68 841 6660 (2002) 76 (1956) 820 101 143 183 214 508 972 1170 1920 2640
2020-12-19 14:30 5.68 841 6660 (2002) 76 (1956) 820 101 143 183 214 508 972 1170 1920 2640
2020-12-19 13:30 5.68 841 6660 (2002) 76 (1956) 820 101 143 183 214 508 972 1170 1920 2640
2020-12-19 12:30 5.69 848 6660 (2002) 76 (1956) 820 101 143 183 214 508 972 1170 1920 2640
2020-12-19 11:30 5.69 848 6660 (2002) 76 (1956) 820 101 143 183 214 508 972 1170 1920 2640
2020-12-19 10:30 5.69 848 6660 (2002) 76 (1956) 820 101 143 183 214 508 972 1170 1920 2640
2020-12-19 09:30 5.69 848 6660 (2002) 76 (1956) 820 101 143 183 214 508 972 1170 1920 2640
2020-12-19 08:30 5.70 855 6660 (2002) 76 (1956) 820 101 143 183 214 508 972 1170 1920 2640
2020-12-19 07:30 5.70 855 6660 (2002) 76 (1956) 820 101 143 183 214 508 972 1170 1920 2640
2020-12-19 06:30 5.71 861 6660 (2002) 76 (1956) 820 101 143 183 214 508 972 1170 1920 2640
2020-12-19 05:30 5.70 855 6660 (2002) 76 (1956) 820 101 143 183 214 508 972 1170 1920 2640
2020-12-19 04:30 5.70 855 6660 (2002) 76 (1956) 820 101 143 183 214 508 972 1170 1920 2640
2020-12-19 03:30 5.71 861 6660 (2002) 76 (1956) 820 101 143 183 214 508 972 1170 1920 2640
2020-12-19 02:30 5.70 855 6660 (2002) 76 (1956) 820 101 143 183 214 508 972 1170 1920 2640
2020-12-19 01:30 5.71 861 6660 (2002) 76 (1956) 820 101 143 183 214 508 972 1170 1920 2640
2020-12-19 00:30 5.71 861 6660 (2002) 76 (1956) 820 101 143 183 214 508 972 1170 1920 2640
2020-12-18 23:30 5.71 861 16800 (2002) 76 (1956) 992 104 143 183 216 472 1010 1140 2060 2890
2020-12-18 22:30 5.72 868 16800 (2002) 76 (1956) 992 104 143 183 216 472 1010 1140 2060 2890
2020-12-18 21:30 5.71 861 16800 (2002) 76 (1956) 992 104 143 183 216 472 1010 1140 2060 2890
2020-12-18 20:30 5.72 868 16800 (2002) 76 (1956) 992 104 143 183 216 472 1010 1140 2060 2890
2020-12-18 19:30 5.72 868 16800 (2002) 76 (1956) 992 104 143 183 216 472 1010 1140 2060 2890
2020-12-18 18:30 5.72 868 16800 (2002) 76 (1956) 992 104 143 183 216 472 1010 1140 2060 2890
2020-12-18 17:30 5.71 861 16800 (2002) 76 (1956) 992 104 143 183 216 472 1010 1140 2060 2890
2020-12-18 16:30 5.72 868 16800 (2002) 76 (1956) 992 104 143 183 216 472 1010 1140 2060 2890
2020-12-18 15:30 5.72 868 16800 (2002) 76 (1956) 992 104 143 183 216 472 1010 1140 2060 2890
2020-12-18 14:30 5.73 875 16800 (2002) 76 (1956) 992 104 143 183 216 472 1010 1140 2060 2890
2020-12-18 13:30 5.71 861 16800 (2002) 76 (1956) 992 104 143 183 216 472 1010 1140 2060 2890
2020-12-18 12:30 5.73 875 16800 (2002) 76 (1956) 992 104 143 183 216 472 1010 1140 2060 2890
2020-12-18 11:30 5.73 875 16800 (2002) 76 (1956) 992 104 143 183 216 472 1010 1140 2060 2890
2020-12-18 10:30 5.75 889 16800 (2002) 76 (1956) 992 104 143 183 216 472 1010 1140 2060 2890
2020-12-18 09:30 5.74 882 16800 (2002) 76 (1956) 992 104 143 183 216 472 1010 1140 2060 2890
2020-12-18 08:30 5.74 882 16800 (2002) 76 (1956) 992 104 143 183 216 472 1010 1140 2060 2890
2020-12-18 07:30 5.75 889 16800 (2002) 76 (1956) 992 104 143 183 216 472 1010 1140 2060 2890
2020-12-18 06:30 5.75 889 16800 (2002) 76 (1956) 992 104 143 183 216 472 1010 1140 2060 2890
2020-12-18 05:30 5.76 896 16800 (2002) 76 (1956) 992 104 143 183 216 472 1010 1140 2060 2890
2020-12-18 04:30 5.76 896 16800 (2002) 76 (1956) 992 104 143 183 216 472 1010 1140 2060 2890
2020-12-18 03:30 5.76 896 16800 (2002) 76 (1956) 992 104 143 183 216 472 1010 1140 2060 2890
2020-12-18 02:30 5.76 896 16800 (2002) 76 (1956) 992 104 143 183 216 472 1010 1140 2060 2890
2020-12-18 01:30 5.77 903 16800 (2002) 76 (1956) 992 104 143 183 216 472 1010 1140 2060 2890
2020-12-18 00:30 5.75 889 16800 (2002) 76 (1956) 992 104 143 183 216 472 1010 1140 2060 2890
2020-12-17 22:30 5.77 903 17200 (1993) 78 (1956) 1090 108 144 191 222 493 1040 1220 2370 3470
2020-12-17 21:30 5.78 911 17200 (1993) 78 (1956) 1090 108 144 191 222 493 1040 1220 2370 3470
2020-12-17 20:30 5.77 903 17200 (1993) 78 (1956) 1090 108 144 191 222 493 1040 1220 2370 3470
2020-12-17 19:30 5.77 903 17200 (1993) 78 (1956) 1090 108 144 191 222 493 1040 1220 2370 3470
2020-12-17 18:30 5.77 903 17200 (1993) 78 (1956) 1090 108 144 191 222 493 1040 1220 2370 3470
2020-12-17 17:30 5.76 896 17200 (1993) 78 (1956) 1090 108 144 191 222 493 1040 1220 2370 3470
2020-12-17 16:30 5.78 911 17200 (1993) 78 (1956) 1090 108 144 191 222 493 1040 1220 2370 3470
2020-12-17 15:30 5.76 896 17200 (1993) 78 (1956) 1090 108 144 191 222 493 1040 1220 2370 3470
2020-12-17 14:30 5.78 911 17200 (1993) 78 (1956) 1090 108 144 191 222 493 1040 1220 2370 3470
2020-12-17 13:30 5.78 911 17200 (1993) 78 (1956) 1090 108 144 191 222 493 1040 1220 2370 3470
2020-12-17 12:30 5.78 911 17200 (1993) 78 (1956) 1090 108 144 191 222 493 1040 1220 2370 3470
2020-12-17 11:30 5.80 925 17200 (1993) 78 (1956) 1090 108 144 191 222 493 1040 1220 2370 3470
2020-12-17 10:30 5.79 918 17200 (1993) 78 (1956) 1090 108 144 191 222 493 1040 1220 2370 3470
2020-12-17 09:30 5.80 925 17200 (1993) 78 (1956) 1090 108 144 191 222 493 1040 1220 2370 3470
2020-12-17 08:30 5.81 932 17200 (1993) 78 (1956) 1090 108 144 191 222 493 1040 1220 2370 3470
2020-12-17 07:30 5.81 932 17200 (1993) 78 (1956) 1090 108 144 191 222 493 1040 1220 2370 3470
2020-12-17 06:30 5.81 932 17200 (1993) 78 (1956) 1090 108 144 191 222 493 1040 1220 2370 3470
2020-12-17 05:30 5.81 932 17200 (1993) 78 (1956) 1090 108 144 191 222 493 1040 1220 2370 3470
2020-12-17 04:30 5.81 932 17200 (1993) 78 (1956) 1090 108 144 191 222 493 1040 1220 2370 3470
2020-12-17 03:30 5.83 947 17200 (1993) 78 (1956) 1090 108 144 191 222 493 1040 1220 2370 3470
2020-12-17 02:30 5.82 939 17200 (1993) 78 (1956) 1090 108 144 191 222 493 1040 1220 2370 3470
2020-12-17 01:30 5.82 939 17200 (1993) 78 (1956) 1090 108 144 191 222 493 1040 1220 2370 3470
2020-12-17 00:30 5.82 939 17200 (1993) 78 (1956) 1090 108 144 191 222 493 1040 1220 2370 3470
2020-12-16 23:30 5.82 939 25500 (1993) 78 (1956) 1170 106 146 194 224 463 1110 1290 2070 4420
2020-12-16 22:30 5.84 954 25500 (1993) 78 (1956) 1170 106 146 194 224 463 1110 1290 2070 4420
2020-12-16 21:30 5.83 947 25500 (1993) 78 (1956) 1170 106 146 194 224 463 1110 1290 2070 4420
2020-12-16 20:30 5.83 947 25500 (1993) 78 (1956) 1170 106 146 194 224 463 1110 1290 2070 4420
2020-12-16 19:30 5.84 954 25500 (1993) 78 (1956) 1170 106 146 194 224 463 1110 1290 2070 4420
2020-12-16 18:30 5.84 954 25500 (1993) 78 (1956) 1170 106 146 194 224 463 1110 1290 2070 4420
2020-12-16 17:30 5.84 954 25500 (1993) 78 (1956) 1170 106 146 194 224 463 1110 1290 2070 4420
2020-12-16 16:30 5.84 954 25500 (1993) 78 (1956) 1170 106 146 194 224 463 1110 1290 2070 4420
2020-12-16 15:30 5.84 954 25500 (1993) 78 (1956) 1170 106 146 194 224 463 1110 1290 2070 4420
2020-12-16 14:30 5.85 962 25500 (1993) 78 (1956) 1170 106 146 194 224 463 1110 1290 2070 4420
2020-12-16 13:30 5.84 954 25500 (1993) 78 (1956) 1170 106 146 194 224 463 1110 1290 2070 4420
2020-12-16 12:30 5.85 962 25500 (1993) 78 (1956) 1170 106 146 194 224 463 1110 1290 2070 4420
2020-12-16 11:30 5.86 969 25500 (1993) 78 (1956) 1170 106 146 194 224 463 1110 1290 2070 4420
2020-12-16 10:30 5.85 962 25500 (1993) 78 (1956) 1170 106 146 194 224 463 1110 1290 2070 4420
2020-12-16 09:30 5.85 962 25500 (1993) 78 (1956) 1170 106 146 194 224 463 1110 1290 2070 4420
2020-12-16 08:30 5.86 969 25500 (1993) 78 (1956) 1170 106 146 194 224 463 1110 1290 2070 4420
2020-12-16 07:30 5.85 962 25500 (1993) 78 (1956) 1170 106 146 194 224 463 1110 1290 2070 4420
2020-12-16 06:30 5.84 954 25500 (1993) 78 (1956) 1170 106 146 194 224 463 1110 1290 2070 4420
2020-12-16 05:30 5.85 962 25500 (1993) 78 (1956) 1170 106 146 194 224 463 1110 1290 2070 4420
2020-12-16 04:30 5.85 962 25500 (1993) 78 (1956) 1170 106 146 194 224 463 1110 1290 2070 4420
2020-12-16 03:30 5.86 969 25500 (1993) 78 (1956) 1170 106 146 194 224 463 1110 1290 2070 4420
2020-12-16 02:30 5.85 962 25500 (1993) 78 (1956) 1170 106 146 194 224 463 1110 1290 2070 4420
2020-12-16 01:30 5.85 962 25500 (1993) 78 (1956) 1170 106 146 194 224 463 1110 1290 2070 4420
2020-12-16 00:30 5.86 969 25500 (1993) 78 (1956) 1170 106 146 194 224 463 1110 1290 2070 4420
2020-12-15 23:30 5.86 969 22400 (1993) 78 (1956) 1120 109 138 207 225 423 1040 1150 1520 4520
2020-12-15 22:30 5.85 962 22400 (1993) 78 (1956) 1120 109 138 207 225 423 1040 1150 1520 4520
2020-12-15 21:30 5.85 962 22400 (1993) 78 (1956) 1120 109 138 207 225 423 1040 1150 1520 4520
2020-12-15 20:30 5.86 969 22400 (1993) 78 (1956) 1120 109 138 207 225 423 1040 1150 1520 4520
2020-12-15 19:30 5.85 962 22400 (1993) 78 (1956) 1120 109 138 207 225 423 1040 1150 1520 4520
2020-12-15 18:30 5.85 962 22400 (1993) 78 (1956) 1120 109 138 207 225 423 1040 1150 1520 4520
2020-12-15 17:30 5.85 962 22400 (1993) 78 (1956) 1120 109 138 207 225 423 1040 1150 1520 4520
2020-12-15 16:30 5.83 947 22400 (1993) 78 (1956) 1120 109 138 207 225 423 1040 1150 1520 4520
2020-12-15 15:30 5.83 947 22400 (1993) 78 (1956) 1120 109 138 207 225 423 1040 1150 1520 4520
2020-12-15 14:30 5.82 939 22400 (1993) 78 (1956) 1120 109 138 207 225 423 1040 1150 1520 4520
2020-12-15 13:30 5.82 939 22400 (1993) 78 (1956) 1120 109 138 207 225 423 1040 1150 1520 4520
2020-12-15 12:30 5.80 925 22400 (1993) 78 (1956) 1120 109 138 207 225 423 1040 1150 1520 4520
2020-12-15 11:30 5.79 918 22400 (1993) 78 (1956) 1120 109 138 207 225 423 1040 1150 1520 4520
2020-12-15 10:30 5.78 911 22400 (1993) 78 (1956) 1120 109 138 207 225 423 1040 1150 1520 4520
2020-12-15 09:30 5.75 889 22400 (1993) 78 (1956) 1120 109 138 207 225 423 1040 1150 1520 4520
2020-12-15 08:30 5.74 882 22400 (1993) 78 (1956) 1120 109 138 207 225 423 1040 1150 1520 4520
2020-12-15 07:30 5.71 861 22400 (1993) 78 (1956) 1120 109 138 207 225 423 1040 1150 1520 4520
2020-12-15 06:30 5.70 855 22400 (1993) 78 (1956) 1120 109 138 207 225 423 1040 1150 1520 4520
2020-12-15 05:30 5.67 834 22400 (1993) 78 (1956) 1120 109 138 207 225 423 1040 1150 1520 4520
2020-12-15 04:30 5.66 827 22400 (1993) 78 (1956) 1120 109 138 207 225 423 1040 1150 1520 4520
2020-12-15 03:30 5.64 814 22400 (1993) 78 (1956) 1120 109 138 207 225 423 1040 1150 1520 4520
2020-12-15 02:30 5.63 807 22400 (1993) 78 (1956) 1120 109 138 207 225 423 1040 1150 1520 4520
2020-12-15 01:30 5.64 814 22400 (1993) 78 (1956) 1120 109 138 207 225 423 1040 1150 1520 4520
2020-12-15 00:30 5.63 807 22400 (1993) 78 (1956) 1120 109 138 207 225 423 1040 1150 1520 4520
2020-12-14 23:30 5.63 807 11900 (2016) 78 (1956) 998 112 137 203 225 376 1110 1210 1640 5430
2020-12-14 22:30 5.63 807 11900 (2016) 78 (1956) 998 112 137 203 225 376 1110 1210 1640 5430
2020-12-14 21:30 5.63 807 11900 (2016) 78 (1956) 998 112 137 203 225 376 1110 1210 1640 5430
2020-12-14 20:30 5.64 814 11900 (2016) 78 (1956) 998 112 137 203 225 376 1110 1210 1640 5430
2020-12-14 19:30 5.63 807 11900 (2016) 78 (1956) 998 112 137 203 225 376 1110 1210 1640 5430
2020-12-14 18:30 5.63 807 11900 (2016) 78 (1956) 998 112 137 203 225 376 1110 1210 1640 5430
2020-12-14 17:30 5.62 801 11900 (2016) 78 (1956) 998 112 137 203 225 376 1110 1210 1640 5430
2020-12-14 16:30 5.61 794 11900 (2016) 78 (1956) 998 112 137 203 225 376 1110 1210 1640 5430
2020-12-14 15:30 5.61 794 11900 (2016) 78 (1956) 998 112 137 203 225 376 1110 1210 1640 5430
2020-12-14 14:30 5.62 801 11900 (2016) 78 (1956) 998 112 137 203 225 376 1110 1210 1640 5430
2020-12-14 13:30 5.61 794 11900 (2016) 78 (1956) 998 112 137 203 225 376 1110 1210 1640 5430
2020-12-14 12:30 5.62 801 11900 (2016) 78 (1956) 998 112 137 203 225 376 1110 1210 1640 5430
2020-12-14 11:30 5.61 794 11900 (2016) 78 (1956) 998 112 137 203 225 376 1110 1210 1640 5430
2020-12-14 10:30 5.61 794 11900 (2016) 78 (1956) 998 112 137 203 225 376 1110 1210 1640 5430
2020-12-14 09:30 5.62 801 11900 (2016) 78 (1956) 998 112 137 203 225 376 1110 1210 1640 5430
2020-12-14 08:30 5.62 801 11900 (2016) 78 (1956) 998 112 137 203 225 376 1110 1210 1640 5430
2020-12-14 07:30 5.62 801 11900 (2016) 78 (1956) 998 112 137 203 225 376 1110 1210 1640 5430
2020-12-14 06:30 5.63 807 11900 (2016) 78 (1956) 998 112 137 203 225 376 1110 1210 1640 5430
2020-12-14 05:30 5.63 807 11900 (2016) 78 (1956) 998 112 137 203 225 376 1110 1210 1640 5430
2020-12-14 04:30 5.61 794 11900 (2016) 78 (1956) 998 112 137 203 225 376 1110 1210 1640 5430
2020-12-14 03:30 5.62 801 11900 (2016) 78 (1956) 998 112 137 203 225 376 1110 1210 1640 5430
2020-12-14 02:30 5.63 807 11900 (2016) 78 (1956) 998 112 137 203 225 376 1110 1210 1640 5430
2020-12-14 01:30 5.61 794 11900 (2016) 78 (1956) 998 112 137 203 225 376 1110 1210 1640 5430
2020-12-14 00:30 5.61 794 11900 (2016) 78 (1956) 998 112 137 203 225 376 1110 1210 1640 5430
2020-12-13 23:30 5.61 794 16300 (1947) 76 (1955) 909 118 136 209 231 331 1110 1280 1700 3030
2020-12-13 22:30 5.61 794 16300 (1947) 76 (1955) 909 118 136 209 231 331 1110 1280 1700 3030
2020-12-13 21:30 5.57 768 16300 (1947) 76 (1955) 909 118 136 209 231 331 1110 1280 1700 3030
2020-12-13 20:30 5.58 775 16300 (1947) 76 (1955) 909 118 136 209 231 331 1110 1280 1700 3030
2020-12-13 19:30 5.58 775 16300 (1947) 76 (1955) 909 118 136 209 231 331 1110 1280 1700 3030
2020-12-13 18:30 5.56 762 16300 (1947) 76 (1955) 909 118 136 209 231 331 1110 1280 1700 3030
2020-12-13 17:30 5.56 762 16300 (1947) 76 (1955) 909 118 136 209 231 331 1110 1280 1700 3030
2020-12-13 16:30 5.55 756 16300 (1947) 76 (1955) 909 118 136 209 231 331 1110 1280 1700 3030
2020-12-13 15:30 5.54 749 16300 (1947) 76 (1955) 909 118 136 209 231 331 1110 1280 1700 3030
2020-12-13 14:30 5.52 737 16300 (1947) 76 (1955) 909 118 136 209 231 331 1110 1280 1700 3030
2020-12-13 13:30 5.52 737 16300 (1947) 76 (1955) 909 118 136 209 231 331 1110 1280 1700 3030
2020-12-13 12:30 5.50 724 16300 (1947) 76 (1955) 909 118 136 209 231 331 1110 1280 1700 3030
2020-12-13 11:30 5.51 730 16300 (1947) 76 (1955) 909 118 136 209 231 331 1110 1280 1700 3030
2020-12-13 10:30 5.44 688 16300 (1947) 76 (1955) 909 118 136 209 231 331 1110 1280 1700 3030
2020-12-13 09:30 5.41 670 16300 (1947) 76 (1955) 909 118 136 209 231 331 1110 1280 1700 3030
2020-12-13 08:30 5.44 688 16300 (1947) 76 (1955) 909 118 136 209 231 331 1110 1280 1700 3030
2020-12-13 07:30 5.48 712 16300 (1947) 76 (1955) 909 118 136 209 231 331 1110 1280 1700 3030
2020-12-13 06:30 5.47 706 16300 (1947) 76 (1955) 909 118 136 209 231 331 1110 1280 1700 3030
2020-12-13 05:30 5.47 706 16300 (1947) 76 (1955) 909 118 136 209 231 331 1110 1280 1700 3030
2020-12-13 04:30 5.48 712 16300 (1947) 76 (1955) 909 118 136 209 231 331 1110 1280 1700 3030
2020-12-13 03:30 5.48 712 16300 (1947) 76 (1955) 909 118 136 209 231 331 1110 1280 1700 3030
2020-12-13 02:30 5.48 712 16300 (1947) 76 (1955) 909 118 136 209 231 331 1110 1280 1700 3030
2020-12-13 01:30 5.47 706 16300 (1947) 76 (1955) 909 118 136 209 231 331 1110 1280 1700 3030
2020-12-13 00:30 5.48 712 16300 (1947) 76 (1955) 909 118 136 209 231 331 1110 1280 1700 3030
2020-12-12 23:30 5.48 712 13400 (1947) 79 (1955) 927 118 141 212 233 336 929 1150 1790 2580
2020-12-12 22:30 5.48 712 13400 (1947) 79 (1955) 927 118 141 212 233 336 929 1150 1790 2580
2020-12-12 21:30 5.48 712 13400 (1947) 79 (1955) 927 118 141 212 233 336 929 1150 1790 2580
2020-12-12 20:30 5.49 718 13400 (1947) 79 (1955) 927 118 141 212 233 336 929 1150 1790 2580
2020-12-12 19:30 5.49 718 13400 (1947) 79 (1955) 927 118 141 212 233 336 929 1150 1790 2580
2020-12-12 18:30 5.49 718 13400 (1947) 79 (1955) 927 118 141 212 233 336 929 1150 1790 2580
2020-12-12 17:30 5.49 718 13400 (1947) 79 (1955) 927 118 141 212 233 336 929 1150 1790 2580
2020-12-12 16:30 5.49 718 13400 (1947) 79 (1955) 927 118 141 212 233 336 929 1150 1790 2580
2020-12-12 15:30 5.50 724 13400 (1947) 79 (1955) 927 118 141 212 233 336 929 1150 1790 2580
2020-12-12 14:30 5.51 730 13400 (1947) 79 (1955) 927 118 141 212 233 336 929 1150 1790 2580
2020-12-12 13:30 5.48 712 13400 (1947) 79 (1955) 927 118 141 212 233 336 929 1150 1790 2580
2020-12-12 12:30 5.49 718 13400 (1947) 79 (1955) 927 118 141 212 233 336 929 1150 1790 2580
2020-12-12 11:30 5.51 730 13400 (1947) 79 (1955) 927 118 141 212 233 336 929 1150 1790 2580
2020-12-12 10:30 5.50 724 13400 (1947) 79 (1955) 927 118 141 212 233 336 929 1150 1790 2580
2020-12-12 09:30 5.50 724 13400 (1947) 79 (1955) 927 118 141 212 233 336 929 1150 1790 2580
2020-12-12 08:30 5.51 730 13400 (1947) 79 (1955) 927 118 141 212 233 336 929 1150 1790 2580
2020-12-12 07:30 5.51 730 13400 (1947) 79 (1955) 927 118 141 212 233 336 929 1150 1790 2580
2020-12-12 06:30 5.52 737 13400 (1947) 79 (1955) 927 118 141 212 233 336 929 1150 1790 2580
2020-12-12 05:30 5.51 730 13400 (1947) 79 (1955) 927 118 141 212 233 336 929 1150 1790 2580
2020-12-12 04:30 5.50 724 13400 (1947) 79 (1955) 927 118 141 212 233 336 929 1150 1790 2580
2020-12-12 03:30 5.51 730 13400 (1947) 79 (1955) 927 118 141 212 233 336 929 1150 1790 2580
2020-12-12 02:30 5.51 730 13400 (1947) 79 (1955) 927 118 141 212 233 336 929 1150 1790 2580
2020-12-12 01:30 5.52 737 13400 (1947) 79 (1955) 927 118 141 212 233 336 929 1150 1790 2580
2020-12-12 00:30 5.52 737 13400 (1947) 79 (1955) 927 118 141 212 233 336 929 1150 1790 2580
2020-12-11 23:30 5.52 737 16600 (1947) 74 (1955) 909 124 140 215 233 348 893 1130 1920 2900
2020-12-11 22:30 5.52 737 16600 (1947) 74 (1955) 909 124 140 215 233 348 893 1130 1920 2900
2020-12-11 21:30 5.53 743 16600 (1947) 74 (1955) 909 124 140 215 233 348 893 1130 1920 2900
2020-12-11 20:30 5.52 737 16600 (1947) 74 (1955) 909 124 140 215 233 348 893 1130 1920 2900
2020-12-11 19:30 5.52 737 16600 (1947) 74 (1955) 909 124 140 215 233 348 893 1130 1920 2900
2020-12-11 18:30 5.53 743 16600 (1947) 74 (1955) 909 124 140 215 233 348 893 1130 1920 2900
2020-12-11 17:30 5.53 743 16600 (1947) 74 (1955) 909 124 140 215 233 348 893 1130 1920 2900
2020-12-11 16:30 5.52 737 16600 (1947) 74 (1955) 909 124 140 215 233 348 893 1130 1920 2900
2020-12-11 15:30 5.51 730 16600 (1947) 74 (1955) 909 124 140 215 233 348 893 1130 1920 2900
2020-12-11 14:30 5.50 724 16600 (1947) 74 (1955) 909 124 140 215 233 348 893 1130 1920 2900
2020-12-11 13:30 5.52 737 16600 (1947) 74 (1955) 909 124 140 215 233 348 893 1130 1920 2900
2020-12-11 12:30 5.52 737 16600 (1947) 74 (1955) 909 124 140 215 233 348 893 1130 1920 2900
2020-12-11 11:30 5.52 737 16600 (1947) 74 (1955) 909 124 140 215 233 348 893 1130 1920 2900
2020-12-11 10:30 5.51 730 16600 (1947) 74 (1955) 909 124 140 215 233 348 893 1130 1920 2900
2020-12-11 09:30 5.51 730 16600 (1947) 74 (1955) 909 124 140 215 233 348 893 1130 1920 2900
2020-12-11 08:30 5.51 730 16600 (1947) 74 (1955) 909 124 140 215 233 348 893 1130 1920 2900
2020-12-11 07:30 5.51 730 16600 (1947) 74 (1955) 909 124 140 215 233 348 893 1130 1920 2900
2020-12-11 06:30 5.52 737 16600 (1947) 74 (1955) 909 124 140 215 233 348 893 1130 1920 2900
2020-12-11 05:30 5.52 737 16600 (1947) 74 (1955) 909 124 140 215 233 348 893 1130 1920 2900
2020-12-11 04:30 5.53 743 16600 (1947) 74 (1955) 909 124 140 215 233 348 893 1130 1920 2900
2020-12-11 03:30 5.54 749 16600 (1947) 74 (1955) 909 124 140 215 233 348 893 1130 1920 2900
2020-12-11 02:30 5.53 743 16600 (1947) 74 (1955) 909 124 140 215 233 348 893 1130 1920 2900
2020-12-11 01:30 5.55 756 16600 (1947) 74 (1955) 909 124 140 215 233 348 893 1130 1920 2900
2020-12-11 00:30 5.56 762 16600 (1947) 74 (1955) 909 124 140 215 233 348 893 1130 1920 2900
2020-12-10 23:30 5.55 756 10500 (1947) 74 (1955) 782 108 139 195 228 346 849 1040 1780 2380
2020-12-10 22:30 5.54 749 10500 (1947) 74 (1955) 782 108 139 195 228 346 849 1040 1780 2380
2020-12-10 21:30 5.54 749 10500 (1947) 74 (1955) 782 108 139 195 228 346 849 1040 1780 2380
2020-12-10 20:30 5.54 749 10500 (1947) 74 (1955) 782 108 139 195 228 346 849 1040 1780 2380
2020-12-10 19:30 5.56 762 10500 (1947) 74 (1955) 782 108 139 195 228 346 849 1040 1780 2380
2020-12-10 18:30 5.56 762 10500 (1947) 74 (1955) 782 108 139 195 228 346 849 1040 1780 2380
2020-12-10 17:30 5.55 756 10500 (1947) 74 (1955) 782 108 139 195 228 346 849 1040 1780 2380
2020-12-10 16:30 5.54 749 10500 (1947) 74 (1955) 782 108 139 195 228 346 849 1040 1780 2380
2020-12-10 15:30 5.56 762 10500 (1947) 74 (1955) 782 108 139 195 228 346 849 1040 1780 2380
2020-12-10 14:30 5.55 756 10500 (1947) 74 (1955) 782 108 139 195 228 346 849 1040 1780 2380
2020-12-10 13:30 5.56 762 10500 (1947) 74 (1955) 782 108 139 195 228 346 849 1040 1780 2380
2020-12-10 12:30 5.57 768 10500 (1947) 74 (1955) 782 108 139 195 228 346 849 1040 1780 2380
2020-12-10 11:30 5.56 762 10500 (1947) 74 (1955) 782 108 139 195 228 346 849 1040 1780 2380
2020-12-10 10:30 5.56 762 10500 (1947) 74 (1955) 782 108 139 195 228 346 849 1040 1780 2380
2020-12-10 09:30 5.57 768 10500 (1947) 74 (1955) 782 108 139 195 228 346 849 1040 1780 2380
2020-12-10 08:30 5.58 775 10500 (1947) 74 (1955) 782 108 139 195 228 346 849 1040 1780 2380
2020-12-10 07:30 5.58 775 10500 (1947) 74 (1955) 782 108 139 195 228 346 849 1040 1780 2380
2020-12-10 06:30 5.59 781 10500 (1947) 74 (1955) 782 108 139 195 228 346 849 1040 1780 2380
2020-12-10 05:30 5.59 781 10500 (1947) 74 (1955) 782 108 139 195 228 346 849 1040 1780 2380
2020-12-10 04:30 5.60 788 10500 (1947) 74 (1955) 782 108 139 195 228 346 849 1040 1780 2380
2020-12-10 03:30 5.60 788 10500 (1947) 74 (1955) 782 108 139 195 228 346 849 1040 1780 2380
2020-12-10 02:30 5.59 781 10500 (1947) 74 (1955) 782 108 139 195 228 346 849 1040 1780 2380
2020-12-10 01:30 5.59 781 10500 (1947) 74 (1955) 782 108 139 195 228 346 849 1040 1780 2380
2020-12-10 00:30 5.62 801 10500 (1947) 74 (1955) 782 108 139 195 228 346 849 1040 1780 2380
2020-12-09 23:30 5.59 781 3100 (1936) 74 (1955) 633 106 142 181 216 340 874 908 1550 2490
2020-12-09 22:30 5.61 794 3100 (1936) 74 (1955) 633 106 142 181 216 340 874 908 1550 2490
2020-12-09 21:30 5.60 788 3100 (1936) 74 (1955) 633 106 142 181 216 340 874 908 1550 2490
2020-12-09 20:30 5.61 794 3100 (1936) 74 (1955) 633 106 142 181 216 340 874 908 1550 2490
2020-12-09 19:30 5.61 794 3100 (1936) 74 (1955) 633 106 142 181 216 340 874 908 1550 2490
2020-12-09 18:30 5.62 801 3100 (1936) 74 (1955) 633 106 142 181 216 340 874 908 1550 2490
2020-12-09 17:30 5.61 794 3100 (1936) 74 (1955) 633 106 142 181 216 340 874 908 1550 2490
2020-12-09 16:30 5.59 781 3100 (1936) 74 (1955) 633 106 142 181 216 340 874 908 1550 2490
2020-12-09 15:30 5.62 801 3100 (1936) 74 (1955) 633 106 142 181 216 340 874 908 1550 2490
2020-12-09 14:30 5.60 788 3100 (1936) 74 (1955) 633 106 142 181 216 340 874 908 1550 2490
2020-12-09 13:30 5.61 794 3100 (1936) 74 (1955) 633 106 142 181 216 340 874 908 1550 2490
2020-12-09 12:30 5.63 807 3100 (1936) 74 (1955) 633 106 142 181 216 340 874 908 1550 2490
2020-12-09 11:30 5.61 794 3100 (1936) 74 (1955) 633 106 142 181 216 340 874 908 1550 2490
2020-12-09 10:30 5.62 801 3100 (1936) 74 (1955) 633 106 142 181 216 340 874 908 1550 2490
2020-12-09 09:30 5.64 814 3100 (1936) 74 (1955) 633 106 142 181 216 340 874 908 1550 2490
2020-12-09 08:30 5.64 814 3100 (1936) 74 (1955) 633 106 142 181 216 340 874 908 1550 2490
2020-12-09 07:30 5.64 814 3100 (1936) 74 (1955) 633 106 142 181 216 340 874 908 1550 2490
2020-12-09 06:30 5.65 821 3100 (1936) 74 (1955) 633 106 142 181 216 340 874 908 1550 2490
2020-12-09 05:30 5.67 834 3100 (1936) 74 (1955) 633 106 142 181 216 340 874 908 1550 2490
2020-12-09 04:30 5.65 821 3100 (1936) 74 (1955) 633 106 142 181 216 340 874 908 1550 2490
2020-12-09 03:30 5.67 834 3100 (1936) 74 (1955) 633 106 142 181 216 340 874 908 1550 2490
2020-12-09 02:30 5.66 827 3100 (1936) 74 (1955) 633 106 142 181 216 340 874 908 1550 2490
2020-12-09 01:30 5.69 848 3100 (1936) 74 (1955) 633 106 142 181 216 340 874 908 1550 2490
2020-12-09 00:30 5.68 841 3100 (1936) 74 (1955) 633 106 142 181 216 340 874 908 1550 2490
2020-12-08 23:30 5.67 834 4710 (1976) 74 (1955) 698 103 136 181 209 351 821 949 1650 3010
2020-12-08 22:30 5.67 834 4710 (1976) 74 (1955) 698 103 136 181 209 351 821 949 1650 3010
2020-12-08 21:30 5.68 841 4710 (1976) 74 (1955) 698 103 136 181 209 351 821 949 1650 3010
2020-12-08 20:30 5.68 841 4710 (1976) 74 (1955) 698 103 136 181 209 351 821 949 1650 3010
2020-12-08 19:30 5.68 841 4710 (1976) 74 (1955) 698 103 136 181 209 351 821 949 1650 3010
2020-12-08 18:30 5.70 855 4710 (1976) 74 (1955) 698 103 136 181 209 351 821 949 1650 3010
2020-12-08 17:30 5.68 841 4710 (1976) 74 (1955) 698 103 136 181 209 351 821 949 1650 3010
2020-12-08 16:30 5.69 848 4710 (1976) 74 (1955) 698 103 136 181 209 351 821 949 1650 3010
2020-12-08 15:30 5.68 988 4710 (1976) 74 (1955) 698 103 136 181 209 351 821 949 1650 3010
2020-12-08 14:30 5.70 916 4710 (1976) 74 (1955) 698 103 136 181 209 351 821 949 1650 3010
2020-12-08 13:30 5.70 916 4710 (1976) 74 (1955) 698 103 136 181 209 351 821 949 1650 3010
2020-12-08 12:30 5.71 928 4710 (1976) 74 (1955) 698 103 136 181 209 351 821 949 1650 3010
2020-12-08 11:30 5.71 928 4710 (1976) 74 (1955) 698 103 136 181 209 351 821 949 1650 3010
2020-12-08 10:30 5.70 916 4710 (1976) 74 (1955) 698 103 136 181 209 351 821 949 1650 3010
2020-12-08 09:30 5.72 941 4710 (1976) 74 (1955) 698 103 136 181 209 351 821 949 1650 3010
2020-12-08 08:30 5.73 953 4710 (1976) 74 (1955) 698 103 136 181 209 351 821 949 1650 3010
2020-12-08 07:30 5.74 965 4710 (1976) 74 (1955) 698 103 136 181 209 351 821 949 1650 3010
2020-12-08 06:30 5.74 965 4710 (1976) 74 (1955) 698 103 136 181 209 351 821 949 1650 3010
2020-12-08 05:30 5.73 953 4710 (1976) 74 (1955) 698 103 136 181 209 351 821 949 1650 3010
2020-12-08 04:30 5.74 965 4710 (1976) 74 (1955) 698 103 136 181 209 351 821 949 1650 3010
2020-12-08 03:30 5.75 978 4710 (1976) 74 (1955) 698 103 136 181 209 351 821 949 1650 3010
2020-12-08 02:30 5.75 978 4710 (1976) 74 (1955) 698 103 136 181 209 351 821 949 1650 3010
2020-12-08 01:30 5.76 990 4710 (1976) 74 (1955) 698 103 136 181 209 351 821 949 1650 3010
2020-12-08 00:30 5.76 990 4710 (1976) 74 (1955) 698 103 136 181 209 351 821 949 1650 3010
2020-12-07 23:30 5.77 1000 7480 (1976) 76 (1955) 779 100 135 178 212 365 829 991 1900 2700
2020-12-07 22:30 5.76 990 7480 (1976) 76 (1955) 779 100 135 178 212 365 829 991 1900 2700
2020-12-07 21:30 5.78 1020 7480 (1976) 76 (1955) 779 100 135 178 212 365 829 991 1900 2700
2020-12-07 20:30 5.78 1020 7480 (1976) 76 (1955) 779 100 135 178 212 365 829 991 1900 2700
2020-12-07 19:30 5.78 1020 7480 (1976) 76 (1955) 779 100 135 178 212 365 829 991 1900 2700
2020-12-07 18:30 5.78 1020 7480 (1976) 76 (1955) 779 100 135 178 212 365 829 991 1900 2700
2020-12-07 17:30 5.78 1020 7480 (1976) 76 (1955) 779 100 135 178 212 365 829 991 1900 2700
2020-12-07 16:30 5.77 1000 7480 (1976) 76 (1955) 779 100 135 178 212 365 829 991 1900 2700
2020-12-07 15:30 5.79 1030 7480 (1976) 76 (1955) 779 100 135 178 212 365 829 991 1900 2700
2020-12-07 14:30 5.80 1040 7480 (1976) 76 (1955) 779 100 135 178 212 365 829 991 1900 2700
2020-12-07 13:30 5.80 1040 7480 (1976) 76 (1955) 779 100 135 178 212 365 829 991 1900 2700
2020-12-07 12:30 5.81 1050 7480 (1976) 76 (1955) 779 100 135 178 212 365 829 991 1900 2700
2020-12-07 11:30 5.80 636 7480 (1976) 76 (1955) 779 100 135 178 212 365 829 991 1900 2700
2020-12-07 10:30 5.81 641 7480 (1976) 76 (1955) 779 100 135 178 212 365 829 991 1900 2700
2020-12-07 09:30 5.82 647 7480 (1976) 76 (1955) 779 100 135 178 212 365 829 991 1900 2700
2020-12-07 08:30 5.83 653 7480 (1976) 76 (1955) 779 100 135 178 212 365 829 991 1900 2700
2020-12-07 07:30 5.84 659 7480 (1976) 76 (1955) 779 100 135 178 212 365 829 991 1900 2700
2020-12-07 06:30 5.83 653 7480 (1976) 76 (1955) 779 100 135 178 212 365 829 991 1900 2700
2020-12-07 05:30 5.85 664 7480 (1976) 76 (1955) 779 100 135 178 212 365 829 991 1900 2700
2020-12-07 04:30 5.84 659 7480 (1976) 76 (1955) 779 100 135 178 212 365 829 991 1900 2700
2020-12-07 03:30 5.83 653 7480 (1976) 76 (1955) 779 100 135 178 212 365 829 991 1900 2700
2020-12-07 02:30 5.84 659 7480 (1976) 76 (1955) 779 100 135 178 212 365 829 991 1900 2700
2020-12-07 01:30 5.85 664 7480 (1976) 76 (1955) 779 100 135 178 212 365 829 991 1900 2700
2020-12-07 00:30 5.86 670 7480 (1976) 76 (1955) 779 100 135 178 212 365 829 991 1900 2700
2020-12-06 23:30 5.86 670 10300 (1974) 76 (1955) 797 99 140 180 207 357 866 1030 1760 2460
2020-12-06 22:30 5.88 682 10300 (1974) 76 (1955) 797 99 140 180 207 357 866 1030 1760 2460
2020-12-06 21:30 5.88 682 10300 (1974) 76 (1955) 797 99 140 180 207 357 866 1030 1760 2460
2020-12-06 20:30 5.87 676 10300 (1974) 76 (1955) 797 99 140 180 207 357 866 1030 1760 2460
2020-12-06 19:30 5.88 682 10300 (1974) 76 (1955) 797 99 140 180 207 357 866 1030 1760 2460
2020-12-06 18:30 5.88 682 10300 (1974) 76 (1955) 797 99 140 180 207 357 866 1030 1760 2460
2020-12-06 17:30 5.89 688 10300 (1974) 76 (1955) 797 99 140 180 207 357 866 1030 1760 2460
2020-12-06 16:30 5.88 682 10300 (1974) 76 (1955) 797 99 140 180 207 357 866 1030 1760 2460
2020-12-06 15:30 5.89 688 10300 (1974) 76 (1955) 797 99 140 180 207 357 866 1030 1760 2460
2020-12-06 14:30 5.90 694 10300 (1974) 76 (1955) 797 99 140 180 207 357 866 1030 1760 2460
2020-12-06 13:30 5.92 706 10300 (1974) 76 (1955) 797 99 140 180 207 357 866 1030 1760 2460
2020-12-06 12:30 5.90 694 10300 (1974) 76 (1955) 797 99 140 180 207 357 866 1030 1760 2460
2020-12-06 11:30 5.92 706 10300 (1974) 76 (1955) 797 99 140 180 207 357 866 1030 1760 2460
2020-12-06 10:30 5.93 712 10300 (1974) 76 (1955) 797 99 140 180 207 357 866 1030 1760 2460
2020-12-06 09:30 5.94 718 10300 (1974) 76 (1955) 797 99 140 180 207 357 866 1030 1760 2460
2020-12-06 08:30 5.93 712 10300 (1974) 76 (1955) 797 99 140 180 207 357 866 1030 1760 2460
2020-12-06 07:30 5.95 724 10300 (1974) 76 (1955) 797 99 140 180 207 357 866 1030 1760 2460
2020-12-06 06:30 5.97 737 10300 (1974) 76 (1955) 797 99 140 180 207 357 866 1030 1760 2460
2020-12-06 05:30 5.97 737 10300 (1974) 76 (1955) 797 99 140 180 207 357 866 1030 1760 2460
2020-12-06 04:30 5.97 737 10300 (1974) 76 (1955) 797 99 140 180 207 357 866 1030 1760 2460
2020-12-06 03:30 5.96 730 10300 (1974) 76 (1955) 797 99 140 180 207 357 866 1030 1760 2460
2020-12-06 02:30 5.99 749 10300 (1974) 76 (1955) 797 99 140 180 207 357 866 1030 1760 2460
2020-12-06 01:30 5.99 749 10300 (1974) 76 (1955) 797 99 140 180 207 357 866 1030 1760 2460
2020-12-06 00:30 5.99 749 10300 (1974) 76 (1955) 797 99 140 180 207 357 866 1030 1760 2460
2020-12-05 23:30 5.99 749 14300 (1974) 76 (1955) 890 95 130 167 189 362 858 952 1760 2550
2020-12-05 22:30 6.01 762 14300 (1974) 76 (1955) 890 95 130 167 189 362 858 952 1760 2550
2020-12-05 21:30 6.01 762 14300 (1974) 76 (1955) 890 95 130 167 189 362 858 952 1760 2550
2020-12-05 20:30 6.01 762 14300 (1974) 76 (1955) 890 95 130 167 189 362 858 952 1760 2550
2020-12-05 19:30 6.02 768 14300 (1974) 76 (1955) 890 95 130 167 189 362 858 952 1760 2550
2020-12-05 18:30 6.01 762 14300 (1974) 76 (1955) 890 95 130 167 189 362 858 952 1760 2550
2020-12-05 17:30 6.02 768 14300 (1974) 76 (1955) 890 95 130 167 189 362 858 952 1760 2550
2020-12-05 16:30 6.02 768 14300 (1974) 76 (1955) 890 95 130 167 189 362 858 952 1760 2550
2020-12-05 15:30 6.03 775 14300 (1974) 76 (1955) 890 95 130 167 189 362 858 952 1760 2550
2020-12-05 14:30 6.05 788 14300 (1974) 76 (1955) 890 95 130 167 189 362 858 952 1760 2550
2020-12-05 13:30 6.04 781 14300 (1974) 76 (1955) 890 95 130 167 189 362 858 952 1760 2550
2020-12-05 12:30 6.06 794 14300 (1974) 76 (1955) 890 95 130 167 189 362 858 952 1760 2550
2020-12-05 11:30 6.06 794 14300 (1974) 76 (1955) 890 95 130 167 189 362 858 952 1760 2550
2020-12-05 10:30 6.06 794 14300 (1974) 76 (1955) 890 95 130 167 189 362 858 952 1760 2550
2020-12-05 09:30 6.09 814 14300 (1974) 76 (1955) 890 95 130 167 189 362 858 952 1760 2550
2020-12-05 08:30 6.08 807 14300 (1974) 76 (1955) 890 95 130 167 189 362 858 952 1760 2550
2020-12-05 07:30 6.09 814 14300 (1974) 76 (1955) 890 95 130 167 189 362 858 952 1760 2550
2020-12-05 06:30 6.10 821 14300 (1974) 76 (1955) 890 95 130 167 189 362 858 952 1760 2550
2020-12-05 05:30 6.11 827 14300 (1974) 76 (1955) 890 95 130 167 189 362 858 952 1760 2550
2020-12-05 04:30 6.11 827 14300 (1974) 76 (1955) 890 95 130 167 189 362 858 952 1760 2550
2020-12-05 03:30 6.11 827 14300 (1974) 76 (1955) 890 95 130 167 189 362 858 952 1760 2550
2020-12-05 02:30 6.12 834 14300 (1974) 76 (1955) 890 95 130 167 189 362 858 952 1760 2550
2020-12-05 01:30 6.11 827 14300 (1974) 76 (1955) 890 95 130 167 189 362 858 952 1760 2550
2020-12-05 00:30 6.12 834 14300 (1974) 76 (1955) 890 95 130 167 189 362 858 952 1760 2550
2020-12-04 23:30 6.14 848 14000 (1983) 76 (1955) 881 98 124 166 189 354 880 974 1860 2970
2020-12-04 22:30 6.11 827 14000 (1983) 76 (1955) 881 98 124 166 189 354 880 974 1860 2970
2020-12-04 21:30 6.11 827 14000 (1983) 76 (1955) 881 98 124 166 189 354 880 974 1860 2970
2020-12-04 20:30 6.11 827 14000 (1983) 76 (1955) 881 98 124 166 189 354 880 974 1860 2970
2020-12-04 19:30 6.10 821 14000 (1983) 76 (1955) 881 98 124 166 189 354 880 974 1860 2970
2020-12-04 18:30 6.09 814 14000 (1983) 76 (1955) 881 98 124 166 189 354 880 974 1860 2970
2020-12-04 17:30 6.06 794 14000 (1983) 76 (1955) 881 98 124 166 189 354 880 974 1860 2970
2020-12-04 16:30 6.04 781 14000 (1983) 76 (1955) 881 98 124 166 189 354 880 974 1860 2970
2020-12-04 15:30 6.03 775 14000 (1983) 76 (1955) 881 98 124 166 189 354 880 974 1860 2970
2020-12-04 14:30 5.97 737 14000 (1983) 76 (1955) 881 98 124 166 189 354 880 974 1860 2970
2020-12-04 13:30 5.95 724 14000 (1983) 76 (1955) 881 98 124 166 189 354 880 974 1860 2970
2020-12-04 12:30 5.91 700 14000 (1983) 76 (1955) 881 98 124 166 189 354 880 974 1860 2970
2020-12-04 11:30 5.87 676 14000 (1983) 76 (1955) 881 98 124 166 189 354 880 974 1860 2970
2020-12-04 10:30 5.82 647 14000 (1983) 76 (1955) 881 98 124 166 189 354 880 974 1860 2970
2020-12-04 09:30 5.80 636 14000 (1983) 76 (1955) 881 98 124 166 189 354 880 974 1860 2970
2020-12-04 08:30 5.75 608 14000 (1983) 76 (1955) 881 98 124 166 189 354 880 974 1860 2970
2020-12-04 07:30 5.70 581 14000 (1983) 76 (1955) 881 98 124 166 189 354 880 974 1860 2970
2020-12-04 06:30 5.72 591 14000 (1983) 76 (1955) 881 98 124 166 189 354 880 974 1860 2970
2020-12-04 05:30 5.68 570 14000 (1983) 76 (1955) 881 98 124 166 189 354 880 974 1860 2970
2020-12-04 04:30 5.67 565 14000 (1983) 76 (1955) 881 98 124 166 189 354 880 974 1860 2970
2020-12-04 03:30 5.65 554 14000 (1983) 76 (1955) 881 98 124 166 189 354 880 974 1860 2970
2020-12-04 02:30 5.64 549 14000 (1983) 76 (1955) 881 98 124 166 189 354 880 974 1860 2970
2020-12-04 01:30 5.63 544 14000 (1983) 76 (1955) 881 98 124 166 189 354 880 974 1860 2970
2020-12-04 00:30 5.62 539 14000 (1983) 76 (1955) 881 98 124 166 189 354 880 974 1860 2970
2020-12-03 23:30 5.61 534 3890 (2020) 76 (1955) 768 100 124 163 189 370 955 1070 2220 3440
2020-12-03 22:30 5.60 529 3890 (2020) 76 (1955) 768 100 124 163 189 370 955 1070 2220 3440
2020-12-03 21:30 5.61 534 3890 (2020) 76 (1955) 768 100 124 163 189 370 955 1070 2220 3440
2020-12-03 20:30 5.60 529 3890 (2020) 76 (1955) 768 100 124 163 189 370 955 1070 2220 3440
2020-12-03 19:30 5.58 519 3890 (2020) 76 (1955) 768 100 124 163 189 370 955 1070 2220 3440
2020-12-03 18:30 5.59 524 3890 (2020) 76 (1955) 768 100 124 163 189 370 955 1070 2220 3440
2020-12-03 17:30 5.59 524 3890 (2020) 76 (1955) 768 100 124 163 189 370 955 1070 2220 3440
2020-12-03 16:30 5.58 519 3890 (2020) 76 (1955) 768 100 124 163 189 370 955 1070 2220 3440
2020-12-03 15:30 5.59 524 3890 (2020) 76 (1955) 768 100 124 163 189 370 955 1070 2220 3440
2020-12-03 14:30 5.58 519 3890 (2020) 76 (1955) 768 100 124 163 189 370 955 1070 2220 3440
2020-12-03 13:30 5.58 519 3890 (2020) 76 (1955) 768 100 124 163 189 370 955 1070 2220 3440
2020-12-03 12:30 5.57 514 3890 (2020) 76 (1955) 768 100 124 163 189 370 955 1070 2220 3440
2020-12-03 11:30 5.56 509 3890 (2020) 76 (1955) 768 100 124 163 189 370 955 1070 2220 3440
2020-12-03 10:30 5.56 509 3890 (2020) 76 (1955) 768 100 124 163 189 370 955 1070 2220 3440
2020-12-03 09:30 5.54 499 3890 (2020) 76 (1955) 768 100 124 163 189 370 955 1070 2220 3440
2020-12-03 08:30 5.55 776 3890 (2020) 76 (1955) 768 100 124 163 189 370 955 1070 2220 3440
2020-12-03 07:30 5.59 833 3890 (2020) 76 (1955) 768 100 124 163 189 370 955 1070 2220 3440
2020-12-03 06:30 5.58 818 3890 (2020) 76 (1955) 768 100 124 163 189 370 955 1070 2220 3440
2020-12-03 05:30 5.58 818 3890 (2020) 76 (1955) 768 100 124 163 189 370 955 1070 2220 3440
2020-12-03 04:30 5.57 804 3890 (2020) 76 (1955) 768 100 124 163 189 370 955 1070 2220 3440
2020-12-03 03:30 5.56 790 3890 (2020) 76 (1955) 768 100 124 163 189 370 955 1070 2220 3440
2020-12-03 02:30 5.58 818 3890 (2020) 76 (1955) 768 100 124 163 189 370 955 1070 2220 3440
2020-12-03 01:30 5.57 804 3890 (2020) 76 (1955) 768 100 124 163 189 370 955 1070 2220 3440
2020-12-03 00:30 5.57 804 3890 (2020) 76 (1955) 768 100 124 163 189 370 955 1070 2220 3440
2020-12-02 23:30 5.56 790 7890 (2007) 76 (1955) 859 93 123 164 193 383 981 1120 2220 3240
2020-12-02 22:30 5.57 804 7890 (2007) 76 (1955) 859 93 123 164 193 383 981 1120 2220 3240
2020-12-02 21:30 5.54 762 7890 (2007) 76 (1955) 859 93 123 164 193 383 981 1120 2220 3240
2020-12-02 20:30 5.56 790 7890 (2007) 76 (1955) 859 93 123 164 193 383 981 1120 2220 3240
2020-12-02 19:30 5.55 776 7890 (2007) 76 (1955) 859 93 123 164 193 383 981 1120 2220 3240
2020-12-02 18:30 5.56 790 7890 (2007) 76 (1955) 859 93 123 164 193 383 981 1120 2220 3240
2020-12-02 17:30 5.55 776 7890 (2007) 76 (1955) 859 93 123 164 193 383 981 1120 2220 3240
2020-12-02 16:30 5.54 762 7890 (2007) 76 (1955) 859 93 123 164 193 383 981 1120 2220 3240
2020-12-02 15:30 5.54 762 7890 (2007) 76 (1955) 859 93 123 164 193 383 981 1120 2220 3240
2020-12-02 14:30 5.54 762 7890 (2007) 76 (1955) 859 93 123 164 193 383 981 1120 2220 3240
2020-12-02 13:30 5.54 762 7890 (2007) 76 (1955) 859 93 123 164 193 383 981 1120 2220 3240
2020-12-02 12:30 5.54 762 7890 (2007) 76 (1955) 859 93 123 164 193 383 981 1120 2220 3240
2020-12-02 11:30 5.50 708 7890 (2007) 76 (1955) 859 93 123 164 193 383 981 1120 2220 3240
2020-12-02 10:30 5.52 735 7890 (2007) 76 (1955) 859 93 123 164 193 383 981 1120 2220 3240
2020-12-02 09:30 5.50 708 7890 (2007) 76 (1955) 859 93 123 164 193 383 981 1120 2220 3240
2020-12-02 08:30 5.51 721 7890 (2007) 76 (1955) 859 93 123 164 193 383 981 1120 2220 3240
2020-12-02 07:30 5.51 721 7890 (2007) 76 (1955) 859 93 123 164 193 383 981 1120 2220 3240
2020-12-02 06:30 5.52 735 7890 (2007) 76 (1955) 859 93 123 164 193 383 981 1120 2220 3240
2020-12-02 05:30 5.52 735 7890 (2007) 76 (1955) 859 93 123 164 193 383 981 1120 2220 3240
2020-12-02 04:30 5.53 748 7890 (2007) 76 (1955) 859 93 123 164 193 383 981 1120 2220 3240
2020-12-02 03:30 5.51 721 7890 (2007) 76 (1955) 859 93 123 164 193 383 981 1120 2220 3240
2020-12-02 02:30 5.54 762 7890 (2007) 76 (1955) 859 93 123 164 193 383 981 1120 2220 3240
2020-12-02 01:30 5.54 762 7890 (2007) 76 (1955) 859 93 123 164 193 383 981 1120 2220 3240
2020-12-02 00:30 5.54 762 7890 (2007) 76 (1955) 859 93 123 164 193 383 981 1120 2220 3240
2020-12-01 23:30 5.54 762 11200 (2020) 76 (1955) 1000 91 124 166 197 385 963 1150 2340 4190
2020-12-01 22:30 5.54 762 11200 (2020) 76 (1955) 1000 91 124 166 197 385 963 1150 2340 4190
2020-12-01 21:30 5.55 776 11200 (2020) 76 (1955) 1000 91 124 166 197 385 963 1150 2340 4190
2020-12-01 20:30 5.55 776 11200 (2020) 76 (1955) 1000 91 124 166 197 385 963 1150 2340 4190
2020-12-01 19:30 5.55 776 11200 (2020) 76 (1955) 1000 91 124 166 197 385 963 1150 2340 4190
2020-12-01 18:30 5.54 762 11200 (2020) 76 (1955) 1000 91 124 166 197 385 963 1150 2340 4190
2020-12-01 17:30 5.54 762 11200 (2020) 76 (1955) 1000 91 124 166 197 385 963 1150 2340 4190
2020-12-01 16:30 5.55 776 11200 (2020) 76 (1955) 1000 91 124 166 197 385 963 1150 2340 4190
2020-12-01 15:30 5.55 776 11200 (2020) 76 (1955) 1000 91 124 166 197 385 963 1150 2340 4190
2020-12-01 14:30 5.56 802 11200 (2020) 76 (1955) 1000 91 124 166 197 385 963 1150 2340 4190
2020-12-01 13:30 5.56 802 11200 (2020) 76 (1955) 1000 91 124 166 197 385 963 1150 2340 4190
2020-12-01 12:30 5.57 816 11200 (2020) 76 (1955) 1000 91 124 166 197 385 963 1150 2340 4190
2020-12-01 11:30 5.58 829 11200 (2020) 76 (1955) 1000 91 124 166 197 385 963 1150 2340 4190
2020-12-01 10:30 5.57 816 11200 (2020) 76 (1955) 1000 91 124 166 197 385 963 1150 2340 4190
2020-12-01 09:30 5.55 789 11200 (2020) 76 (1955) 1000 91 124 166 197 385 963 1150 2340 4190
2020-12-01 08:30 5.57 816 11200 (2020) 76 (1955) 1000 91 124 166 197 385 963 1150 2340 4190
2020-12-01 07:30 5.59 843 11200 (2020) 76 (1955) 1000 91 124 166 197 385 963 1150 2340 4190
2020-12-01 06:30 5.58 829 11200 (2020) 76 (1955) 1000 91 124 166 197 385 963 1150 2340 4190
2020-12-01 05:30 5.58 829 11200 (2020) 76 (1955) 1000 91 124 166 197 385 963 1150 2340 4190
2020-12-01 04:30 5.59 843 11200 (2020) 76 (1955) 1000 91 124 166 197 385 963 1150 2340 4190
2020-12-01 03:30 5.60 857 11200 (2020) 76 (1955) 1000 91 124 166 197 385 963 1150 2340 4190
2020-12-01 02:30 5.58 829 11200 (2020) 76 (1955) 1000 91 124 166 197 385 963 1150 2340 4190
2020-12-01 01:30 5.60 857 11200 (2020) 76 (1955) 1000 91 124 166 197 385 963 1150 2340 4190
2020-12-01 00:30 5.60 857 11200 (2020) 76 (1955) 1000 91 124 166 197 385 963 1150 2340 4190
2020-11-30 23:30 5.60 857 6880 (1997) 79 (1955) 861 93 124 166 196 392 1010 1120 1750 4320
2020-11-30 22:30 5.60 857 6880 (1997) 79 (1955) 861 93 124 166 196 392 1010 1120 1750 4320
2020-11-30 21:30 5.61 871 6880 (1997) 79 (1955) 861 93 124 166 196 392 1010 1120 1750 4320
2020-11-30 20:30 5.61 871 6880 (1997) 79 (1955) 861 93 124 166 196 392 1010 1120 1750 4320
2020-11-30 19:30 5.60 857 6880 (1997) 79 (1955) 861 93 124 166 196 392 1010 1120 1750 4320
2020-11-30 18:30 5.60 857 6880 (1997) 79 (1955) 861 93 124 166 196 392 1010 1120 1750 4320
2020-11-30 17:30 5.61 871 6880 (1997) 79 (1955) 861 93 124 166 196 392 1010 1120 1750 4320
2020-11-30 16:30 5.61 871 6880 (1997) 79 (1955) 861 93 124 166 196 392 1010 1120 1750 4320
2020-11-30 15:30 5.62 886 6880 (1997) 79 (1955) 861 93 124 166 196 392 1010 1120 1750 4320
2020-11-30 14:30 5.62 886 6880 (1997) 79 (1955) 861 93 124 166 196 392 1010 1120 1750 4320
2020-11-30 13:30 5.61 871 6880 (1997) 79 (1955) 861 93 124 166 196 392 1010 1120 1750 4320
2020-11-30 12:30 5.63 900 6880 (1997) 79 (1955) 861 93 124 166 196 392 1010 1120 1750 4320
2020-11-30 11:30 5.65 929 6880 (1997) 79 (1955) 861 93 124 166 196 392 1010 1120 1750 4320
2020-11-30 10:30 5.64 915 6880 (1997) 79 (1955) 861 93 124 166 196 392 1010 1120 1750 4320
2020-11-30 09:30 5.63 900 6880 (1997) 79 (1955) 861 93 124 166 196 392 1010 1120 1750 4320
2020-11-30 08:30 5.64 915 6880 (1997) 79 (1955) 861 93 124 166 196 392 1010 1120 1750 4320
2020-11-30 07:30 5.65 929 6880 (1997) 79 (1955) 861 93 124 166 196 392 1010 1120 1750 4320
2020-11-30 06:30 5.65 929 6880 (1997) 79 (1955) 861 93 124 166 196 392 1010 1120 1750 4320
2020-11-30 05:30 5.67 959 6880 (1997) 79 (1955) 861 93 124 166 196 392 1010 1120 1750 4320
2020-11-30 04:30 5.66 944 6880 (1997) 79 (1955) 861 93 124 166 196 392 1010 1120 1750 4320
2020-11-30 03:30 5.67 959 6880 (1997) 79 (1955) 861 93 124 166 196 392 1010 1120 1750 4320
2020-11-30 02:30 5.67 959 6880 (1997) 79 (1955) 861 93 124 166 196 392 1010 1120 1750 4320
2020-11-30 01:30 5.68 975 6880 (1997) 79 (1955) 861 93 124 166 196 392 1010 1120 1750 4320
2020-11-29 23:30 5.69 990 9380 (2016) 79 (1955) 885 97 123 168 199 391 1110 1210 1860 3360
2020-11-29 22:30 5.70 1010 9380 (2016) 79 (1955) 885 97 123 168 199 391 1110 1210 1860 3360
2020-11-29 21:30 5.70 1010 9380 (2016) 79 (1955) 885 97 123 168 199 391 1110 1210 1860 3360
2020-11-29 20:30 5.70 1010 9380 (2016) 79 (1955) 885 97 123 168 199 391 1110 1210 1860 3360
2020-11-29 19:30 5.72 1040 9380 (2016) 79 (1955) 885 97 123 168 199 391 1110 1210 1860 3360
2020-11-29 18:30 5.70 1010 9380 (2016) 79 (1955) 885 97 123 168 199 391 1110 1210 1860 3360
2020-11-29 17:30 5.70 1010 9380 (2016) 79 (1955) 885 97 123 168 199 391 1110 1210 1860 3360
2020-11-29 16:30 5.72 1040 9380 (2016) 79 (1955) 885 97 123 168 199 391 1110 1210 1860 3360
2020-11-29 15:30 5.72 1040 9380 (2016) 79 (1955) 885 97 123 168 199 391 1110 1210 1860 3360
2020-11-29 14:30 5.71 1020 9380 (2016) 79 (1955) 885 97 123 168 199 391 1110 1210 1860 3360
2020-11-29 13:30 5.74 1060 9380 (2016) 79 (1955) 885 97 123 168 199 391 1110 1210 1860 3360
2020-11-29 12:30 5.74 1060 9380 (2016) 79 (1955) 885 97 123 168 199 391 1110 1210 1860 3360
2020-11-29 11:30 5.74 1060 9380 (2016) 79 (1955) 885 97 123 168 199 391 1110 1210 1860 3360
2020-11-29 10:30 5.76 1070 9380 (2016) 79 (1955) 885 97 123 168 199 391 1110 1210 1860 3360
2020-11-29 09:30 5.75 1070 9380 (2016) 79 (1955) 885 97 123 168 199 391 1110 1210 1860 3360
2020-11-29 08:30 5.76 1070 9380 (2016) 79 (1955) 885 97 123 168 199 391 1110 1210 1860 3360
2020-11-29 07:30 5.77 1080 9380 (2016) 79 (1955) 885 97 123 168 199 391 1110 1210 1860 3360
2020-11-29 06:30 5.76 1070 9380 (2016) 79 (1955) 885 97 123 168 199 391 1110 1210 1860 3360
2020-11-29 05:30 5.77 1080 9380 (2016) 79 (1955) 885 97 123 168 199 391 1110 1210 1860 3360
2020-11-29 04:30 5.78 1090 9380 (2016) 79 (1955) 885 97 123 168 199 391 1110 1210 1860 3360
2020-11-29 03:30 5.78 1090 9380 (2016) 79 (1955) 885 97 123 168 199 391 1110 1210 1860 3360
2020-11-29 02:30 5.78 1090 9380 (2016) 79 (1955) 885 97 123 168 199 391 1110 1210 1860 3360
2020-11-29 01:30 5.78 1090 9380 (2016) 79 (1955) 885 97 123 168 199 391 1110 1210 1860 3360
2020-11-29 00:30 5.78 1090 9380 (2016) 79 (1955) 885 97 123 168 199 391 1110 1210 1860 3360
2020-11-28 23:30 5.80 1100 12000 (1974) 79 (1955) 929 100 123 171 203 380 1150 1350 1820 3750
2020-11-28 22:30 5.81 1110 12000 (1974) 79 (1955) 929 100 123 171 203 380 1150 1350 1820 3750
2020-11-28 21:30 5.82 1110 12000 (1974) 79 (1955) 929 100 123 171 203 380 1150 1350 1820 3750
2020-11-28 20:30 5.82 1110 12000 (1974) 79 (1955) 929 100 123 171 203 380 1150 1350 1820 3750
2020-11-28 19:30 5.83 1120 12000 (1974) 79 (1955) 929 100 123 171 203 380 1150 1350 1820 3750
2020-11-28 18:30 5.84 1130 12000 (1974) 79 (1955) 929 100 123 171 203 380 1150 1350 1820 3750
2020-11-28 17:30 5.83 1120 12000 (1974) 79 (1955) 929 100 123 171 203 380 1150 1350 1820 3750
2020-11-28 16:30 5.84 1130 12000 (1974) 79 (1955) 929 100 123 171 203 380 1150 1350 1820 3750
2020-11-28 15:30 5.84 1130 12000 (1974) 79 (1955) 929 100 123 171 203 380 1150 1350 1820 3750
2020-11-28 14:30 5.85 1130 12000 (1974) 79 (1955) 929 100 123 171 203 380 1150 1350 1820 3750
2020-11-28 13:30 5.86 1140 12000 (1974) 79 (1955) 929 100 123 171 203 380 1150 1350 1820 3750
2020-11-28 12:30 5.88 1160 12000 (1974) 79 (1955) 929 100 123 171 203 380 1150 1350 1820 3750
2020-11-28 11:30 5.86 1140 12000 (1974) 79 (1955) 929 100 123 171 203 380 1150 1350 1820 3750
2020-11-28 10:30 5.88 1160 12000 (1974) 79 (1955) 929 100 123 171 203 380 1150 1350 1820 3750
2020-11-28 09:30 5.89 1160 12000 (1974) 79 (1955) 929 100 123 171 203 380 1150 1350 1820 3750
2020-11-28 08:30 5.90 1170 12000 (1974) 79 (1955) 929 100 123 171 203 380 1150 1350 1820 3750
2020-11-28 07:30 5.91 1180 12000 (1974) 79 (1955) 929 100 123 171 203 380 1150 1350 1820 3750
2020-11-28 06:30 5.92 1180 12000 (1974) 79 (1955) 929 100 123 171 203 380 1150 1350 1820 3750
2020-11-28 05:30 5.92 1180 12000 (1974) 79 (1955) 929 100 123 171 203 380 1150 1350 1820 3750
2020-11-28 04:30 5.94 1200 12000 (1974) 79 (1955) 929 100 123 171 203 380 1150 1350 1820 3750
2020-11-28 03:30 5.94 1200 12000 (1974) 79 (1955) 929 100 123 171 203 380 1150 1350 1820 3750
2020-11-28 02:30 5.94 1200 12000 (1974) 79 (1955) 929 100 123 171 203 380 1150 1350 1820 3750
2020-11-28 01:30 5.94 1200 12000 (1974) 79 (1955) 929 100 123 171 203 380 1150 1350 1820 3750
2020-11-28 00:30 5.96 1210 12000 (1974) 79 (1955) 929 100 123 171 203 380 1150 1350 1820 3750
2020-11-27 23:30 5.98 1230 16400 (1974) 79 (1955) 921 103 122 178 208 368 1120 1230 1800 3340
2020-11-27 22:30 5.99 1230 16400 (1974) 79 (1955) 921 103 122 178 208 368 1120 1230 1800 3340
2020-11-27 21:30 5.98 1230 16400 (1974) 79 (1955) 921 103 122 178 208 368 1120 1230 1800 3340
2020-11-27 20:30 5.99 1230 16400 (1974) 79 (1955) 921 103 122 178 208 368 1120 1230 1800 3340
2020-11-27 19:30 6.01 1250 16400 (1974) 79 (1955) 921 103 122 178 208 368 1120 1230 1800 3340
2020-11-27 18:30 6.00 1240 16400 (1974) 79 (1955) 921 103 122 178 208 368 1120 1230 1800 3340
2020-11-27 17:30 6.00 1240 16400 (1974) 79 (1955) 921 103 122 178 208 368 1120 1230 1800 3340
2020-11-27 16:30 6.01 1250 16400 (1974) 79 (1955) 921 103 122 178 208 368 1120 1230 1800 3340
2020-11-27 15:30 6.02 1260 16400 (1974) 79 (1955) 921 103 122 178 208 368 1120 1230 1800 3340
2020-11-27 14:30 6.04 1270 16400 (1974) 79 (1955) 921 103 122 178 208 368 1120 1230 1800 3340
2020-11-27 13:30 6.04 1270 16400 (1974) 79 (1955) 921 103 122 178 208 368 1120 1230 1800 3340
2020-11-27 12:30 6.04 1270 16400 (1974) 79 (1955) 921 103 122 178 208 368 1120 1230 1800 3340
2020-11-27 11:30 6.06 1290 16400 (1974) 79 (1955) 921 103 122 178 208 368 1120 1230 1800 3340
2020-11-27 10:30 6.08 1300 16400 (1974) 79 (1955) 921 103 122 178 208 368 1120 1230 1800 3340
2020-11-27 09:30 6.09 1310 16400 (1974) 79 (1955) 921 103 122 178 208 368 1120 1230 1800 3340
2020-11-27 08:30 6.09 1310 16400 (1974) 79 (1955) 921 103 122 178 208 368 1120 1230 1800 3340
2020-11-27 07:30 6.12 1330 16400 (1974) 79 (1955) 921 103 122 178 208 368 1120 1230 1800 3340
2020-11-27 06:30 6.12 1330 16400 (1974) 79 (1955) 921 103 122 178 208 368 1120 1230 1800 3340
2020-11-27 05:30 6.12 1330 16400 (1974) 79 (1955) 921 103 122 178 208 368 1120 1230 1800 3340
2020-11-27 04:30 6.13 1340 16400 (1974) 79 (1955) 921 103 122 178 208 368 1120 1230 1800 3340
2020-11-27 03:30 6.13 1340 16400 (1974) 79 (1955) 921 103 122 178 208 368 1120 1230 1800 3340
2020-11-27 02:30 6.15 1360 16400 (1974) 79 (1955) 921 103 122 178 208 368 1120 1230 1800 3340
2020-11-27 01:30 6.16 1360 16400 (1974) 79 (1955) 921 103 122 178 208 368 1120 1230 1800 3340
2020-11-27 00:30 6.13 1340 16400 (1974) 79 (1955) 921 103 122 178 208 368 1120 1230 1800 3340
2020-11-26 23:30 6.16 1360 43600 (1974) 79 (1955) 1320 105 126 179 215 364 960 1240 1830 3370
2020-11-26 22:30 6.15 1360 43600 (1974) 79 (1955) 1320 105 126 179 215 364 960 1240 1830 3370
2020-11-26 21:30 6.13 1340 43600 (1974) 79 (1955) 1320 105 126 179 215 364 960 1240 1830 3370
2020-11-26 20:30 6.12 1330 43600 (1974) 79 (1955) 1320 105 126 179 215 364 960 1240 1830 3370
2020-11-26 19:30 6.12 1330 43600 (1974) 79 (1955) 1320 105 126 179 215 364 960 1240 1830 3370
2020-11-26 18:30 6.07 1290 43600 (1974) 79 (1955) 1320 105 126 179 215 364 960 1240 1830 3370
2020-11-26 17:30 6.04 1270 43600 (1974) 79 (1955) 1320 105 126 179 215 364 960 1240 1830 3370
2020-11-26 16:30 6.00 1240 43600 (1974) 79 (1955) 1320 105 126 179 215 364 960 1240 1830 3370
2020-11-26 15:30 5.94 1200 43600 (1974) 79 (1955) 1320 105 126 179 215 364 960 1240 1830 3370
2020-11-26 14:30 5.90 1170 43600 (1974) 79 (1955) 1320 105 126 179 215 364 960 1240 1830 3370
2020-11-26 13:30 5.85 1130 43600 (1974) 79 (1955) 1320 105 126 179 215 364 960 1240 1830 3370
2020-11-26 12:30 5.80 1100 43600 (1974) 79 (1955) 1320 105 126 179 215 364 960 1240 1830 3370
2020-11-26 11:30 5.75 1070 43600 (1974) 79 (1955) 1320 105 126 179 215 364 960 1240 1830 3370
2020-11-26 10:30 5.72 1040 43600 (1974) 79 (1955) 1320 105 126 179 215 364 960 1240 1830 3370
2020-11-26 09:30 5.72 1040 43600 (1974) 79 (1955) 1320 105 126 179 215 364 960 1240 1830 3370
2020-11-26 08:30 5.71 1020 43600 (1974) 79 (1955) 1320 105 126 179 215 364 960 1240 1830 3370
2020-11-26 07:30 5.71 1020 43600 (1974) 79 (1955) 1320 105 126 179 215 364 960 1240 1830 3370
2020-11-26 06:30 5.70 1010 43600 (1974) 79 (1955) 1320 105 126 179 215 364 960 1240 1830 3370
2020-11-26 05:30 5.70 1010 43600 (1974) 79 (1955) 1320 105 126 179 215 364 960 1240 1830 3370
2020-11-26 04:30 5.71 1020 43600 (1974) 79 (1955) 1320 105 126 179 215 364 960 1240 1830 3370
2020-11-26 03:30 5.68 975 43600 (1974) 79 (1955) 1320 105 126 179 215 364 960 1240 1830 3370
2020-11-26 02:30 5.67 959 43600 (1974) 79 (1955) 1320 105 126 179 215 364 960 1240 1830 3370
2020-11-26 01:30 5.68 975 43600 (1974) 79 (1955) 1320 105 126 179 215 364 960 1240 1830 3370
2020-11-26 00:30 5.70 1010 43600 (1974) 79 (1955) 1320 105 126 179 215 364 960 1240 1830 3370
2020-11-25 23:30 5.69 990 32500 (1974) 81 (1955) 1140 105 131 186 214 347 841 954 2050 3160
2020-11-25 22:30 5.69 990 32500 (1974) 81 (1955) 1140 105 131 186 214 347 841 954 2050 3160
2020-11-25 21:30 5.68 975 32500 (1974) 81 (1955) 1140 105 131 186 214 347 841 954 2050 3160
2020-11-25 20:30 5.69 990 32500 (1974) 81 (1955) 1140 105 131 186 214 347 841 954 2050 3160
2020-11-25 19:30 5.69 990 32500 (1974) 81 (1955) 1140 105 131 186 214 347 841 954 2050 3160
2020-11-25 18:30 5.69 990 32500 (1974) 81 (1955) 1140 105 131 186 214 347 841 954 2050 3160
2020-11-25 17:30 5.67 959 32500 (1974) 81 (1955) 1140 105 131 186 214 347 841 954 2050 3160
2020-11-25 16:30 5.69 990 32500 (1974) 81 (1955) 1140 105 131 186 214 347 841 954 2050 3160
2020-11-25 15:30 5.67 959 32500 (1974) 81 (1955) 1140 105 131 186 214 347 841 954 2050 3160
2020-11-25 14:30 5.66 944 32500 (1974) 81 (1955) 1140 105 131 186 214 347 841 954 2050 3160
2020-11-25 13:30 5.66 944 32500 (1974) 81 (1955) 1140 105 131 186 214 347 841 954 2050 3160
2020-11-25 12:30 5.67 959 32500 (1974) 81 (1955) 1140 105 131 186 214 347 841 954 2050 3160
2020-11-25 11:30 5.66 944 32500 (1974) 81 (1955) 1140 105 131 186 214 347 841 954 2050 3160
2020-11-25 10:30 5.68 975 32500 (1974) 81 (1955) 1140 105 131 186 214 347 841 954 2050 3160
2020-11-25 09:30 5.67 959 32500 (1974) 81 (1955) 1140 105 131 186 214 347 841 954 2050 3160
2020-11-25 08:30 5.67 959 32500 (1974) 81 (1955) 1140 105 131 186 214 347 841 954 2050 3160
2020-11-25 07:30 5.67 959 32500 (1974) 81 (1955) 1140 105 131 186 214 347 841 954 2050 3160
2020-11-25 06:30 5.66 944 32500 (1974) 81 (1955) 1140 105 131 186 214 347 841 954 2050 3160
2020-11-25 05:30 5.67 959 32500 (1974) 81 (1955) 1140 105 131 186 214 347 841 954 2050 3160
2020-11-25 04:30 5.67 959 32500 (1974) 81 (1955) 1140 105 131 186 214 347 841 954 2050 3160
2020-11-25 03:30 5.68 975 32500 (1974) 81 (1955) 1140 105 131 186 214 347 841 954 2050 3160
2020-11-25 02:30 5.67 959 32500 (1974) 81 (1955) 1140 105 131 186 214 347 841 954 2050 3160
2020-11-25 01:30 5.66 944 32500 (1974) 81 (1955) 1140 105 131 186 214 347 841 954 2050 3160
2020-11-25 00:30 5.67 959 32500 (1974) 81 (1955) 1140 105 131 186 214 347 841 954 2050 3160
2020-11-24 23:30 5.66 944 7400 (1993) 84 (1955) 810 109 133 169 202 355 855 980 2130 3250
2020-11-24 22:30 5.67 959 7400 (1993) 84 (1955) 810 109 133 169 202 355 855 980 2130 3250
2020-11-24 21:30 5.67 959 7400 (1993) 84 (1955) 810 109 133 169 202 355 855 980 2130 3250
2020-11-24 20:30 5.64 915 7400 (1993) 84 (1955) 810 109 133 169 202 355 855 980 2130 3250
2020-11-24 19:30 5.66 944 7400 (1993) 84 (1955) 810 109 133 169 202 355 855 980 2130 3250
2020-11-24 18:30 5.66 944 7400 (1993) 84 (1955) 810 109 133 169 202 355 855 980 2130 3250
2020-11-24 17:30 5.68 975 7400 (1993) 84 (1955) 810 109 133 169 202 355 855 980 2130 3250
2020-11-24 16:30 5.68 975 7400 (1993) 84 (1955) 810 109 133 169 202 355 855 980 2130 3250
2020-11-24 15:30 5.69 990 7400 (1993) 84 (1955) 810 109 133 169 202 355 855 980 2130 3250
2020-11-24 14:30 5.70 1010 7400 (1993) 84 (1955) 810 109 133 169 202 355 855 980 2130 3250
2020-11-24 13:30 5.71 1020 7400 (1993) 84 (1955) 810 109 133 169 202 355 855 980 2130 3250
2020-11-24 12:30 5.69 990 7400 (1993) 84 (1955) 810 109 133 169 202 355 855 980 2130 3250
2020-11-24 11:30 5.69 990 7400 (1993) 84 (1955) 810 109 133 169 202 355 855 980 2130 3250
2020-11-24 10:30 5.71 1020 7400 (1993) 84 (1955) 810 109 133 169 202 355 855 980 2130 3250
2020-11-24 09:30 5.72 1040 7400 (1993) 84 (1955) 810 109 133 169 202 355 855 980 2130 3250
2020-11-24 08:30 5.73 1050 7400 (1993) 84 (1955) 810 109 133 169 202 355 855 980 2130 3250
2020-11-24 07:30 5.71 1020 7400 (1993) 84 (1955) 810 109 133 169 202 355 855 980 2130 3250
2020-11-24 06:30 5.74 1060 7400 (1993) 84 (1955) 810 109 133 169 202 355 855 980 2130 3250
2020-11-24 05:30 5.73 1050 7400 (1993) 84 (1955) 810 109 133 169 202 355 855 980 2130 3250
2020-11-24 04:30 5.74 1060 7400 (1993) 84 (1955) 810 109 133 169 202 355 855 980 2130 3250
2020-11-24 03:30 5.73 1050 7400 (1993) 84 (1955) 810 109 133 169 202 355 855 980 2130